Time,TemperatureF,DewpointF,PressureIn,WindDirection,WindDirectionDegrees,WindSpeedMPH,WindSpeedGustMPH,Humidity,HourlyPrecipIn,Conditions,Clouds,dailyrainin,SoftwareType,DateUTC
2013-01-25 00:00:00,27.9,22.2,30.12,NE,45,1.1,1.6,79,0.00,,BKN050,0.00,VWS V14.01,2013-01-24 23:00:00,
2013-01-25 00:01:00,27.9,22.2,30.12,NE,45,1.3,3.4,79,0.00,,,0.00,VWS V14.01,2013-01-24 23:01:00,
2013-01-25 00:02:00,27.9,22.2,30.12,NE,45,0.0,3.4,79,0.00,,BKN050,0.00,VWS V14.01,2013-01-24 23:02:00,
2013-01-25 00:03:00,27.9,22.2,30.12,NNE,22,1.6,2.7,79,0.00,,BKN050,0.00,VWS V14.01,2013-01-24 23:03:00,
2013-01-25 00:04:00,27.9,22.2,30.12,ESE,112,2.5,3.4,79,0.00,,BKN050,0.00,VWS V14.01,2013-01-24 23:04:00,
2013-01-25 00:05:00,27.9,22.2,30.12,NE,45,0.9,3.4,79,0.00,,BKN050,0.00,VWS V14.01,2013-01-24 23:05:00,
2013-01-25 00:06:00,27.9,22.2,30.12,North,0,1.3,2.2,79,0.00,,BKN050,0.00,VWS V14.01,2013-01-24 23:06:00,
2013-01-25 00:07:00,27.9,22.2,30.12,NE,45,1.1,1.3,79,0.00,,,0.00,VWS V14.01,2013-01-24 23:07:00,
2013-01-25 00:08:00,27.9,22.2,30.12,NE,45,0.0,1.3,79,0.00,,BKN050,0.00,VWS V14.01,2013-01-24 23:08:00,
2013-01-25 00:09:00,27.9,22.2,30.12,NE,45,1.3,2.7,79,0.00,,BKN050,0.00,VWS V14.01,2013-01-24 23:09:00,
2013-01-25 00:10:00,27.9,22.2,30.12,NE,45,1.1,2.0,79,0.00,,BKN050,0.00,VWS V14.01,2013-01-24 23:10:00,
2013-01-25 00:11:00,27.9,22.2,30.12,NE,45,0.0,1.6,79,0.00,,BKN050,0.00,VWS V14.01,2013-01-24 23:11:00,
2013-01-25 00:12:00,27.9,22.2,30.12,NNE,22,0.0,0.0,79,0.00,,,0.00,VWS V14.01,2013-01-24 23:12:00,
2013-01-25 00:13:00,27.9,22.2,30.12,East,90,1.3,1.3,79,0.00,,BKN050,0.00,VWS V14.01,2013-01-24 23:13:00,
2013-01-25 00:14:00,27.9,22.2,30.12,NNW,338,2.2,2.5,79,0.00,,BKN050,0.00,VWS V14.01,2013-01-24 23:14:00,
2013-01-25 00:15:00,27.9,22.2,30.12,North,0,0.9,2.2,79,0.00,,BKN050,0.00,VWS V14.01,2013-01-24 23:15:00,
2013-01-25 00:16:00,27.9,22.2,30.12,North,0,2.0,2.7,79,0.00,,BKN050,0.00,VWS V14.01,2013-01-24 23:16:00,
2013-01-25 00:17:00,27.9,22.2,30.12,NE,45,0.0,2.0,79,0.00,,,0.00,VWS V14.01,2013-01-24 23:17:00,
2013-01-25 00:18:00,27.9,22.2,30.12,NE,45,0.9,1.6,79,0.00,,BKN050,0.00,VWS V14.01,2013-01-24 23:18:00,
2013-01-25 00:19:00,27.9,22.2,30.12,NNW,338,0.0,0.9,79,0.00,,BKN050,0.00,VWS V14.01,2013-01-24 23:19:00,
2013-01-25 00:20:00,27.9,22.2,30.12,NNE,22,0.0,0.0,79,0.00,,BKN050,0.00,VWS V14.01,2013-01-24 23:20:00,
2013-01-25 00:21:00,27.9,22.2,30.12,North,0,1.6,1.6,79,0.00,,BKN050,0.00,VWS V14.01,2013-01-24 23:21:00,
2013-01-25 00:22:00,27.9,22.2,30.12,ENE,68,0.0,1.6,79,0.00,,,0.00,VWS V14.01,2013-01-24 23:22:00,
2013-01-25 00:23:00,27.9,22.2,30.12,NE,45,0.0,0.9,79,0.00,,BKN050,0.00,VWS V14.01,2013-01-24 23:23:00,
2013-01-25 00:24:00,27.9,22.2,30.12,NE,45,1.3,1.3,79,0.00,,BKN050,0.00,VWS V14.01,2013-01-24 23:24:00,
2013-01-25 00:25:00,27.9,22.2,30.12,East,90,1.3,1.3,79,0.00,,BKN050,0.00,VWS V14.01,2013-01-24 23:25:00,
2013-01-25 00:26:00,27.9,22.2,30.12,ENE,68,0.0,2.2,79,0.00,,BKN050,0.00,VWS V14.01,2013-01-24 23:26:00,
2013-01-25 00:27:00,27.9,22.2,30.12,ENE,68,1.1,1.1,79,0.00,,,0.00,VWS V14.01,2013-01-24 23:27:00,
2013-01-25 00:28:00,27.9,22.2,30.12,East,90,1.3,2.5,79,0.00,,BKN050,0.00,VWS V14.01,2013-01-24 23:28:00,
2013-01-25 00:29:00,27.9,22.2,30.12,NE,45,0.0,1.3,79,0.00,,BKN050,0.00,VWS V14.01,2013-01-24 23:29:00,
2013-01-25 00:30:00,27.9,22.2,30.12,East,90,0.0,1.3,79,0.00,,BKN050,0.00,VWS V14.01,2013-01-24 23:30:00,
2013-01-25 00:31:00,27.9,22.2,30.12,NE,45,0.9,1.1,79,0.00,,BKN050,0.00,VWS V14.01,2013-01-24 23:31:00,
2013-01-25 00:32:00,27.9,22.2,30.12,East,90,0.0,0.9,79,0.00,,,0.00,VWS V14.01,2013-01-24 23:32:00,
2013-01-25 00:33:00,27.9,22.2,30.12,NW,315,1.3,2.0,79,0.00,,BKN050,0.00,VWS V14.01,2013-01-24 23:33:00,
2013-01-25 00:34:00,27.9,22.2,30.12,NNE,22,3.1,3.1,79,0.00,,BKN050,0.00,VWS V14.01,2013-01-24 23:34:00,
2013-01-25 00:35:00,27.9,22.2,30.12,East,90,3.4,3.8,79,0.00,,BKN050,0.00,VWS V14.01,2013-01-24 23:35:00,
2013-01-25 00:36:00,27.9,22.2,30.12,East,90,1.1,3.4,79,0.00,,BKN050,0.00,VWS V14.01,2013-01-24 23:36:00,
2013-01-25 00:37:00,27.9,22.2,30.12,SE,135,2.5,2.5,79,0.00,,,0.00,VWS V14.01,2013-01-24 23:37:00,
2013-01-25 00:38:00,27.9,22.2,30.12,East,90,2.5,2.5,79,0.00,,BKN050,0.00,VWS V14.01,2013-01-24 23:38:00,
2013-01-25 00:39:00,27.9,22.2,30.12,North,0,0.0,2.5,79,0.00,,BKN050,0.00,VWS V14.01,2013-01-24 23:39:00,
2013-01-25 00:40:00,27.9,22.2,30.12,NE,45,1.1,2.0,79,0.00,,BKN050,0.00,VWS V14.01,2013-01-24 23:40:00,
2013-01-25 00:41:00,27.9,22.2,30.12,East,90,2.2,2.2,79,0.00,,BKN050,0.00,VWS V14.01,2013-01-24 23:41:00,
2013-01-25 00:42:00,27.9,22.2,30.12,NE,45,1.1,2.2,79,0.00,,,0.00,VWS V14.01,2013-01-24 23:42:00,
2013-01-25 00:43:00,27.9,22.2,30.12,NE,45,2.2,2.2,79,0.00,,BKN050,0.00,VWS V14.01,2013-01-24 23:43:00,
2013-01-25 00:44:00,27.9,22.2,30.12,NE,45,2.9,2.9,79,0.00,,BKN050,0.00,VWS V14.01,2013-01-24 23:44:00,
2013-01-25 00:45:00,27.9,22.2,30.12,NE,45,0.0,2.9,79,0.00,,BKN050,0.00,VWS V14.01,2013-01-24 23:45:00,
2013-01-25 00:46:00,27.9,22.2,30.12,East,90,0.0,2.0,79,0.00,,BKN050,0.00,VWS V14.01,2013-01-24 23:46:00,
2013-01-25 00:47:00,27.9,22.2,30.12,East,90,1.1,1.6,79,0.00,,,0.00,VWS V14.01,2013-01-24 23:47:00,
2013-01-25 00:48:00,27.9,22.2,30.12,East,90,2.0,2.2,79,0.00,,BKN050,0.00,VWS V14.01,2013-01-24 23:48:00,
2013-01-25 00:49:00,27.9,22.2,30.15,WNW,292,0.9,2.2,79,0.00,,BKN050,0.00,VWS V14.01,2013-01-24 23:49:00,
2013-01-25 00:50:00,27.9,22.2,30.15,East,90,2.0,2.0,79,0.00,,BKN050,0.00,VWS V14.01,2013-01-24 23:50:00,
2013-01-25 00:51:00,27.9,22.2,30.15,East,90,2.2,2.5,79,0.00,,BKN050,0.00,VWS V14.01,2013-01-24 23:51:00,
2013-01-25 00:52:00,27.9,22.2,30.15,NE,45,1.1,2.2,79,0.00,,,0.00,VWS V14.01,2013-01-24 23:52:00,
2013-01-25 00:53:00,27.9,22.2,30.15,NNE,22,0.0,2.2,79,0.00,,BKN050,0.00,VWS V14.01,2013-01-24 23:53:00,
2013-01-25 00:54:00,27.9,22.2,30.15,East,90,1.6,2.2,79,0.00,,BKN050,0.00,VWS V14.01,2013-01-24 23:54:00,
2013-01-25 00:55:00,27.9,22.2,30.15,NE,45,1.6,1.6,79,0.00,,BKN050,0.00,VWS V14.01,2013-01-24 23:55:00,
2013-01-25 00:56:00,27.9,22.2,30.15,NNE,22,1.1,1.6,79,0.00,,BKN050,0.00,VWS V14.01,2013-01-24 23:56:00,
2013-01-25 00:57:00,27.9,22.2,30.15,NE,45,2.5,2.9,79,0.00,,,0.00,VWS V14.01,2013-01-24 23:57:00,
2013-01-25 00:58:00,27.9,22.2,30.15,NE,45,1.3,2.5,79,0.00,,BKN050,0.00,VWS V14.01,2013-01-24 23:58:00,
2013-01-25 00:59:00,27.9,22.2,30.15,East,90,2.7,2.7,79,0.00,,BKN050,0.00,VWS V14.01,2013-01-24 23:59:00,
2013-01-25 01:00:00,27.9,22.2,30.15,East,90,1.3,2.7,79,0.00,,BKN050,0.00,VWS V14.01,2013-01-25 00:00:00,
2013-01-25 01:01:00,27.9,22.2,30.15,East,90,1.3,2.7,79,0.00,,BKN050,0.00,VWS V14.01,2013-01-25 00:01:00,
2013-01-25 01:02:00,27.9,22.2,30.15,East,90,1.1,1.3,79,0.00,,,0.00,VWS V14.01,2013-01-25 00:02:00,
2013-01-25 01:03:00,27.9,22.2,30.15,NE,45,1.1,1.1,79,0.00,,BKN050,0.00,VWS V14.01,2013-01-25 00:03:00,
2013-01-25 01:04:00,27.9,22.2,30.15,NE,45,1.1,1.1,79,0.00,,BKN050,0.00,VWS V14.01,2013-01-25 00:04:00,
2013-01-25 01:05:00,27.9,22.2,30.15,NE,45,1.1,1.6,79,0.00,,BKN050,0.00,VWS V14.01,2013-01-25 00:05:00,
2013-01-25 01:06:00,27.9,22.2,30.15,NNE,22,2.0,2.7,79,0.00,,BKN050,0.00,VWS V14.01,2013-01-25 00:06:00,
2013-01-25 01:07:00,27.9,22.2,30.15,NNE,22,2.0,2.0,79,0.00,,,0.00,VWS V14.01,2013-01-25 00:07:00,
2013-01-25 01:08:00,27.9,22.2,30.15,ENE,68,0.9,2.0,79,0.00,,BKN050,0.00,VWS V14.01,2013-01-25 00:08:00,
2013-01-25 01:09:00,27.9,22.2,30.15,ENE,68,0.9,0.9,79,0.00,,BKN050,0.00,VWS V14.01,2013-01-25 00:09:00,
2013-01-25 01:10:00,27.9,22.2,30.15,NNE,22,1.1,2.2,79,0.00,,BKN050,0.00,VWS V14.01,2013-01-25 00:10:00,
2013-01-25 01:11:00,27.9,22.2,30.15,ENE,68,1.1,1.1,79,0.00,,BKN050,0.00,VWS V14.01,2013-01-25 00:11:00,
2013-01-25 01:12:00,27.9,22.2,30.15,WSW,248,2.0,2.0,79,0.00,,,0.00,VWS V14.01,2013-01-25 00:12:00,
2013-01-25 01:13:00,27.9,22.2,30.15,NE,45,0.0,2.0,79,0.00,,BKN050,0.00,VWS V14.01,2013-01-25 00:13:00,
2013-01-25 01:14:00,27.9,22.2,30.15,NE,45,0.0,0.0,79,0.00,,BKN050,0.00,VWS V14.01,2013-01-25 00:14:00,
2013-01-25 01:15:00,27.9,22.2,30.15,NW,315,1.3,1.3,79,0.00,,BKN050,0.00,VWS V14.01,2013-01-25 00:15:00,
2013-01-25 01:16:00,27.9,22.2,30.15,SSW,202,1.1,1.3,79,0.00,,BKN050,0.00,VWS V14.01,2013-01-25 00:16:00,
2013-01-25 01:17:00,27.9,22.2,30.15,East,90,2.9,2.9,79,0.00,,,0.00,VWS V14.01,2013-01-25 00:17:00,
2013-01-25 01:18:00,27.9,22.2,30.15,East,90,2.0,2.9,79,0.00,,BKN050,0.00,VWS V14.01,2013-01-25 00:18:00,
2013-01-25 01:19:00,27.9,22.2,30.15,NE,45,1.6,2.0,79,0.00,,BKN050,0.00,VWS V14.01,2013-01-25 00:19:00,
2013-01-25 01:20:00,27.9,22.2,30.15,East,90,1.1,1.6,79,0.00,,BKN050,0.00,VWS V14.01,2013-01-25 00:20:00,
2013-01-25 01:21:00,27.9,22.2,30.15,NNW,338,0.9,1.1,79,0.00,,BKN050,0.00,VWS V14.01,2013-01-25 00:21:00,
2013-01-25 01:22:00,27.9,22.2,30.15,East,90,1.3,1.3,79,0.00,,,0.00,VWS V14.01,2013-01-25 00:22:00,
2013-01-25 01:23:00,27.9,22.2,30.15,North,0,0.9,4.0,79,0.00,,BKN050,0.00,VWS V14.01,2013-01-25 00:23:00,
2013-01-25 01:24:00,27.9,22.2,30.15,East,90,1.3,2.2,79,0.00,,BKN050,0.00,VWS V14.01,2013-01-25 00:24:00,
2013-01-25 01:25:00,27.9,22.2,30.15,East,90,1.3,1.3,79,0.00,,BKN050,0.00,VWS V14.01,2013-01-25 00:25:00,
2013-01-25 01:26:00,27.9,22.2,30.15,East,90,0.9,1.6,79,0.00,,BKN050,0.00,VWS V14.01,2013-01-25 00:26:00,
2013-01-25 01:27:00,27.9,22.2,30.15,ESE,112,0.0,1.6,79,0.00,,,0.00,VWS V14.01,2013-01-25 00:27:00,
2013-01-25 01:28:00,27.9,22.2,30.15,East,90,0.0,1.1,79,0.00,,BKN050,0.00,VWS V14.01,2013-01-25 00:28:00,
2013-01-25 01:29:00,27.9,22.2,30.15,East,90,0.9,0.9,79,0.00,,BKN050,0.00,VWS V14.01,2013-01-25 00:29:00,
2013-01-25 01:30:00,27.9,22.2,30.15,SE,135,2.0,2.0,79,0.00,,BKN050,0.00,VWS V14.01,2013-01-25 00:30:00,
2013-01-25 01:31:00,27.9,22.2,30.15,SE,135,0.0,2.0,79,0.00,,BKN050,0.00,VWS V14.01,2013-01-25 00:31:00,
2013-01-25 01:32:00,27.9,22.2,30.15,NE,45,0.0,0.9,79,0.00,,,0.00,VWS V14.01,2013-01-25 00:32:00,
2013-01-25 01:33:00,27.9,22.2,30.15,NNE,22,0.9,1.1,79,0.00,,BKN050,0.00,VWS V14.01,2013-01-25 00:33:00,
2013-01-25 01:34:00,27.9,22.2,30.15,NE,45,0.0,1.1,79,0.00,,BKN050,0.00,VWS V14.01,2013-01-25 00:34:00,
2013-01-25 01:35:00,27.9,22.2,30.15,NE,45,2.0,2.0,79,0.00,,BKN050,0.00,VWS V14.01,2013-01-25 00:35:00,
2013-01-25 01:36:00,27.9,22.2,30.15,NE,45,1.3,2.0,79,0.00,,BKN050,0.00,VWS V14.01,2013-01-25 00:36:00,
2013-01-25 01:37:00,27.9,22.2,30.15,NE,45,0.9,1.3,79,0.00,,,0.00,VWS V14.01,2013-01-25 00:37:00,
2013-01-25 01:38:00,27.9,22.2,30.15,East,90,1.3,1.3,79,0.00,,BKN050,0.00,VWS V14.01,2013-01-25 00:38:00,
2013-01-25 01:39:00,27.9,22.2,30.15,East,90,1.3,1.3,79,0.00,,BKN050,0.00,VWS V14.01,2013-01-25 00:39:00,
2013-01-25 01:40:00,27.9,22.2,30.15,ENE,68,1.6,2.2,79,0.00,,BKN050,0.00,VWS V14.01,2013-01-25 00:40:00,
2013-01-25 01:41:00,27.9,22.2,30.15,ENE,68,3.1,3.1,79,0.00,,BKN050,0.00,VWS V14.01,2013-01-25 00:41:00,
2013-01-25 01:42:00,27.7,22.0,30.15,ENE,68,2.9,3.1,79,0.00,,,0.00,VWS V14.01,2013-01-25 00:42:00,
2013-01-25 01:43:00,27.7,22.0,30.15,NNE,22,0.0,2.9,79,0.00,,BKN050,0.00,VWS V14.01,2013-01-25 00:43:00,
2013-01-25 01:44:00,27.7,22.0,30.15,SE,135,1.1,1.1,79,0.00,,BKN050,0.00,VWS V14.01,2013-01-25 00:44:00,
2013-01-25 01:46:00,27.7,22.0,30.15,East,90,1.3,1.6,79,0.00,,BKN050,0.00,VWS V14.01,2013-01-25 00:46:00,
2013-01-25 01:47:00,27.7,22.0,30.15,East,90,1.3,1.3,79,0.00,,,0.00,VWS V14.01,2013-01-25 00:47:00,
2013-01-25 01:48:00,27.7,22.0,30.15,NE,45,2.2,2.7,79,0.00,,BKN050,0.00,VWS V14.01,2013-01-25 00:48:00,
2013-01-25 01:49:00,27.7,22.0,30.15,East,90,2.2,2.2,79,0.00,,BKN050,0.00,VWS V14.01,2013-01-25 00:49:00,
2013-01-25 01:50:00,27.7,22.0,30.15,East,90,2.5,3.8,79,0.00,,BKN050,0.00,VWS V14.01,2013-01-25 00:50:00,
2013-01-25 01:51:00,27.7,22.0,30.15,East,90,1.6,3.1,79,0.00,,BKN050,0.00,VWS V14.01,2013-01-25 00:51:00,
2013-01-25 01:52:00,27.7,22.0,30.15,North,0,0.0,1.6,79,0.00,,BKN050,0.00,VWS V14.01,2013-01-25 00:52:00,
2013-01-25 01:53:00,27.7,22.0,30.15,NNE,22,0.0,0.9,79,0.00,,,0.00,VWS V14.01,2013-01-25 00:53:00,
2013-01-25 01:54:00,27.7,22.0,30.15,ENE,68,0.0,0.0,79,0.00,,BKN050,0.00,VWS V14.01,2013-01-25 00:54:00,
2013-01-25 01:55:00,27.7,22.0,30.15,SW,225,0.0,1.3,79,0.00,,BKN050,0.00,VWS V14.01,2013-01-25 00:55:00,
2013-01-25 01:56:00,27.7,22.0,30.15,NW,315,0.0,0.0,79,0.00,,BKN050,0.00,VWS V14.01,2013-01-25 00:56:00,
2013-01-25 01:57:00,27.7,22.0,30.15,East,90,0.9,3.1,79,0.00,,BKN050,0.00,VWS V14.01,2013-01-25 00:57:00,
2013-01-25 01:58:00,27.7,22.0,30.15,NE,45,2.0,2.9,79,0.00,,,0.00,VWS V14.01,2013-01-25 00:58:00,
2013-01-25 01:59:00,27.7,22.0,30.15,NNE,22,0.0,2.0,79,0.00,,BKN050,0.00,VWS V14.01,2013-01-25 00:59:00,
2013-01-25 02:00:00,27.7,22.0,30.15,ENE,68,0.0,0.0,79,0.00,,BKN050,0.00,VWS V14.01,2013-01-25 01:00:00,
2013-01-25 02:01:00,27.7,22.0,30.15,East,90,2.0,2.5,79,0.00,,BKN050,0.00,VWS V14.01,2013-01-25 01:01:00,
2013-01-25 02:02:00,27.7,22.0,30.15,ENE,68,2.0,2.0,79,0.00,,BKN050,0.00,VWS V14.01,2013-01-25 01:02:00,
2013-01-25 02:03:00,27.7,22.0,30.15,NE,45,0.0,2.0,79,0.00,,,0.00,VWS V14.01,2013-01-25 01:03:00,
2013-01-25 02:04:00,27.7,22.0,30.15,East,90,0.0,0.9,79,0.00,,BKN050,0.00,VWS V14.01,2013-01-25 01:04:00,
2013-01-25 02:05:00,27.7,22.0,30.15,ENE,68,0.0,0.0,79,0.00,,BKN050,0.00,VWS V14.01,2013-01-25 01:05:00,
2013-01-25 02:06:00,27.7,22.0,30.15,NE,45,2.7,2.7,79,0.00,,BKN050,0.00,VWS V14.01,2013-01-25 01:06:00,
2013-01-25 02:07:00,27.7,22.0,30.15,NE,45,1.6,2.7,79,0.00,,BKN050,0.00,VWS V14.01,2013-01-25 01:07:00,
2013-01-25 02:08:00,27.7,22.0,30.15,East,90,0.9,1.6,79,0.00,,,0.00,VWS V14.01,2013-01-25 01:08:00,
2013-01-25 02:09:00,27.7,22.0,30.15,ENE,68,3.8,3.8,79,0.00,,BKN050,0.00,VWS V14.01,2013-01-25 01:09:00,
2013-01-25 02:10:00,27.7,22.0,30.15,NE,45,1.6,3.8,79,0.00,,BKN050,0.00,VWS V14.01,2013-01-25 01:10:00,
2013-01-25 02:11:00,27.5,21.9,30.15,East,90,1.1,2.7,79,0.00,,BKN050,0.00,VWS V14.01,2013-01-25 01:11:00,
2013-01-25 02:12:00,27.5,21.9,30.15,NNE,22,0.0,1.1,79,0.00,,BKN050,0.00,VWS V14.01,2013-01-25 01:12:00,
2013-01-25 02:13:00,27.5,21.9,30.15,ENE,68,1.1,1.1,79,0.00,,,0.00,VWS V14.01,2013-01-25 01:13:00,
2013-01-25 02:14:00,27.5,21.9,30.15,NNE,22,0.9,1.1,79,0.00,,BKN050,0.00,VWS V14.01,2013-01-25 01:14:00,
2013-01-25 02:15:00,27.5,21.9,30.15,NE,45,0.0,0.9,79,0.00,,BKN050,0.00,VWS V14.01,2013-01-25 01:15:00,
2013-01-25 02:16:00,27.5,21.9,30.15,NE,45,0.0,0.0,79,0.00,,BKN050,0.00,VWS V14.01,2013-01-25 01:16:00,
2013-01-25 02:17:00,27.5,21.9,30.15,NE,45,0.0,0.0,79,0.00,,BKN050,0.00,VWS V14.01,2013-01-25 01:17:00,
2013-01-25 02:18:00,27.5,21.9,30.15,NE,45,0.0,0.0,79,0.00,,,0.00,VWS V14.01,2013-01-25 01:18:00,
2013-01-25 02:19:00,27.7,22.0,30.15,NNE,22,0.0,0.0,79,0.00,,BKN050,0.00,VWS V14.01,2013-01-25 01:19:00,
2013-01-25 02:20:00,27.7,22.0,30.15,ESE,112,0.0,0.0,79,0.00,,BKN050,0.00,VWS V14.01,2013-01-25 01:20:00,
2013-01-25 02:21:00,27.7,22.0,30.15,NNE,22,0.0,0.0,79,0.00,,BKN050,0.00,VWS V14.01,2013-01-25 01:21:00,
2013-01-25 02:22:00,27.7,22.0,30.15,East,90,0.0,0.0,79,0.00,,BKN050,0.00,VWS V14.01,2013-01-25 01:22:00,
2013-01-25 02:23:00,27.7,22.0,30.15,East,90,0.0,0.0,79,0.00,,,0.00,VWS V14.01,2013-01-25 01:23:00,
2013-01-25 02:24:00,27.7,22.0,30.15,East,90,2.0,2.0,79,0.00,,BKN050,0.00,VWS V14.01,2013-01-25 01:24:00,
2013-01-25 02:25:00,27.7,22.0,30.15,ESE,112,2.0,2.9,79,0.00,,BKN050,0.00,VWS V14.01,2013-01-25 01:25:00,
2013-01-25 02:26:00,27.7,22.0,30.15,NNW,338,0.9,2.0,79,0.00,,BKN050,0.00,VWS V14.01,2013-01-25 01:26:00,
2013-01-25 02:27:00,27.7,22.0,30.15,NE,45,0.0,0.9,79,0.00,,BKN050,0.00,VWS V14.01,2013-01-25 01:27:00,
2013-01-25 02:28:00,27.7,22.0,30.15,NE,45,0.0,0.9,79,0.00,,,0.00,VWS V14.01,2013-01-25 01:28:00,
2013-01-25 02:29:00,27.7,22.0,30.15,East,90,1.1,1.1,79,0.00,,BKN050,0.00,VWS V14.01,2013-01-25 01:29:00,
2013-01-25 02:30:00,27.7,22.0,30.15,East,90,2.9,2.9,79,0.00,,BKN050,0.00,VWS V14.01,2013-01-25 01:30:00,
2013-01-25 02:31:00,27.7,22.0,30.15,SSE,158,0.0,2.9,79,0.00,,BKN050,0.00,VWS V14.01,2013-01-25 01:31:00,
2013-01-25 02:33:00,27.7,22.0,30.12,ESE,112,0.0,0.0,79,0.00,,,0.00,VWS V14.01,2013-01-25 01:33:00,
2013-01-25 02:34:00,27.7,22.0,30.12,SW,225,2.2,3.1,79,0.00,,BKN050,0.00,VWS V14.01,2013-01-25 01:34:00,
2013-01-25 02:35:00,27.7,22.0,30.12,East,90,1.3,2.2,79,0.00,,BKN050,0.00,VWS V14.01,2013-01-25 01:35:00,
2013-01-25 02:36:00,27.7,22.0,30.12,South,180,0.0,1.3,79,0.00,,BKN050,0.00,VWS V14.01,2013-01-25 01:36:00,
2013-01-25 02:37:00,27.7,22.0,30.12,East,90,0.0,0.0,79,0.00,,BKN050,0.00,VWS V14.01,2013-01-25 01:37:00,
2013-01-25 02:38:00,27.7,22.0,30.12,ENE,68,0.9,1.6,79,0.00,,,0.00,VWS V14.01,2013-01-25 01:38:00,
2013-01-25 02:39:00,27.7,22.0,30.12,North,0,0.0,1.6,79,0.00,,BKN050,0.00,VWS V14.01,2013-01-25 01:39:00,
2013-01-25 02:40:00,27.7,22.0,30.12,NNW,338,0.0,1.1,79,0.00,,BKN050,0.00,VWS V14.01,2013-01-25 01:40:00,
2013-01-25 02:41:00,27.7,22.0,30.12,West,270,0.0,0.0,79,0.00,,BKN050,0.00,VWS V14.01,2013-01-25 01:41:00,
2013-01-25 02:42:00,27.7,22.0,30.12,West,270,0.0,0.0,79,0.00,,BKN050,0.00,VWS V14.01,2013-01-25 01:42:00,
2013-01-25 02:43:00,27.7,22.0,30.12,NE,45,1.1,1.1,79,0.00,,,0.00,VWS V14.01,2013-01-25 01:43:00,
2013-01-25 02:44:00,27.7,22.0,30.12,East,90,1.3,1.3,79,0.00,,BKN050,0.00,VWS V14.01,2013-01-25 01:44:00,
2013-01-25 02:45:00,27.7,22.0,30.12,ENE,68,1.6,1.6,79,0.00,,BKN050,0.00,VWS V14.01,2013-01-25 01:45:00,
2013-01-25 02:46:00,27.7,22.0,30.12,East,90,1.3,1.6,79,0.00,,BKN050,0.00,VWS V14.01,2013-01-25 01:46:00,
2013-01-25 02:47:00,27.7,22.0,30.12,East,90,0.0,1.3,79,0.00,,BKN050,0.00,VWS V14.01,2013-01-25 01:47:00,
2013-01-25 02:48:00,27.9,22.2,30.15,NE,45,1.3,1.3,79,0.00,,,0.00,VWS V14.01,2013-01-25 01:48:00,
2013-01-25 02:49:00,27.9,22.2,30.15,West,270,2.7,2.7,79,0.00,,BKN050,0.00,VWS V14.01,2013-01-25 01:49:00,
2013-01-25 02:50:00,27.9,22.2,30.15,East,90,2.2,2.9,79,0.00,,BKN050,0.00,VWS V14.01,2013-01-25 01:50:00,
2013-01-25 02:51:00,27.9,22.2,30.15,ENE,68,2.2,2.2,79,0.00,,BKN050,0.00,VWS V14.01,2013-01-25 01:51:00,
2013-01-25 02:52:00,27.9,22.2,30.15,NNE,22,0.9,2.2,79,0.00,,BKN050,0.00,VWS V14.01,2013-01-25 01:52:00,
2013-01-25 02:53:00,27.9,22.2,30.15,East,90,0.9,1.6,79,0.00,,BKN050,0.00,VWS V14.01,2013-01-25 01:53:00,
2013-01-25 02:54:00,27.7,22.0,30.15,NE,45,1.3,1.3,79,0.00,,,0.00,VWS V14.01,2013-01-25 01:54:00,
2013-01-25 02:55:00,27.7,22.0,30.15,ENE,68,2.0,2.0,79,0.00,,BKN050,0.00,VWS V14.01,2013-01-25 01:55:00,
2013-01-25 02:56:00,27.7,22.0,30.15,ENE,68,2.0,2.0,79,0.00,,BKN050,0.00,VWS V14.01,2013-01-25 01:56:00,
2013-01-25 02:57:00,27.7,22.0,30.15,East,90,0.9,2.5,79,0.00,,BKN050,0.00,VWS V14.01,2013-01-25 01:57:00,
2013-01-25 02:58:00,27.7,22.0,30.15,West,270,0.9,0.9,79,0.00,,BKN050,0.00,VWS V14.01,2013-01-25 01:58:00,
2013-01-25 02:59:00,27.7,22.0,30.15,West,270,2.0,2.2,79,0.00,,,0.00,VWS V14.01,2013-01-25 01:59:00,
2013-01-25 03:00:00,27.7,22.0,30.15,East,90,2.5,2.5,79,0.00,,BKN050,0.00,VWS V14.01,2013-01-25 02:00:00,
2013-01-25 03:01:00,27.7,22.0,30.15,WNW,292,1.1,2.5,79,0.00,,BKN050,0.00,VWS V14.01,2013-01-25 02:01:00,
2013-01-25 03:02:00,27.7,22.0,30.15,NW,315,2.0,2.0,79,0.00,,BKN050,0.00,VWS V14.01,2013-01-25 02:02:00,
2013-01-25 03:03:00,27.7,22.0,30.15,SE,135,2.0,2.0,79,0.00,,BKN050,0.00,VWS V14.01,2013-01-25 02:03:00,
2013-01-25 03:04:00,27.7,22.0,30.15,SSE,158,0.9,2.0,79,0.00,,,0.00,VWS V14.01,2013-01-25 02:04:00,
2013-01-25 03:05:00,27.7,22.0,30.15,North,0,1.6,1.6,79,0.00,,BKN050,0.00,VWS V14.01,2013-01-25 02:05:00,
2013-01-25 03:06:00,27.7,22.0,30.15,East,90,0.9,1.6,79,0.00,,BKN050,0.00,VWS V14.01,2013-01-25 02:06:00,
2013-01-25 03:07:00,27.7,22.0,30.15,SSE,158,2.2,2.2,79,0.00,,BKN050,0.00,VWS V14.01,2013-01-25 02:07:00,
2013-01-25 03:08:00,27.7,22.0,30.15,West,270,0.0,2.2,79,0.00,,BKN050,0.00,VWS V14.01,2013-01-25 02:08:00,
2013-01-25 03:09:00,27.7,22.0,30.15,SE,135,0.0,1.1,79,0.00,,,0.00,VWS V14.01,2013-01-25 02:09:00,
2013-01-25 03:10:00,27.7,22.0,30.15,NE,45,0.9,1.1,79,0.00,,BKN050,0.00,VWS V14.01,2013-01-25 02:10:00,
2013-01-25 03:11:00,27.7,22.0,30.15,East,90,1.6,1.6,79,0.00,,BKN050,0.00,VWS V14.01,2013-01-25 02:11:00,
2013-01-25 03:12:00,27.7,22.0,30.15,ENE,68,0.0,1.6,79,0.00,,BKN050,0.00,VWS V14.01,2013-01-25 02:12:00,
2013-01-25 03:13:00,27.7,22.0,30.15,East,90,2.2,3.4,79,0.00,,BKN050,0.00,VWS V14.01,2013-01-25 02:13:00,
2013-01-25 03:14:00,27.7,22.0,30.15,East,90,1.6,2.7,79,0.00,,,0.00,VWS V14.01,2013-01-25 02:14:00,
2013-01-25 03:15:00,27.7,22.0,30.15,NE,45,0.9,2.5,79,0.00,,BKN050,0.00,VWS V14.01,2013-01-25 02:15:00,
2013-01-25 03:16:00,27.7,21.7,30.15,NE,45,1.3,1.3,78,0.00,,BKN050,0.00,VWS V14.01,2013-01-25 02:16:00,
2013-01-25 03:18:00,27.7,21.7,30.15,NE,45,2.5,2.5,78,0.00,,BKN050,0.00,VWS V14.01,2013-01-25 02:18:00,
2013-01-25 03:19:00,27.7,21.7,30.15,East,90,1.3,2.5,78,0.00,,,0.00,VWS V14.01,2013-01-25 02:19:00,
2013-01-25 03:20:00,27.7,21.7,30.15,East,90,0.9,1.3,78,0.00,,BKN050,0.00,VWS V14.01,2013-01-25 02:20:00,
2013-01-25 03:21:00,27.7,21.7,30.15,NNE,22,2.2,2.2,78,0.00,,BKN050,0.00,VWS V14.01,2013-01-25 02:21:00,
2013-01-25 03:22:00,27.7,21.7,30.15,ESE,112,0.0,2.2,78,0.00,,BKN050,0.00,VWS V14.01,2013-01-25 02:22:00,
2013-01-25 03:23:00,27.7,21.7,30.15,East,90,0.0,1.3,78,0.00,,BKN050,0.00,VWS V14.01,2013-01-25 02:23:00,
2013-01-25 03:24:00,27.7,21.7,30.15,NE,45,1.1,1.1,78,0.00,,,0.00,VWS V14.01,2013-01-25 02:24:00,
2013-01-25 03:25:00,27.7,21.7,30.15,ENE,68,1.1,2.0,78,0.00,,BKN050,0.00,VWS V14.01,2013-01-25 02:25:00,
2013-01-25 03:26:00,27.7,21.7,30.15,NE,45,0.9,1.1,78,0.00,,BKN050,0.00,VWS V14.01,2013-01-25 02:26:00,
2013-01-25 03:27:00,27.7,21.7,30.15,ENE,68,0.0,1.6,78,0.00,,BKN050,0.00,VWS V14.01,2013-01-25 02:27:00,
2013-01-25 03:28:00,27.7,21.7,30.15,North,0,1.1,1.1,78,0.00,,BKN050,0.00,VWS V14.01,2013-01-25 02:28:00,
2013-01-25 03:29:00,27.7,21.7,30.15,ENE,68,0.0,1.1,78,0.00,,,0.00,VWS V14.01,2013-01-25 02:29:00,
2013-01-25 03:30:00,27.7,21.7,30.15,ENE,68,1.3,1.6,78,0.00,,BKN050,0.00,VWS V14.01,2013-01-25 02:30:00,
2013-01-25 03:31:00,27.7,21.7,30.15,ESE,112,0.9,1.6,78,0.00,,BKN050,0.00,VWS V14.01,2013-01-25 02:31:00,
2013-01-25 03:32:00,27.7,21.7,30.15,NNE,22,0.0,2.2,78,0.00,,BKN050,0.00,VWS V14.01,2013-01-25 02:32:00,
2013-01-25 03:33:00,27.7,21.7,30.15,East,90,0.0,0.9,78,0.00,,BKN050,0.00,VWS V14.01,2013-01-25 02:33:00,
2013-01-25 03:34:00,27.7,21.7,30.15,East,90,0.0,0.0,78,0.00,,,0.00,VWS V14.01,2013-01-25 02:34:00,
2013-01-25 03:35:00,27.7,21.7,30.15,ESE,112,2.0,2.0,78,0.00,,BKN050,0.00,VWS V14.01,2013-01-25 02:35:00,
2013-01-25 03:36:00,27.7,21.7,30.15,NE,45,1.3,2.0,78,0.00,,BKN050,0.00,VWS V14.01,2013-01-25 02:36:00,
2013-01-25 03:37:00,27.7,21.7,30.15,ESE,112,0.9,2.9,78,0.00,,BKN050,0.00,VWS V14.01,2013-01-25 02:37:00,
2013-01-25 03:38:00,27.7,21.7,30.15,NE,45,2.0,2.0,78,0.00,,BKN050,0.00,VWS V14.01,2013-01-25 02:38:00,
2013-01-25 03:39:00,27.5,21.5,30.15,NE,45,1.6,2.0,78,0.00,,,0.00,VWS V14.01,2013-01-25 02:39:00,
2013-01-25 03:40:00,27.5,21.5,30.15,East,90,0.0,2.2,78,0.00,,BKN050,0.00,VWS V14.01,2013-01-25 02:40:00,
2013-01-25 03:41:00,27.5,21.5,30.15,East,90,2.2,2.7,78,0.00,,BKN050,0.00,VWS V14.01,2013-01-25 02:41:00,
2013-01-25 03:42:00,27.5,21.5,30.15,ENE,68,1.6,2.2,78,0.00,,BKN050,0.00,VWS V14.01,2013-01-25 02:42:00,
2013-01-25 03:43:00,27.5,21.5,30.15,East,90,0.0,1.6,78,0.00,,BKN050,0.00,VWS V14.01,2013-01-25 02:43:00,
2013-01-25 03:44:00,27.5,21.5,30.15,WNW,292,0.0,0.0,78,0.00,,,0.00,VWS V14.01,2013-01-25 02:44:00,
2013-01-25 03:45:00,27.5,21.5,30.15,North,0,0.0,0.9,78,0.00,,BKN050,0.00,VWS V14.01,2013-01-25 02:45:00,
2013-01-25 03:46:00,27.5,21.5,30.15,NW,315,1.1,1.6,78,0.00,,BKN050,0.00,VWS V14.01,2013-01-25 02:46:00,
2013-01-25 03:47:00,27.5,21.5,30.15,East,90,0.0,1.3,78,0.00,,BKN050,0.00,VWS V14.01,2013-01-25 02:47:00,
2013-01-25 03:48:00,27.5,21.5,30.15,NE,45,0.0,1.3,78,0.00,,BKN050,0.00,VWS V14.01,2013-01-25 02:48:00,
2013-01-25 03:49:00,27.5,21.5,30.15,NE,45,1.3,2.2,78,0.00,,,0.00,VWS V14.01,2013-01-25 02:49:00,
2013-01-25 03:50:00,27.5,21.5,30.15,ESE,112,2.0,3.1,78,0.00,,BKN050,0.00,VWS V14.01,2013-01-25 02:50:00,
2013-01-25 03:51:00,27.5,21.5,30.15,NE,45,2.0,2.7,78,0.00,,BKN050,0.00,VWS V14.01,2013-01-25 02:51:00,
2013-01-25 03:52:00,27.5,21.5,30.15,NNE,22,1.3,2.0,78,0.00,,BKN050,0.00,VWS V14.01,2013-01-25 02:52:00,
2013-01-25 03:53:00,27.5,21.5,30.15,NE,45,0.0,1.3,78,0.00,,BKN050,0.00,VWS V14.01,2013-01-25 02:53:00,
2013-01-25 03:54:00,27.5,21.5,30.15,ENE,68,0.9,0.9,78,0.00,,,0.00,VWS V14.01,2013-01-25 02:54:00,
2013-01-25 03:55:00,27.5,21.5,30.15,East,90,1.1,1.3,78,0.00,,BKN050,0.00,VWS V14.01,2013-01-25 02:55:00,
2013-01-25 03:56:00,27.5,21.5,30.15,ESE,112,0.0,2.2,78,0.00,,BKN050,0.00,VWS V14.01,2013-01-25 02:56:00,
2013-01-25 03:57:00,27.5,21.5,30.15,ENE,68,0.0,0.9,78,0.00,,BKN050,0.00,VWS V14.01,2013-01-25 02:57:00,
2013-01-25 03:58:00,27.5,21.5,30.15,East,90,0.0,1.1,78,0.00,,BKN050,0.00,VWS V14.01,2013-01-25 02:58:00,
2013-01-25 03:59:00,27.5,21.5,30.15,NE,45,0.0,0.0,78,0.00,,,0.00,VWS V14.01,2013-01-25 02:59:00,
2013-01-25 04:00:00,27.5,21.5,30.15,NE,45,0.0,0.0,78,0.00,,BKN050,0.00,VWS V14.01,2013-01-25 03:00:00,
2013-01-25 04:01:00,27.3,21.4,30.15,ENE,68,1.6,1.6,78,0.00,,BKN050,0.00,VWS V14.01,2013-01-25 03:01:00,
2013-01-25 04:02:00,27.3,21.4,30.15,ENE,68,1.6,1.6,78,0.00,,BKN050,0.00,VWS V14.01,2013-01-25 03:02:00,
2013-01-25 04:03:00,27.3,21.4,30.15,SE,135,1.1,1.6,78,0.00,,BKN050,0.00,VWS V14.01,2013-01-25 03:03:00,
2013-01-25 04:04:00,27.3,21.4,30.15,ENE,68,1.3,2.0,78,0.00,,,0.00,VWS V14.01,2013-01-25 03:04:00,
2013-01-25 04:05:00,27.3,21.4,30.15,NE,45,0.0,1.3,78,0.00,,BKN050,0.00,VWS V14.01,2013-01-25 03:05:00,
2013-01-25 04:06:00,27.5,21.5,30.15,East,90,0.0,0.0,78,0.00,,BKN050,0.00,VWS V14.01,2013-01-25 03:06:00,
2013-01-25 04:07:00,27.5,21.5,30.15,East,90,0.0,0.0,78,0.00,,BKN050,0.00,VWS V14.01,2013-01-25 03:07:00,
2013-01-25 04:08:00,27.5,21.5,30.15,NNE,22,0.0,0.0,78,0.00,,BKN050,0.00,VWS V14.01,2013-01-25 03:08:00,
2013-01-25 04:09:00,27.5,21.5,30.15,North,0,0.0,0.0,78,0.00,,,0.00,VWS V14.01,2013-01-25 03:09:00,
2013-01-25 04:10:00,27.5,21.5,30.15,NE,45,1.1,1.1,78,0.00,,BKN050,0.00,VWS V14.01,2013-01-25 03:10:00,
2013-01-25 04:11:00,27.5,21.5,30.15,SE,135,0.0,1.1,78,0.00,,BKN050,0.00,VWS V14.01,2013-01-25 03:11:00,
2013-01-25 04:12:00,27.5,21.5,30.15,SE,135,0.0,0.0,78,0.00,,BKN050,0.00,VWS V14.01,2013-01-25 03:12:00,
2013-01-25 04:13:00,27.5,21.5,30.15,North,0,1.1,1.1,78,0.00,,BKN050,0.00,VWS V14.01,2013-01-25 03:13:00,
2013-01-25 04:14:00,27.5,21.5,30.15,NNE,22,2.0,2.2,78,0.00,,,0.00,VWS V14.01,2013-01-25 03:14:00,
2013-01-25 04:15:00,27.3,21.4,30.15,East,90,1.1,3.4,78,0.00,,BKN050,0.00,VWS V14.01,2013-01-25 03:15:00,
2013-01-25 04:16:00,27.3,21.4,30.15,NNW,338,0.0,2.0,78,0.00,,BKN050,0.00,VWS V14.01,2013-01-25 03:16:00,
2013-01-25 04:17:00,27.3,21.4,30.15,North,0,1.1,1.1,78,0.00,,BKN050,0.00,VWS V14.01,2013-01-25 03:17:00,
2013-01-25 04:18:00,27.3,21.4,30.15,North,0,2.7,2.7,78,0.00,,BKN050,0.00,VWS V14.01,2013-01-25 03:18:00,
2013-01-25 04:19:00,27.3,21.4,30.15,East,90,1.1,2.7,78,0.00,,,0.00,VWS V14.01,2013-01-25 03:19:00,
2013-01-25 04:20:00,27.3,21.4,30.15,East,90,2.7,2.7,78,0.00,,BKN050,0.00,VWS V14.01,2013-01-25 03:20:00,
2013-01-25 04:21:00,27.3,21.4,30.15,NE,45,0.0,2.9,78,0.00,,BKN050,0.00,VWS V14.01,2013-01-25 03:21:00,
2013-01-25 04:22:00,27.3,21.4,30.15,SE,135,0.0,0.9,78,0.00,,BKN050,0.00,VWS V14.01,2013-01-25 03:22:00,
2013-01-25 04:23:00,27.3,21.4,30.15,SW,225,0.0,0.0,78,0.00,,BKN050,0.00,VWS V14.01,2013-01-25 03:23:00,
2013-01-25 04:24:00,27.3,21.4,30.15,North,0,1.6,1.6,78,0.00,,,0.00,VWS V14.01,2013-01-25 03:24:00,
2013-01-25 04:25:00,27.3,21.4,30.15,East,90,1.6,1.6,78,0.00,,BKN050,0.00,VWS V14.01,2013-01-25 03:25:00,
2013-01-25 04:26:00,27.3,21.4,30.15,NE,45,0.9,1.6,78,0.00,,BKN050,0.00,VWS V14.01,2013-01-25 03:26:00,
2013-01-25 04:27:00,27.3,21.4,30.15,East,90,1.3,1.3,78,0.00,,BKN050,0.00,VWS V14.01,2013-01-25 03:27:00,
2013-01-25 04:28:00,27.3,21.4,30.15,West,270,0.0,1.3,78,0.00,,BKN050,0.00,VWS V14.01,2013-01-25 03:28:00,
2013-01-25 04:29:00,27.3,21.4,30.15,East,90,0.9,0.9,78,0.00,,,0.00,VWS V14.01,2013-01-25 03:29:00,
2013-01-25 04:30:00,27.3,21.4,30.15,East,90,0.0,0.9,78,0.00,,BKN050,0.00,VWS V14.01,2013-01-25 03:30:00,
2013-01-25 04:31:00,27.3,21.4,30.15,NW,315,0.9,1.1,78,0.00,,BKN050,0.00,VWS V14.01,2013-01-25 03:31:00,
2013-01-25 04:32:00,27.3,21.4,30.15,NE,45,0.0,2.7,78,0.00,,BKN050,0.00,VWS V14.01,2013-01-25 03:32:00,
2013-01-25 04:33:00,27.3,21.4,30.15,ESE,112,0.0,1.1,78,0.00,,BKN050,0.00,VWS V14.01,2013-01-25 03:33:00,
2013-01-25 04:34:00,27.3,21.4,30.15,East,90,1.1,1.1,78,0.00,,,0.00,VWS V14.01,2013-01-25 03:34:00,
2013-01-25 04:35:00,27.3,21.4,30.15,East,90,2.2,2.2,78,0.00,,BKN050,0.00,VWS V14.01,2013-01-25 03:35:00,
2013-01-25 04:36:00,27.1,21.2,30.15,East,90,2.0,2.5,78,0.00,,BKN050,0.00,VWS V14.01,2013-01-25 03:36:00,
2013-01-25 04:37:00,27.1,21.2,30.15,NE,45,2.0,2.0,78,0.00,,BKN050,0.00,VWS V14.01,2013-01-25 03:37:00,
2013-01-25 04:38:00,27.1,21.2,30.15,NE,45,0.0,2.5,78,0.00,,BKN050,0.00,VWS V14.01,2013-01-25 03:38:00,
2013-01-25 04:39:00,27.1,21.2,30.15,NE,45,0.0,0.0,78,0.00,,,0.00,VWS V14.01,2013-01-25 03:39:00,
2013-01-25 04:40:00,27.3,21.4,30.15,South,180,0.0,0.0,78,0.00,,BKN050,0.00,VWS V14.01,2013-01-25 03:40:00,
2013-01-25 04:41:00,27.3,21.4,30.15,NE,45,0.9,0.9,78,0.00,,BKN050,0.00,VWS V14.01,2013-01-25 03:41:00,
2013-01-25 04:42:00,27.3,21.4,30.15,NE,45,0.9,1.1,78,0.00,,BKN050,0.00,VWS V14.01,2013-01-25 03:42:00,
2013-01-25 04:43:00,27.3,21.4,30.15,NE,45,0.0,0.9,78,0.00,,BKN050,0.00,VWS V14.01,2013-01-25 03:43:00,
2013-01-25 04:44:00,27.3,21.4,30.15,NNE,22,1.1,1.1,78,0.00,,BKN050,0.00,VWS V14.01,2013-01-25 03:44:00,
2013-01-25 04:45:00,27.3,21.4,30.15,East,90,1.1,1.1,78,0.00,,,0.00,VWS V14.01,2013-01-25 03:45:00,
2013-01-25 04:46:00,27.3,21.4,30.15,NE,45,0.0,1.3,78,0.00,,BKN050,0.00,VWS V14.01,2013-01-25 03:46:00,
2013-01-25 04:47:00,27.1,21.2,30.15,NNE,22,1.6,1.6,78,0.00,,BKN050,0.00,VWS V14.01,2013-01-25 03:47:00,
2013-01-25 04:48:00,27.1,21.2,30.15,East,90,1.3,2.9,78,0.00,,BKN050,0.00,VWS V14.01,2013-01-25 03:48:00,
2013-01-25 04:49:00,27.1,21.2,30.15,SW,225,1.6,2.0,78,0.00,,BKN050,0.00,VWS V14.01,2013-01-25 03:49:00,
2013-01-25 04:50:00,27.1,21.2,30.15,SE,135,1.1,1.6,78,0.00,,,0.00,VWS V14.01,2013-01-25 03:50:00,
2013-01-25 04:51:00,27.1,21.2,30.15,NNE,22,0.9,2.0,78,0.00,,BKN050,0.00,VWS V14.01,2013-01-25 03:51:00,
2013-01-25 04:52:00,27.1,21.2,30.15,NNW,338,0.0,1.1,78,0.00,,BKN050,0.00,VWS V14.01,2013-01-25 03:52:00,
2013-01-25 04:53:00,27.1,21.2,30.15,NE,45,2.5,2.5,78,0.00,,BKN050,0.00,VWS V14.01,2013-01-25 03:53:00,
2013-01-25 04:54:00,27.1,21.2,30.15,NE,45,0.0,2.5,78,0.00,,BKN050,0.00,VWS V14.01,2013-01-25 03:54:00,
2013-01-25 04:55:00,27.1,21.2,30.15,East,90,1.3,1.3,78,0.00,,,0.00,VWS V14.01,2013-01-25 03:55:00,
2013-01-25 04:56:00,27.1,21.2,30.15,ENE,68,0.0,1.6,78,0.00,,BKN050,0.00,VWS V14.01,2013-01-25 03:56:00,
2013-01-25 04:57:00,27.1,21.2,30.15,ESE,112,2.5,2.5,78,0.00,,BKN050,0.00,VWS V14.01,2013-01-25 03:57:00,
2013-01-25 04:58:00,27.1,21.2,30.15,ENE,68,1.1,2.5,78,0.00,,BKN050,0.00,VWS V14.01,2013-01-25 03:58:00,
2013-01-25 04:59:00,27.1,21.2,30.15,West,270,0.9,1.1,78,0.00,,BKN050,0.00,VWS V14.01,2013-01-25 03:59:00,
2013-01-25 05:00:00,27.1,21.2,30.15,North,0,2.0,2.0,78,0.00,,,0.00,VWS V14.01,2013-01-25 04:00:00,
2013-01-25 05:01:00,27.1,21.2,30.15,NE,45,3.4,3.4,78,0.00,,BKN050,0.00,VWS V14.01,2013-01-25 04:01:00,
2013-01-25 05:02:00,27.1,21.2,30.15,NE,45,0.0,3.4,78,0.00,,BKN050,0.00,VWS V14.01,2013-01-25 04:02:00,
2013-01-25 05:03:00,27.1,21.2,30.15,NNE,22,0.0,1.3,78,0.00,,BKN050,0.00,VWS V14.01,2013-01-25 04:03:00,
2013-01-25 05:04:00,27.1,21.2,30.15,NE,45,0.0,1.1,78,0.00,,BKN050,0.00,VWS V14.01,2013-01-25 04:04:00,
2013-01-25 05:05:00,27.1,21.2,30.15,NE,45,0.0,1.1,78,0.00,,,0.00,VWS V14.01,2013-01-25 04:05:00,
2013-01-25 05:06:00,27.1,21.2,30.15,NE,45,0.0,2.9,78,0.00,,BKN050,0.00,VWS V14.01,2013-01-25 04:06:00,
2013-01-25 05:07:00,27.1,21.2,30.15,NE,45,0.0,0.0,78,0.00,,BKN050,0.00,VWS V14.01,2013-01-25 04:07:00,
2013-01-25 05:08:00,27.0,21.0,30.15,NE,45,1.1,1.6,78,0.00,,BKN050,0.00,VWS V14.01,2013-01-25 04:08:00,
2013-01-25 05:09:00,27.0,21.0,30.15,ESE,112,3.1,3.1,78,0.00,,BKN050,0.00,VWS V14.01,2013-01-25 04:09:00,
2013-01-25 05:10:00,27.0,21.0,30.15,ESE,112,3.1,3.1,78,0.00,,,0.00,VWS V14.01,2013-01-25 04:10:00,
2013-01-25 05:11:00,27.0,21.0,30.15,NE,45,1.1,1.3,78,0.00,,BKN050,0.00,VWS V14.01,2013-01-25 04:11:00,
2013-01-25 05:12:00,27.0,21.0,30.15,NE,45,0.0,1.1,78,0.00,,BKN050,0.00,VWS V14.01,2013-01-25 04:12:00,
2013-01-25 05:13:00,27.0,21.0,30.15,NE,45,0.0,0.9,78,0.00,,BKN050,0.00,VWS V14.01,2013-01-25 04:13:00,
2013-01-25 05:14:00,27.0,21.0,30.15,North,0,1.6,1.6,78,0.00,,BKN050,0.00,VWS V14.01,2013-01-25 04:14:00,
2013-01-25 05:15:00,27.0,21.0,30.15,North,0,0.0,1.6,78,0.00,,,0.00,VWS V14.01,2013-01-25 04:15:00,
2013-01-25 05:16:00,27.0,21.0,30.15,ESE,112,1.6,2.0,78,0.00,,BKN050,0.00,VWS V14.01,2013-01-25 04:16:00,
2013-01-25 05:17:00,27.0,21.0,30.15,NE,45,3.4,4.0,78,0.00,,BKN050,0.00,VWS V14.01,2013-01-25 04:17:00,
2013-01-25 05:18:00,27.0,21.0,30.15,NE,45,0.9,3.4,78,0.00,,BKN050,0.00,VWS V14.01,2013-01-25 04:18:00,
2013-01-25 05:19:00,27.0,21.0,30.15,NW,315,0.0,1.3,78,0.00,,BKN050,0.00,VWS V14.01,2013-01-25 04:19:00,
2013-01-25 05:20:00,27.0,21.0,30.15,East,90,2.7,2.7,78,0.00,,,0.00,VWS V14.01,2013-01-25 04:20:00,
2013-01-25 05:21:00,27.0,21.0,30.15,NNE,22,1.6,2.7,78,0.00,,BKN050,0.00,VWS V14.01,2013-01-25 04:21:00,
2013-01-25 05:22:00,27.0,21.0,30.15,NE,45,0.0,1.6,78,0.00,,BKN050,0.00,VWS V14.01,2013-01-25 04:22:00,
2013-01-25 05:23:00,27.0,21.0,30.15,NE,45,0.0,0.0,78,0.00,,BKN050,0.00,VWS V14.01,2013-01-25 04:23:00,
2013-01-25 05:24:00,27.0,21.0,30.15,ENE,68,0.0,1.1,78,0.00,,BKN050,0.00,VWS V14.01,2013-01-25 04:24:00,
2013-01-25 05:25:00,27.0,21.0,30.15,NE,45,0.0,1.3,78,0.00,,,0.00,VWS V14.01,2013-01-25 04:25:00,
2013-01-25 05:26:00,27.0,21.0,30.15,ESE,112,2.0,2.0,78,0.00,,BKN050,0.00,VWS V14.01,2013-01-25 04:26:00,
2013-01-25 05:27:00,27.0,21.0,30.15,ENE,68,0.0,2.0,78,0.00,,BKN050,0.00,VWS V14.01,2013-01-25 04:27:00,
2013-01-25 05:28:00,27.0,21.0,30.15,NE,45,0.0,0.0,78,0.00,,BKN050,0.00,VWS V14.01,2013-01-25 04:28:00,
2013-01-25 05:29:00,27.0,21.0,30.15,NE,45,0.0,2.0,78,0.00,,BKN050,0.00,VWS V14.01,2013-01-25 04:29:00,
2013-01-25 05:30:00,27.0,21.0,30.15,ENE,68,0.0,0.9,78,0.00,,,0.00,VWS V14.01,2013-01-25 04:30:00,
2013-01-25 05:31:00,27.0,21.0,30.15,NE,45,1.1,1.1,78,0.00,,BKN050,0.00,VWS V14.01,2013-01-25 04:31:00,
2013-01-25 05:32:00,27.0,21.0,30.15,ENE,68,0.9,1.1,78,0.00,,BKN050,0.00,VWS V14.01,2013-01-25 04:32:00,
2013-01-25 05:34:00,27.0,21.0,30.15,NE,45,2.2,2.2,78,0.00,,BKN050,0.00,VWS V14.01,2013-01-25 04:34:00,
2013-01-25 05:35:00,27.0,21.0,30.15,NNE,22,0.0,0.0,78,0.00,,,0.00,VWS V14.01,2013-01-25 04:35:00,
2013-01-25 05:36:00,27.0,21.0,30.15,ENE,68,0.9,0.9,78,0.00,,BKN050,0.00,VWS V14.01,2013-01-25 04:36:00,
2013-01-25 05:37:00,27.0,21.0,30.15,NE,45,0.9,2.2,78,0.00,,BKN050,0.00,VWS V14.01,2013-01-25 04:37:00,
2013-01-25 05:38:00,27.0,21.0,30.15,SE,135,1.1,1.3,78,0.00,,BKN050,0.00,VWS V14.01,2013-01-25 04:38:00,
2013-01-25 05:39:00,27.0,21.0,30.15,ESE,112,0.0,1.3,78,0.00,,BKN050,0.00,VWS V14.01,2013-01-25 04:39:00,
2013-01-25 05:40:00,27.0,21.0,30.15,East,90,0.0,0.0,78,0.00,,BKN050,0.00,VWS V14.01,2013-01-25 04:40:00,
2013-01-25 05:41:00,27.0,21.0,30.15,East,90,0.0,0.0,78,0.00,,,0.00,VWS V14.01,2013-01-25 04:41:00,
2013-01-25 05:42:00,27.0,21.0,30.15,NE,45,0.0,2.2,78,0.00,,BKN050,0.00,VWS V14.01,2013-01-25 04:42:00,
2013-01-25 05:43:00,27.0,21.0,30.15,NNE,22,1.1,7.2,78,0.00,,BKN050,0.00,VWS V14.01,2013-01-25 04:43:00,
2013-01-25 05:44:00,27.0,21.0,30.15,East,90,1.3,1.3,78,0.00,,BKN050,0.00,VWS V14.01,2013-01-25 04:44:00,
2013-01-25 05:45:00,27.0,21.0,30.15,ENE,68,3.1,3.1,78,0.00,,BKN050,0.00,VWS V14.01,2013-01-25 04:45:00,
2013-01-25 05:46:00,27.0,21.0,30.15,NE,45,1.6,3.1,78,0.00,,,0.00,VWS V14.01,2013-01-25 04:46:00,
2013-01-25 05:47:00,27.0,21.0,30.15,NE,45,0.0,1.3,78,0.00,,BKN050,0.00,VWS V14.01,2013-01-25 04:47:00,
2013-01-25 05:48:00,26.8,20.9,30.15,South,180,0.0,0.9,78,0.00,,BKN050,0.00,VWS V14.01,2013-01-25 04:48:00,
2013-01-25 05:49:00,26.8,20.9,30.12,NE,45,2.2,2.2,78,0.00,,BKN050,0.00,VWS V14.01,2013-01-25 04:49:00,
2013-01-25 05:50:00,26.8,20.9,30.12,NE,45,1.1,2.2,78,0.00,,BKN050,0.00,VWS V14.01,2013-01-25 04:50:00,
2013-01-25 05:51:00,26.8,20.9,30.12,East,90,57.3,57.3,78,0.00,,,0.00,VWS V14.01,2013-01-25 04:51:00,
2013-01-25 05:52:00,26.8,20.9,30.12,SSE,158,0.0,6.0,78,0.00,,BKN050,0.00,VWS V14.01,2013-01-25 04:52:00,
2013-01-25 05:53:00,26.8,20.9,30.12,NE,45,1.1,2.7,78,0.00,,BKN050,0.00,VWS V14.01,2013-01-25 04:53:00,
2013-01-25 05:54:00,26.8,20.9,30.12,SE,135,1.3,1.3,78,0.00,,BKN050,0.00,VWS V14.01,2013-01-25 04:54:00,
2013-01-25 05:55:00,26.8,20.9,30.12,South,180,0.0,1.3,78,0.00,,BKN050,0.00,VWS V14.01,2013-01-25 04:55:00,
2013-01-25 05:56:00,26.8,20.9,30.12,ESE,112,1.6,1.6,78,0.00,,,0.00,VWS V14.01,2013-01-25 04:56:00,
2013-01-25 05:57:00,26.8,20.9,30.12,South,180,1.3,2.7,78,0.00,,BKN050,0.00,VWS V14.01,2013-01-25 04:57:00,
2013-01-25 05:58:00,26.8,20.9,30.12,South,180,0.0,1.3,78,0.00,,BKN050,0.00,VWS V14.01,2013-01-25 04:58:00,
2013-01-25 05:59:00,26.8,20.9,30.12,SW,225,1.3,1.3,78,0.00,,BKN050,0.00,VWS V14.01,2013-01-25 04:59:00,
2013-01-25 06:00:00,26.8,20.9,30.12,WSW,248,0.9,1.3,78,0.00,,,0.00,VWS V14.01,2013-01-25 05:00:00,
2013-01-25 06:02:00,26.8,20.9,30.12,West,270,0.0,0.0,78,0.00,,BKN050,0.00,VWS V14.01,2013-01-25 05:02:00,
2013-01-25 06:04:00,26.8,20.9,30.15,West,270,0.0,0.0,78,0.00,,BKN050,0.00,VWS V14.01,2013-01-25 05:04:00,
2013-01-25 06:06:00,26.8,20.9,30.15,NE,45,0.0,0.0,78,0.00,,BKN050,0.00,VWS V14.01,2013-01-25 05:06:00,
2013-01-25 06:07:00,26.8,20.9,30.15,SE,135,0.0,0.0,78,0.00,,,0.00,VWS V14.01,2013-01-25 05:07:00,
2013-01-25 06:08:00,26.8,20.9,30.15,SE,135,0.0,0.0,78,0.00,,BKN050,0.00,VWS V14.01,2013-01-25 05:08:00,
2013-01-25 06:09:00,26.8,20.9,30.15,East,90,0.0,0.0,78,0.00,,BKN050,0.00,VWS V14.01,2013-01-25 05:09:00,
2013-01-25 06:10:00,26.8,20.9,30.15,East,90,0.0,1.3,78,0.00,,BKN050,0.00,VWS V14.01,2013-01-25 05:10:00,
2013-01-25 06:12:00,26.8,20.9,30.15,ENE,68,0.0,1.1,78,0.00,,,0.00,VWS V14.01,2013-01-25 05:12:00,
2013-01-25 06:13:00,26.8,20.9,30.15,ENE,68,0.9,1.1,78,0.00,,BKN050,0.00,VWS V14.01,2013-01-25 05:13:00,
2013-01-25 06:14:00,26.8,20.9,30.15,NNE,22,1.3,1.3,78,0.00,,BKN050,0.00,VWS V14.01,2013-01-25 05:14:00,
2013-01-25 06:15:00,26.6,21.0,30.15,NE,45,3.4,3.4,79,0.00,,BKN050,0.00,VWS V14.01,2013-01-25 05:15:00,
2013-01-25 06:16:00,26.6,20.7,30.15,NE,45,1.3,3.4,78,0.00,,BKN050,0.00,VWS V14.01,2013-01-25 05:16:00,
2013-01-25 06:17:00,26.6,20.7,30.15,NNE,22,1.6,1.6,78,0.00,,OVC010,0.00,VWS V14.01,2013-01-25 05:17:00,
2013-01-25 06:18:00,26.6,20.7,30.15,NNE,22,0.0,1.6,78,0.00,,BKN050,0.00,VWS V14.01,2013-01-25 05:18:00,
2013-01-25 06:19:00,26.6,20.7,30.18,East,90,0.0,0.9,78,0.00,,BKN050,0.00,VWS V14.01,2013-01-25 05:19:00,
2013-01-25 06:20:00,26.6,20.7,30.18,East,90,0.0,0.0,78,0.00,,BKN050,0.00,VWS V14.01,2013-01-25 05:20:00,
2013-01-25 06:21:00,26.6,21.0,30.18,NE,45,2.7,3.1,79,0.00,,BKN050,0.00,VWS V14.01,2013-01-25 05:21:00,
2013-01-25 06:22:00,26.6,20.7,30.18,NE,45,2.0,2.0,78,0.00,,OVC010,0.00,VWS V14.01,2013-01-25 05:22:00,
2013-01-25 06:23:00,26.6,20.7,30.18,East,90,1.3,2.0,78,0.00,,BKN050,0.00,VWS V14.01,2013-01-25 05:23:00,
2013-01-25 06:24:00,26.6,20.7,30.18,NE,45,1.1,2.2,78,0.00,,BKN050,0.00,VWS V14.01,2013-01-25 05:24:00,
2013-01-25 06:25:00,26.6,20.7,30.18,NE,45,1.3,1.3,78,0.00,,BKN050,0.00,VWS V14.01,2013-01-25 05:25:00,
2013-01-25 06:26:00,26.4,20.5,30.18,East,90,1.6,2.2,78,0.00,,BKN050,0.00,VWS V14.01,2013-01-25 05:26:00,
2013-01-25 06:27:00,26.4,20.5,30.18,ENE,68,2.9,2.9,78,0.00,,OVC010,0.00,VWS V14.01,2013-01-25 05:27:00,
2013-01-25 06:28:00,26.4,20.5,30.18,ENE,68,2.9,2.9,78,0.00,,BKN050,0.00,VWS V14.01,2013-01-25 05:28:00,
2013-01-25 06:29:00,26.4,20.5,30.18,NE,45,1.1,2.9,78,0.00,,BKN050,0.00,VWS V14.01,2013-01-25 05:29:00,
2013-01-25 06:30:00,26.4,20.5,30.18,NNE,22,2.0,2.5,78,0.00,,BKN050,0.00,VWS V14.01,2013-01-25 05:30:00,
2013-01-25 06:31:00,26.4,20.5,30.18,NE,45,0.0,2.0,78,0.00,,BKN050,0.00,VWS V14.01,2013-01-25 05:31:00,
2013-01-25 06:32:00,26.4,20.5,30.18,NE,45,0.0,0.0,78,0.00,,BKN050,0.00,VWS V14.01,2013-01-25 05:32:00,
2013-01-25 06:33:00,26.4,20.5,30.18,NE,45,0.0,0.0,78,0.00,,OVC010,0.00,VWS V14.01,2013-01-25 05:33:00,
2013-01-25 06:34:00,26.4,20.5,30.15,NE,45,1.1,2.0,78,0.00,,BKN050,0.00,VWS V14.01,2013-01-25 05:34:00,
2013-01-25 06:35:00,26.4,20.5,30.15,NE,45,1.1,1.1,78,0.00,,BKN050,0.00,VWS V14.01,2013-01-25 05:35:00,
2013-01-25 06:36:00,26.4,20.5,30.15,SE,135,1.1,2.0,78,0.00,,BKN050,0.00,VWS V14.01,2013-01-25 05:36:00,
2013-01-25 06:37:00,26.4,20.5,30.15,ENE,68,0.9,1.3,78,0.00,,BKN050,0.00,VWS V14.01,2013-01-25 05:37:00,
2013-01-25 06:38:00,26.4,20.5,30.15,East,90,0.0,0.9,78,0.00,,OVC010,0.00,VWS V14.01,2013-01-25 05:38:00,
2013-01-25 06:39:00,26.4,20.5,30.15,ESE,112,1.3,2.2,78,0.00,,BKN050,0.00,VWS V14.01,2013-01-25 05:39:00,
2013-01-25 06:40:00,26.4,20.5,30.15,NNE,22,2.2,2.2,78,0.00,,BKN050,0.00,VWS V14.01,2013-01-25 05:40:00,
2013-01-25 06:41:00,26.4,20.5,30.15,East,90,1.6,2.5,78,0.00,,BKN050,0.00,VWS V14.01,2013-01-25 05:41:00,
2013-01-25 06:42:00,26.2,20.3,30.15,NE,45,2.5,2.5,78,0.00,,BKN050,0.00,VWS V14.01,2013-01-25 05:42:00,
2013-01-25 06:43:00,26.2,20.3,30.15,NE,45,1.3,2.5,78,0.00,,OVC010,0.00,VWS V14.01,2013-01-25 05:43:00,
2013-01-25 06:44:00,26.2,20.3,30.15,East,90,0.9,1.3,78,0.00,,BKN050,0.00,VWS V14.01,2013-01-25 05:44:00,
2013-01-25 06:45:00,26.2,20.3,30.15,WSW,248,0.9,0.9,78,0.00,,BKN050,0.00,VWS V14.01,2013-01-25 05:45:00,
2013-01-25 06:46:00,26.2,20.3,30.15,West,270,1.3,1.3,78,0.00,,BKN050,0.00,VWS V14.01,2013-01-25 05:46:00,
2013-01-25 06:47:00,26.2,20.3,30.15,North,0,0.0,1.3,78,0.00,,BKN050,0.00,VWS V14.01,2013-01-25 05:47:00,
2013-01-25 06:48:00,26.4,20.5,30.15,NW,315,0.0,0.0,78,0.00,,OVC010,0.00,VWS V14.01,2013-01-25 05:48:00,
2013-01-25 06:49:00,26.4,20.5,30.15,West,270,2.2,2.2,78,0.00,,BKN050,0.00,VWS V14.01,2013-01-25 05:49:00,
2013-01-25 06:50:00,26.4,20.5,30.15,NNW,338,1.6,2.2,78,0.00,,BKN050,0.00,VWS V14.01,2013-01-25 05:50:00,
2013-01-25 06:51:00,26.4,20.5,30.15,NW,315,0.0,1.6,78,0.00,,BKN050,0.00,VWS V14.01,2013-01-25 05:51:00,
2013-01-25 06:52:00,26.4,20.5,30.15,NW,315,0.0,0.0,78,0.00,,BKN050,0.00,VWS V14.01,2013-01-25 05:52:00,
2013-01-25 06:53:00,26.4,20.5,30.15,WNW,292,0.0,0.0,78,0.00,,OVC010,0.00,VWS V14.01,2013-01-25 05:53:00,
2013-01-25 06:54:00,26.4,20.5,30.15,WSW,248,0.0,2.0,78,0.00,,BKN050,0.00,VWS V14.01,2013-01-25 05:54:00,
2013-01-25 06:55:00,26.4,20.5,30.15,NW,315,0.0,0.0,78,0.00,,BKN050,0.00,VWS V14.01,2013-01-25 05:55:00,
2013-01-25 06:56:00,26.4,20.5,30.15,West,270,0.0,0.0,78,0.00,,BKN050,0.00,VWS V14.01,2013-01-25 05:56:00,
2013-01-25 06:57:00,26.4,20.5,30.15,West,270,0.0,0.0,78,0.00,,BKN050,0.00,VWS V14.01,2013-01-25 05:57:00,
2013-01-25 06:58:00,26.4,20.5,30.15,East,90,1.3,1.3,78,0.00,,OVC010,0.00,VWS V14.01,2013-01-25 05:58:00,
2013-01-25 06:59:00,26.4,20.5,30.15,SE,135,0.0,0.9,78,0.00,,BKN050,0.00,VWS V14.01,2013-01-25 05:59:00,
2013-01-25 07:01:00,26.4,20.8,30.15,East,90,0.9,0.9,79,0.00,,BKN050,0.00,VWS V14.01,2013-01-25 06:01:00,
2013-01-25 07:02:00,26.4,20.8,30.15,South,180,0.0,0.9,79,0.00,,BKN050,0.00,VWS V14.01,2013-01-25 06:02:00,
2013-01-25 07:03:00,26.4,20.8,30.15,East,90,0.0,0.9,79,0.00,,OVC010,0.00,VWS V14.01,2013-01-25 06:03:00,
2013-01-25 07:04:00,26.4,20.8,30.15,East,90,0.0,0.9,79,0.00,,BKN050,0.00,VWS V14.01,2013-01-25 06:04:00,
2013-01-25 07:05:00,26.4,20.8,30.15,South,180,0.0,0.0,79,0.00,,BKN050,0.00,VWS V14.01,2013-01-25 06:05:00,
2013-01-25 07:06:00,26.6,21.0,30.15,SSW,202,0.0,0.0,79,0.00,,BKN050,0.00,VWS V14.01,2013-01-25 06:06:00,
2013-01-25 07:07:00,26.6,21.0,30.15,West,270,1.6,1.6,79,0.00,,BKN050,0.00,VWS V14.01,2013-01-25 06:07:00,
2013-01-25 07:08:00,26.6,21.0,30.15,West,270,0.0,1.6,79,0.00,,OVC010,0.00,VWS V14.01,2013-01-25 06:08:00,
2013-01-25 07:09:00,26.6,21.0,30.15,West,270,0.0,0.0,79,0.00,,BKN050,0.00,VWS V14.01,2013-01-25 06:09:00,
2013-01-25 07:10:00,26.6,21.0,30.15,West,270,0.0,0.0,79,0.00,,BKN050,0.00,VWS V14.01,2013-01-25 06:10:00,
2013-01-25 07:11:00,26.6,21.0,30.15,West,270,0.0,0.0,79,0.00,,BKN050,0.00,VWS V14.01,2013-01-25 06:11:00,
2013-01-25 07:12:00,26.6,21.0,30.15,West,270,0.0,0.0,79,0.00,,BKN050,0.00,VWS V14.01,2013-01-25 06:12:00,
2013-01-25 07:13:00,26.6,21.0,30.15,WSW,248,0.0,0.0,79,0.00,,OVC010,0.00,VWS V14.01,2013-01-25 06:13:00,
2013-01-25 07:14:00,26.6,21.0,30.15,WSW,248,0.0,0.0,79,0.00,,BKN050,0.00,VWS V14.01,2013-01-25 06:14:00,
2013-01-25 07:15:00,26.6,21.0,30.15,WSW,248,0.0,0.0,79,0.00,,BKN050,0.00,VWS V14.01,2013-01-25 06:15:00,
2013-01-25 07:16:00,26.6,21.0,30.15,WSW,248,0.0,0.0,79,0.00,,BKN050,0.00,VWS V14.01,2013-01-25 06:16:00,
2013-01-25 07:17:00,26.6,21.0,30.15,WSW,248,0.0,0.0,79,0.00,,BKN050,0.00,VWS V14.01,2013-01-25 06:17:00,
2013-01-25 07:18:00,26.6,21.0,30.15,NW,315,0.0,0.0,79,0.00,,OVC010,0.00,VWS V14.01,2013-01-25 06:18:00,
2013-01-25 07:19:00,26.6,21.0,30.15,NNE,22,0.0,0.0,79,0.00,,BKN050,0.00,VWS V14.01,2013-01-25 06:19:00,
2013-01-25 07:20:00,26.6,21.0,30.15,NE,45,0.0,0.0,79,0.00,,BKN050,0.00,VWS V14.01,2013-01-25 06:20:00,
2013-01-25 07:21:00,26.6,21.0,30.15,WSW,248,0.9,0.9,79,0.00,,BKN050,0.00,VWS V14.01,2013-01-25 06:21:00,
2013-01-25 07:22:00,26.6,21.0,30.15,West,270,0.0,0.9,79,0.00,,BKN050,0.00,VWS V14.01,2013-01-25 06:22:00,
2013-01-25 07:23:00,26.6,21.0,30.15,SW,225,0.0,0.0,79,0.00,,OVC010,0.00,VWS V14.01,2013-01-25 06:23:00,
2013-01-25 07:24:00,26.6,21.0,30.15,WSW,248,0.0,0.0,79,0.00,,BKN050,0.00,VWS V14.01,2013-01-25 06:24:00,
2013-01-25 07:25:00,26.6,21.0,30.15,WSW,248,0.0,0.0,79,0.00,,BKN050,0.00,VWS V14.01,2013-01-25 06:25:00,
2013-01-25 07:27:00,26.6,21.0,30.15,SE,135,0.0,0.0,79,0.00,,BKN050,0.00,VWS V14.01,2013-01-25 06:27:00,
2013-01-25 07:28:00,26.6,21.0,30.15,NE,45,1.3,1.3,79,0.00,,OVC010,0.00,VWS V14.01,2013-01-25 06:28:00,
2013-01-25 07:29:00,26.6,21.0,30.15,NE,45,0.0,1.3,79,0.00,,BKN050,0.00,VWS V14.01,2013-01-25 06:29:00,
2013-01-25 07:30:00,26.6,21.0,30.15,NE,45,0.0,0.9,79,0.00,,BKN050,0.00,VWS V14.01,2013-01-25 06:30:00,
2013-01-25 07:31:00,26.6,21.0,30.15,NE,45,0.0,0.0,79,0.00,,BKN050,0.00,VWS V14.01,2013-01-25 06:31:00,
2013-01-25 07:32:00,26.6,21.0,30.15,East,90,0.0,0.0,79,0.00,,BKN050,0.00,VWS V14.01,2013-01-25 06:32:00,
2013-01-25 07:33:00,26.6,21.0,30.15,ENE,68,0.0,0.0,79,0.00,,OVC010,0.00,VWS V14.01,2013-01-25 06:33:00,
2013-01-25 07:34:00,26.6,21.0,30.15,East,90,0.0,0.0,79,0.00,,BKN050,0.00,VWS V14.01,2013-01-25 06:34:00,
2013-01-25 07:35:00,26.6,21.0,30.15,West,270,0.0,0.0,79,0.00,,BKN050,0.00,VWS V14.01,2013-01-25 06:35:00,
2013-01-25 07:36:00,26.6,21.0,30.15,North,0,0.0,0.0,79,0.00,,BKN050,0.00,VWS V14.01,2013-01-25 06:36:00,
2013-01-25 07:37:00,26.6,21.0,30.15,NNE,22,0.0,0.0,79,0.00,,BKN050,0.00,VWS V14.01,2013-01-25 06:37:00,
2013-01-25 07:38:00,26.6,21.0,30.15,NNE,22,0.0,0.0,79,0.00,,OVC010,0.00,VWS V14.01,2013-01-25 06:38:00,
2013-01-25 07:39:00,26.6,21.0,30.15,North,0,0.0,0.0,79,0.00,,BKN050,0.00,VWS V14.01,2013-01-25 06:39:00,
2013-01-25 07:40:00,26.6,21.0,30.15,WSW,248,0.0,0.0,79,0.00,,BKN050,0.00,VWS V14.01,2013-01-25 06:40:00,
2013-01-25 07:41:00,26.6,21.0,30.15,West,270,0.0,0.0,79,0.00,,BKN050,0.00,VWS V14.01,2013-01-25 06:41:00,
2013-01-25 07:42:00,26.6,21.0,30.15,WSW,248,0.0,0.9,79,0.00,,BKN050,0.00,VWS V14.01,2013-01-25 06:42:00,
2013-01-25 07:43:00,26.6,21.0,30.15,WSW,248,0.0,0.0,79,0.00,,OVC010,0.00,VWS V14.01,2013-01-25 06:43:00,
2013-01-25 07:44:00,26.8,21.1,30.15,WSW,248,0.0,0.0,79,0.00,,BKN050,0.00,VWS V14.01,2013-01-25 06:44:00,
2013-01-25 07:45:00,26.8,21.1,30.15,WSW,248,0.0,0.9,79,0.00,,BKN050,0.00,VWS V14.01,2013-01-25 06:45:00,
2013-01-25 07:46:00,26.8,21.1,30.15,WSW,248,0.0,0.0,79,0.00,,BKN050,0.00,VWS V14.01,2013-01-25 06:46:00,
2013-01-25 07:47:00,26.8,21.1,30.15,WSW,248,0.0,0.9,79,0.00,,BKN050,0.00,VWS V14.01,2013-01-25 06:47:00,
2013-01-25 07:48:00,26.8,21.1,30.15,West,270,1.6,1.6,79,0.00,,OVC011,0.00,VWS V14.01,2013-01-25 06:48:00,
2013-01-25 07:49:00,26.8,21.1,30.15,SW,225,0.0,1.6,79,0.00,,BKN050,0.00,VWS V14.01,2013-01-25 06:49:00,
2013-01-25 07:50:00,26.8,21.1,30.15,SW,225,0.0,0.0,79,0.00,,BKN050,0.00,VWS V14.01,2013-01-25 06:50:00,
2013-01-25 07:51:00,26.8,21.1,30.15,WNW,292,1.6,1.6,79,0.00,,BKN050,0.00,VWS V14.01,2013-01-25 06:51:00,
2013-01-25 07:52:00,26.8,21.1,30.15,WSW,248,0.0,1.6,79,0.00,,BKN050,0.00,VWS V14.01,2013-01-25 06:52:00,
2013-01-25 07:53:00,26.8,21.1,30.15,SW,225,1.1,2.0,79,0.00,,OVC011,0.00,VWS V14.01,2013-01-25 06:53:00,
2013-01-25 07:54:00,26.8,21.1,30.15,WNW,292,0.0,1.1,79,0.00,,BKN050,0.00,VWS V14.01,2013-01-25 06:54:00,
2013-01-25 07:55:00,26.8,21.1,30.15,NE,45,0.0,1.1,79,0.00,,BKN050,0.00,VWS V14.01,2013-01-25 06:55:00,
2013-01-25 07:56:00,26.8,21.1,30.15,NE,45,0.0,0.0,79,0.00,,BKN050,0.00,VWS V14.01,2013-01-25 06:56:00,
2013-01-25 07:57:00,26.8,21.1,30.15,South,180,0.0,0.0,79,0.00,,BKN050,0.00,VWS V14.01,2013-01-25 06:57:00,
2013-01-25 07:58:00,26.8,21.1,30.15,SE,135,0.0,0.9,79,0.00,,OVC011,0.00,VWS V14.01,2013-01-25 06:58:00,
2013-01-25 07:59:00,26.8,21.1,30.15,SE,135,0.0,0.9,79,0.00,,BKN050,0.00,VWS V14.01,2013-01-25 06:59:00,
2013-01-25 08:00:00,26.8,21.1,30.15,West,270,0.9,1.1,79,0.00,,BKN050,0.00,VWS V14.01,2013-01-25 07:00:00,
2013-01-25 08:01:00,26.8,21.1,30.15,East,90,0.0,0.9,79,0.00,,BKN050,0.00,VWS V14.01,2013-01-25 07:01:00,
2013-01-25 08:02:00,26.8,21.1,30.15,WNW,292,0.0,0.0,79,0.00,,BKN050,0.00,VWS V14.01,2013-01-25 07:02:00,
2013-01-25 08:03:00,26.8,21.1,30.15,West,270,0.0,0.9,79,0.00,,OVC011,0.00,VWS V14.01,2013-01-25 07:03:00,
2013-01-25 08:04:00,26.8,21.1,30.12,WSW,248,0.0,0.9,79,0.00,,BKN050,0.00,VWS V14.01,2013-01-25 07:04:00,
2013-01-25 08:05:00,26.8,21.1,30.12,WSW,248,0.0,0.0,79,0.00,,BKN050,0.00,VWS V14.01,2013-01-25 07:05:00,
2013-01-25 08:06:00,26.8,21.1,30.12,NW,315,2.7,2.7,79,0.00,,BKN050,0.00,VWS V14.01,2013-01-25 07:06:00,
2013-01-25 08:07:00,26.6,21.0,30.12,NW,315,0.9,2.7,79,0.00,,BKN050,0.00,VWS V14.01,2013-01-25 07:07:00,
2013-01-25 08:08:00,26.6,21.0,30.12,North,0,0.0,2.7,79,0.00,,OVC011,0.00,VWS V14.01,2013-01-25 07:08:00,
2013-01-25 08:09:00,26.6,21.0,30.12,SW,225,0.0,0.9,79,0.00,,BKN050,0.00,VWS V14.01,2013-01-25 07:09:00,
2013-01-25 08:10:00,26.6,21.0,30.12,NW,315,0.9,1.3,79,0.00,,BKN050,0.00,VWS V14.01,2013-01-25 07:10:00,
2013-01-25 08:11:00,26.6,21.0,30.12,SE,135,0.9,1.6,79,0.00,,BKN050,0.00,VWS V14.01,2013-01-25 07:11:00,
2013-01-25 08:12:00,26.6,21.0,30.12,NNW,338,0.0,0.9,79,0.00,,BKN050,0.00,VWS V14.01,2013-01-25 07:12:00,
2013-01-25 08:13:00,26.6,21.0,30.12,North,0,0.0,0.0,79,0.00,,OVC011,0.00,VWS V14.01,2013-01-25 07:13:00,
2013-01-25 08:14:00,26.6,21.0,30.12,WNW,292,1.6,1.6,79,0.00,,BKN050,0.00,VWS V14.01,2013-01-25 07:14:00,
2013-01-25 08:15:00,26.6,21.0,30.12,North,0,1.1,1.6,79,0.00,,BKN050,0.00,VWS V14.01,2013-01-25 07:15:00,
2013-01-25 08:16:00,26.6,21.0,30.12,WSW,248,0.0,1.1,79,0.00,,BKN050,0.00,VWS V14.01,2013-01-25 07:16:00,
2013-01-25 08:17:00,26.6,21.0,30.12,NNW,338,0.0,1.1,79,0.00,,BKN050,0.00,VWS V14.01,2013-01-25 07:17:00,
2013-01-25 08:18:00,26.6,21.0,30.12,East,90,0.0,2.2,79,0.00,,OVC011,0.00,VWS V14.01,2013-01-25 07:18:00,
2013-01-25 08:19:00,26.6,21.0,30.12,SW,225,2.0,2.7,79,0.00,,BKN050,0.00,VWS V14.01,2013-01-25 07:19:00,
2013-01-25 08:20:00,26.6,21.0,30.12,SW,225,1.1,2.0,79,0.00,,BKN050,0.00,VWS V14.01,2013-01-25 07:20:00,
2013-01-25 08:21:00,26.8,21.1,30.12,SW,225,0.0,1.1,79,0.00,,BKN050,0.00,VWS V14.01,2013-01-25 07:21:00,
2013-01-25 08:22:00,26.8,21.1,30.12,SW,225,0.0,0.0,79,0.00,,BKN050,0.00,VWS V14.01,2013-01-25 07:22:00,
2013-01-25 08:23:00,26.8,21.1,30.12,SW,225,0.0,0.0,79,0.00,,OVC011,0.00,VWS V14.01,2013-01-25 07:23:00,
2013-01-25 08:24:00,26.8,21.1,30.12,North,0,2.0,2.0,79,0.00,,BKN050,0.00,VWS V14.01,2013-01-25 07:24:00,
2013-01-25 08:25:00,26.8,21.1,30.12,East,90,1.3,2.0,79,0.00,,BKN050,0.00,VWS V14.01,2013-01-25 07:25:00,
2013-01-25 08:26:00,26.8,21.1,30.12,ENE,68,0.0,1.3,79,0.00,,BKN050,0.00,VWS V14.01,2013-01-25 07:26:00,
2013-01-25 08:27:00,26.8,21.1,30.12,WNW,292,1.6,1.6,79,0.00,,BKN050,0.00,VWS V14.01,2013-01-25 07:27:00,
2013-01-25 08:28:00,26.6,21.0,30.12,SSW,202,2.0,2.0,79,0.00,,BKN050,0.00,VWS V14.01,2013-01-25 07:28:00,
2013-01-25 08:29:00,26.6,21.0,30.12,ESE,112,0.0,2.0,79,0.00,,OVC011,0.00,VWS V14.01,2013-01-25 07:29:00,
2013-01-25 08:30:00,26.8,21.1,30.12,SW,225,0.0,0.0,79,0.00,,BKN050,0.00,VWS V14.01,2013-01-25 07:30:00,
2013-01-25 08:31:00,26.8,21.1,30.12,West,270,1.1,2.0,79,0.00,,BKN050,0.00,VWS V14.01,2013-01-25 07:31:00,
2013-01-25 08:32:00,26.6,21.0,30.12,West,270,2.2,2.2,79,0.00,,BKN050,0.00,VWS V14.01,2013-01-25 07:32:00,
2013-01-25 08:33:00,26.6,21.0,30.12,West,270,0.0,2.2,79,0.00,,BKN050,0.00,VWS V14.01,2013-01-25 07:33:00,
2013-01-25 08:34:00,26.8,21.1,30.15,West,270,0.0,0.0,79,0.00,,OVC011,0.00,VWS V14.01,2013-01-25 07:34:00,
2013-01-25 08:35:00,26.8,21.1,30.15,East,90,0.0,0.0,79,0.00,,BKN050,0.00,VWS V14.01,2013-01-25 07:35:00,
2013-01-25 08:36:00,26.8,20.9,30.15,East,90,0.0,0.0,78,0.00,,BKN050,0.00,VWS V14.01,2013-01-25 07:36:00,
2013-01-25 08:37:00,26.8,20.9,30.15,East,90,0.0,0.0,78,0.00,,BKN050,0.00,VWS V14.01,2013-01-25 07:37:00,
2013-01-25 08:38:00,26.6,21.0,30.15,East,90,0.0,0.0,79,0.00,,BKN050,0.00,VWS V14.01,2013-01-25 07:38:00,
2013-01-25 08:39:00,26.6,21.0,30.15,East,90,0.0,0.0,79,0.00,,OVC011,0.00,VWS V14.01,2013-01-25 07:39:00,
2013-01-25 08:40:00,26.6,21.0,30.15,NE,45,0.0,0.0,79,0.00,,BKN050,0.00,VWS V14.01,2013-01-25 07:40:00,
2013-01-25 08:41:00,26.6,21.0,30.15,NE,45,0.0,0.0,79,0.00,,BKN050,0.00,VWS V14.01,2013-01-25 07:41:00,
2013-01-25 08:42:00,26.8,20.9,30.15,NE,45,0.0,0.0,78,0.00,,BKN050,0.00,VWS V14.01,2013-01-25 07:42:00,
2013-01-25 08:43:00,26.8,20.9,30.15,ENE,68,0.0,0.0,78,0.00,,BKN050,0.00,VWS V14.01,2013-01-25 07:43:00,
2013-01-25 08:44:00,26.8,21.1,30.15,ENE,68,0.0,0.0,79,0.00,,OVC011,0.00,VWS V14.01,2013-01-25 07:44:00,
2013-01-25 08:45:00,26.8,21.1,30.15,SE,135,0.0,0.0,79,0.00,,BKN050,0.00,VWS V14.01,2013-01-25 07:45:00,
2013-01-25 08:46:00,26.8,21.1,30.15,South,180,0.0,0.0,79,0.00,,BKN050,0.00,VWS V14.01,2013-01-25 07:46:00,
2013-01-25 08:47:00,26.8,21.1,30.15,South,180,0.0,0.0,79,0.00,,BKN050,0.00,VWS V14.01,2013-01-25 07:47:00,
2013-01-25 08:48:00,26.8,21.1,30.15,South,180,0.0,0.0,79,0.00,,BKN050,0.00,VWS V14.01,2013-01-25 07:48:00,
2013-01-25 08:49:00,26.8,21.1,30.15,South,180,0.0,0.0,79,0.00,,OVC011,0.00,VWS V14.01,2013-01-25 07:49:00,
2013-01-25 08:50:00,27.0,21.3,30.15,South,180,0.0,0.0,79,0.00,,BKN050,0.00,VWS V14.01,2013-01-25 07:50:00,
2013-01-25 08:51:00,26.8,21.1,30.15,South,180,0.0,0.0,79,0.00,,BKN050,0.00,VWS V14.01,2013-01-25 07:51:00,
2013-01-25 08:52:00,26.8,21.1,30.15,South,180,0.0,0.0,79,0.00,,BKN050,0.00,VWS V14.01,2013-01-25 07:52:00,
2013-01-25 08:53:00,26.8,21.1,30.15,NNE,22,0.0,0.0,79,0.00,,BKN050,0.00,VWS V14.01,2013-01-25 07:53:00,
2013-01-25 08:54:00,26.8,21.1,30.15,NNW,338,0.0,0.0,79,0.00,,BKN050,0.00,VWS V14.01,2013-01-25 07:54:00,
2013-01-25 08:55:00,26.8,21.1,30.15,North,0,0.0,0.0,79,0.00,,OVC011,0.00,VWS V14.01,2013-01-25 07:55:00,
2013-01-25 08:56:00,26.8,21.1,30.15,North,0,0.0,0.0,79,0.00,,BKN050,0.00,VWS V14.01,2013-01-25 07:56:00,
2013-01-25 08:57:00,27.0,21.3,30.15,NW,315,0.0,0.0,79,0.00,,BKN050,0.00,VWS V14.01,2013-01-25 07:57:00,
2013-01-25 08:58:00,26.8,21.1,30.15,NW,315,0.0,1.1,79,0.00,,BKN050,0.00,VWS V14.01,2013-01-25 07:58:00,
2013-01-25 08:59:00,26.8,21.1,30.15,NW,315,0.0,0.0,79,0.00,,BKN050,0.00,VWS V14.01,2013-01-25 07:59:00,
2013-01-25 09:00:00,26.8,21.1,30.15,WSW,248,0.0,0.0,79,0.00,,OVC011,0.00,VWS V14.01,2013-01-25 08:00:00,
2013-01-25 09:01:00,27.0,21.3,30.15,SW,225,0.9,1.1,79,0.00,,BKN050,0.00,VWS V14.01,2013-01-25 08:01:00,
2013-01-25 09:02:00,27.0,21.3,30.15,WSW,248,1.3,1.6,79,0.00,,BKN050,0.00,VWS V14.01,2013-01-25 08:02:00,
2013-01-25 09:03:00,27.0,21.3,30.15,SW,225,0.0,1.3,79,0.00,,BKN050,0.00,VWS V14.01,2013-01-25 08:03:00,
2013-01-25 09:04:00,27.0,21.3,30.15,North,0,0.0,0.9,79,0.00,,BKN050,0.00,VWS V14.01,2013-01-25 08:04:00,
2013-01-25 09:05:00,26.8,21.1,30.15,South,180,0.0,0.0,79,0.00,,OVC011,0.00,VWS V14.01,2013-01-25 08:05:00,
2013-01-25 09:06:00,26.8,20.9,30.15,SSE,158,0.0,0.0,78,0.00,,BKN050,0.00,VWS V14.01,2013-01-25 08:06:00,
2013-01-25 09:07:00,27.0,21.0,30.15,WNW,292,0.9,0.9,78,0.00,,BKN050,0.00,VWS V14.01,2013-01-25 08:07:00,
2013-01-25 09:08:00,27.0,21.0,30.15,NW,315,0.9,0.9,78,0.00,,BKN050,0.00,VWS V14.01,2013-01-25 08:08:00,
2013-01-25 09:09:00,27.0,21.3,30.15,West,270,0.0,0.9,79,0.00,,BKN050,0.00,VWS V14.01,2013-01-25 08:09:00,
2013-01-25 09:10:00,27.0,21.3,30.15,West,270,0.0,0.0,79,0.00,,OVC011,0.00,VWS V14.01,2013-01-25 08:10:00,
2013-01-25 09:11:00,27.0,21.3,30.15,WNW,292,0.0,0.0,79,0.00,,BKN050,0.00,VWS V14.01,2013-01-25 08:11:00,
2013-01-25 09:12:00,27.0,21.3,30.15,NNE,22,2.2,2.2,79,0.00,,BKN050,0.00,VWS V14.01,2013-01-25 08:12:00,
2013-01-25 09:13:00,27.0,21.3,30.15,West,270,1.1,2.5,79,0.00,,BKN050,0.00,VWS V14.01,2013-01-25 08:13:00,
2013-01-25 09:14:00,27.0,21.3,30.15,West,270,1.1,1.1,79,0.00,,BKN050,0.00,VWS V14.01,2013-01-25 08:14:00,
2013-01-25 09:15:00,27.0,21.0,30.15,NNW,338,1.3,1.3,78,0.00,,OVC011,0.00,VWS V14.01,2013-01-25 08:15:00,
2013-01-25 09:16:00,27.0,21.0,30.15,NW,315,0.0,0.0,78,0.00,,BKN050,0.00,VWS V14.01,2013-01-25 08:16:00,
2013-01-25 09:17:00,27.0,21.3,30.15,WSW,248,0.0,1.1,79,0.00,,BKN050,0.00,VWS V14.01,2013-01-25 08:17:00,
2013-01-25 09:18:00,27.0,21.3,30.15,NW,315,2.5,2.5,79,0.00,,BKN050,0.00,VWS V14.01,2013-01-25 08:18:00,
2013-01-25 09:19:00,27.0,21.3,30.15,SW,225,1.3,2.5,79,0.00,,BKN050,0.00,VWS V14.01,2013-01-25 08:19:00,
2013-01-25 09:20:00,27.0,21.3,30.15,NW,315,1.1,1.6,79,0.00,,OVC011,0.00,VWS V14.01,2013-01-25 08:20:00,
2013-01-25 09:21:00,27.0,21.3,30.15,SW,225,0.0,0.9,79,0.00,,BKN050,0.00,VWS V14.01,2013-01-25 08:21:00,
2013-01-25 09:22:00,27.0,21.3,30.15,WSW,248,2.0,2.0,79,0.00,,BKN050,0.00,VWS V14.01,2013-01-25 08:22:00,
2013-01-25 09:23:00,27.0,21.3,30.15,SW,225,2.0,2.5,79,0.00,,BKN050,0.00,VWS V14.01,2013-01-25 08:23:00,
2013-01-25 09:24:00,27.0,21.3,30.15,West,270,0.0,2.0,79,0.00,,BKN050,0.00,VWS V14.01,2013-01-25 08:24:00,
2013-01-25 09:25:00,27.0,21.3,30.15,NW,315,0.0,0.0,79,0.00,,OVC011,0.00,VWS V14.01,2013-01-25 08:25:00,
2013-01-25 09:26:00,27.0,21.3,30.15,NW,315,0.0,0.0,79,0.00,,BKN050,0.00,VWS V14.01,2013-01-25 08:26:00,
2013-01-25 09:27:00,27.0,21.3,30.15,West,270,0.0,0.0,79,0.00,,BKN050,0.00,VWS V14.01,2013-01-25 08:27:00,
2013-01-25 09:28:00,27.0,21.0,30.15,East,90,1.1,1.1,78,0.00,,BKN050,0.00,VWS V14.01,2013-01-25 08:28:00,
2013-01-25 09:29:00,27.0,21.0,30.15,East,90,1.1,1.1,78,0.00,,BKN050,0.00,VWS V14.01,2013-01-25 08:29:00,
2013-01-25 09:30:00,27.0,21.0,30.15,SE,135,0.9,1.1,78,0.00,,OVC011,0.00,VWS V14.01,2013-01-25 08:30:00,
2013-01-25 09:31:00,27.0,21.0,30.15,SE,135,0.0,0.9,78,0.00,,BKN050,0.00,VWS V14.01,2013-01-25 08:31:00,
2013-01-25 09:32:00,27.0,21.0,30.15,East,90,0.0,1.1,78,0.00,,BKN050,0.00,VWS V14.01,2013-01-25 08:32:00,
2013-01-25 09:33:00,27.0,21.0,30.15,East,90,0.0,0.0,78,0.00,,BKN050,0.00,VWS V14.01,2013-01-25 08:33:00,
2013-01-25 09:34:00,27.0,21.0,30.15,East,90,0.9,1.1,78,0.00,,BKN050,0.00,VWS V14.01,2013-01-25 08:34:00,
2013-01-25 09:35:00,27.0,21.0,30.15,NNW,338,0.0,0.9,78,0.00,,OVC011,0.00,VWS V14.01,2013-01-25 08:35:00,
2013-01-25 09:36:00,27.0,21.0,30.15,South,180,0.0,2.7,78,0.00,,BKN050,0.00,VWS V14.01,2013-01-25 08:36:00,
2013-01-25 09:37:00,27.0,21.0,30.15,West,270,0.0,1.1,78,0.00,,BKN050,0.00,VWS V14.01,2013-01-25 08:37:00,
2013-01-25 09:38:00,27.0,21.0,30.15,WNW,292,0.9,1.1,78,0.00,,BKN050,0.00,VWS V14.01,2013-01-25 08:38:00,
2013-01-25 09:39:00,27.0,21.0,30.15,WNW,292,1.1,2.5,78,0.00,,BKN050,0.00,VWS V14.01,2013-01-25 08:39:00,
2013-01-25 09:40:00,27.0,21.0,30.15,NE,45,0.9,1.1,78,0.00,,OVC011,0.00,VWS V14.01,2013-01-25 08:40:00,
2013-01-25 09:41:00,27.0,21.0,30.15,NE,45,1.6,1.6,78,0.00,,BKN050,0.00,VWS V14.01,2013-01-25 08:41:00,
2013-01-25 09:42:00,27.0,21.0,30.15,East,90,0.0,1.6,78,0.00,,BKN050,0.00,VWS V14.01,2013-01-25 08:42:00,
2013-01-25 09:43:00,27.0,21.0,30.15,NE,45,0.0,1.1,78,0.00,,BKN050,0.00,VWS V14.01,2013-01-25 08:43:00,
2013-01-25 09:44:00,27.0,21.0,30.15,NE,45,0.0,0.0,78,0.00,,BKN050,0.00,VWS V14.01,2013-01-25 08:44:00,
2013-01-25 09:45:00,27.0,21.0,30.15,ESE,112,0.0,1.3,78,0.00,,OVC011,0.00,VWS V14.01,2013-01-25 08:45:00,
2013-01-25 09:46:00,27.0,21.0,30.15,East,90,0.9,1.6,78,0.00,,BKN050,0.00,VWS V14.01,2013-01-25 08:46:00,
2013-01-25 09:47:00,27.0,21.0,30.15,East,90,1.3,1.3,78,0.00,,BKN050,0.00,VWS V14.01,2013-01-25 08:47:00,
2013-01-25 09:48:00,27.0,21.0,30.15,East,90,2.0,2.5,78,0.00,,BKN050,0.00,VWS V14.01,2013-01-25 08:48:00,
2013-01-25 09:49:00,27.0,21.0,30.15,South,180,2.0,2.2,78,0.00,,BKN050,0.00,VWS V14.01,2013-01-25 08:49:00,
2013-01-25 09:50:00,27.0,21.0,30.15,SSW,202,2.0,2.0,78,0.00,,OVC011,0.00,VWS V14.01,2013-01-25 08:50:00,
2013-01-25 09:51:00,27.1,21.2,30.15,WSW,248,0.9,2.0,78,0.00,,BKN050,0.00,VWS V14.01,2013-01-25 08:51:00,
2013-01-25 09:52:00,27.1,21.2,30.15,West,270,1.3,1.3,78,0.00,,BKN050,0.00,VWS V14.01,2013-01-25 08:52:00,
2013-01-25 09:53:00,27.1,21.2,30.15,SW,225,0.0,2.2,78,0.00,,BKN050,0.00,VWS V14.01,2013-01-25 08:53:00,
2013-01-25 09:54:00,27.1,21.2,30.15,South,180,1.3,1.6,78,0.00,,BKN050,0.00,VWS V14.01,2013-01-25 08:54:00,
2013-01-25 09:55:00,27.1,21.2,30.15,SW,225,0.0,1.3,78,0.00,,BKN050,0.00,VWS V14.01,2013-01-25 08:55:00,
2013-01-25 09:56:00,27.1,21.2,30.15,South,180,1.6,1.6,78,0.00,,OVC011,0.00,VWS V14.01,2013-01-25 08:56:00,
2013-01-25 09:57:00,27.1,21.2,30.15,WSW,248,0.0,2.9,78,0.00,,BKN050,0.00,VWS V14.01,2013-01-25 08:57:00,
2013-01-25 09:58:00,27.1,21.2,30.15,SE,135,1.1,1.6,78,0.00,,BKN050,0.00,VWS V14.01,2013-01-25 08:58:00,
2013-01-25 09:59:00,27.1,21.2,30.15,South,180,2.0,2.5,78,0.00,,BKN050,0.00,VWS V14.01,2013-01-25 08:59:00,
2013-01-25 10:00:00,27.1,21.2,30.15,NW,315,1.1,2.7,78,0.00,,BKN050,0.00,VWS V14.01,2013-01-25 09:00:00,
2013-01-25 10:01:00,27.1,21.2,30.15,NW,315,1.1,2.7,78,0.00,,OVC011,0.00,VWS V14.01,2013-01-25 09:01:00,
2013-01-25 10:02:00,27.1,21.2,30.15,SW,225,2.9,3.4,78,0.00,,BKN050,0.00,VWS V14.01,2013-01-25 09:02:00,
2013-01-25 10:03:00,27.1,21.2,30.15,SE,135,1.3,2.9,78,0.00,,BKN050,0.00,VWS V14.01,2013-01-25 09:03:00,
2013-01-25 10:04:00,27.1,21.2,30.15,SE,135,1.3,1.3,78,0.00,,BKN050,0.00,VWS V14.01,2013-01-25 09:04:00,
2013-01-25 10:05:00,27.1,21.2,30.12,SE,135,0.0,1.3,78,0.00,,BKN050,0.00,VWS V14.01,2013-01-25 09:05:00,
2013-01-25 10:06:00,27.1,21.2,30.12,SE,135,0.0,0.0,78,0.00,,OVC011,0.00,VWS V14.01,2013-01-25 09:06:00,
2013-01-25 10:07:00,27.3,21.4,30.12,SW,225,1.1,1.1,78,0.00,,BKN050,0.00,VWS V14.01,2013-01-25 09:07:00,
2013-01-25 10:08:00,27.3,21.4,30.12,West,270,0.0,1.1,78,0.00,,BKN050,0.00,VWS V14.01,2013-01-25 09:08:00,
2013-01-25 10:09:00,27.3,21.4,30.12,WSW,248,0.0,0.0,78,0.00,,BKN050,0.00,VWS V14.01,2013-01-25 09:09:00,
2013-01-25 10:10:00,27.3,21.4,30.12,West,270,0.9,0.9,78,0.00,,BKN050,0.00,VWS V14.01,2013-01-25 09:10:00,
2013-01-25 10:11:00,27.3,21.4,30.12,West,270,0.0,0.9,78,0.00,,OVC011,0.00,VWS V14.01,2013-01-25 09:11:00,
2013-01-25 10:12:00,27.3,21.4,30.12,West,270,0.0,2.5,78,0.00,,BKN050,0.00,VWS V14.01,2013-01-25 09:12:00,
2013-01-25 10:13:00,27.3,21.4,30.12,WSW,248,1.3,2.9,78,0.00,,BKN050,0.00,VWS V14.01,2013-01-25 09:13:00,
2013-01-25 10:14:00,27.3,21.4,30.12,West,270,0.0,1.3,78,0.00,,BKN050,0.00,VWS V14.01,2013-01-25 09:14:00,
2013-01-25 10:15:00,27.3,21.4,30.12,South,180,0.0,0.9,78,0.00,,BKN050,0.00,VWS V14.01,2013-01-25 09:15:00,
2013-01-25 10:16:00,27.5,21.5,30.12,WNW,292,1.6,1.6,78,0.00,,OVC011,0.00,VWS V14.01,2013-01-25 09:16:00,
2013-01-25 10:17:00,27.5,21.5,30.12,SW,225,0.9,2.9,78,0.00,,BKN050,0.00,VWS V14.01,2013-01-25 09:17:00,
2013-01-25 10:18:00,27.5,21.5,30.12,NW,315,2.5,2.5,78,0.00,,BKN050,0.00,VWS V14.01,2013-01-25 09:18:00,
2013-01-25 10:19:00,27.3,21.4,30.15,West,270,2.5,2.5,78,0.00,,BKN050,0.00,VWS V14.01,2013-01-25 09:19:00,
2013-01-25 10:20:00,27.3,21.4,30.15,SW,225,0.9,3.4,78,0.00,,BKN050,0.00,VWS V14.01,2013-01-25 09:20:00,
2013-01-25 10:21:00,27.3,21.4,30.15,SSW,202,0.0,1.3,78,0.00,,OVC011,0.00,VWS V14.01,2013-01-25 09:21:00,
2013-01-25 10:22:00,27.5,21.5,30.15,South,180,0.9,2.7,78,0.00,,BKN050,0.00,VWS V14.01,2013-01-25 09:22:00,
2013-01-25 10:23:00,27.5,21.5,30.15,SSW,202,1.6,1.6,78,0.00,,BKN050,0.00,VWS V14.01,2013-01-25 09:23:00,
2013-01-25 10:24:00,27.5,21.5,30.15,SSW,202,1.6,1.6,78,0.00,,BKN050,0.00,VWS V14.01,2013-01-25 09:24:00,
2013-01-25 10:25:00,27.5,21.5,30.15,SSW,202,0.0,1.6,78,0.00,,BKN050,0.00,VWS V14.01,2013-01-25 09:25:00,
2013-01-25 10:26:00,27.5,21.5,30.15,WSW,248,1.6,1.6,78,0.00,,OVC011,0.00,VWS V14.01,2013-01-25 09:26:00,
2013-01-25 10:27:00,27.5,21.5,30.15,SSW,202,0.0,0.9,78,0.00,,BKN050,0.00,VWS V14.01,2013-01-25 09:27:00,
2013-01-25 10:28:00,27.5,21.2,30.15,North,0,0.0,0.0,77,0.00,,BKN050,0.00,VWS V14.01,2013-01-25 09:28:00,
2013-01-25 10:29:00,27.5,21.2,30.15,SSE,158,1.1,2.7,77,0.00,,BKN050,0.00,VWS V14.01,2013-01-25 09:29:00,
2013-01-25 10:30:00,27.5,21.5,30.15,WSW,248,2.5,2.5,78,0.00,,BKN050,0.00,VWS V14.01,2013-01-25 09:30:00,
2013-01-25 10:31:00,27.5,21.5,30.15,SSW,202,1.1,2.5,78,0.00,,OVC011,0.00,VWS V14.01,2013-01-25 09:31:00,
2013-01-25 10:32:00,27.5,21.5,30.15,SSW,202,0.0,1.3,78,0.00,,BKN050,0.00,VWS V14.01,2013-01-25 09:32:00,
2013-01-25 10:33:00,27.5,21.5,30.15,SSW,202,0.0,0.9,78,0.00,,BKN050,0.00,VWS V14.01,2013-01-25 09:33:00,
2013-01-25 10:34:00,27.5,21.5,30.15,SSW,202,0.0,0.0,78,0.00,,BKN050,0.00,VWS V14.01,2013-01-25 09:34:00,
2013-01-25 10:35:00,27.7,21.7,30.15,SSW,202,0.0,0.0,78,0.00,,BKN050,0.00,VWS V14.01,2013-01-25 09:35:00,
2013-01-25 10:36:00,27.7,21.7,30.15,SSW,202,0.0,0.0,78,0.00,,OVC011,0.00,VWS V14.01,2013-01-25 09:36:00,
2013-01-25 10:37:00,27.7,21.7,30.15,WSW,248,1.1,1.6,78,0.00,,BKN050,0.00,VWS V14.01,2013-01-25 09:37:00,
2013-01-25 10:38:00,27.7,21.7,30.15,West,270,0.0,1.6,78,0.00,,BKN050,0.00,VWS V14.01,2013-01-25 09:38:00,
2013-01-25 10:39:00,27.9,21.9,30.15,SW,225,0.9,0.9,78,0.00,,BKN050,0.00,VWS V14.01,2013-01-25 09:39:00,
2013-01-25 10:40:00,27.9,21.9,30.15,SW,225,0.0,0.9,78,0.00,,BKN050,0.00,VWS V14.01,2013-01-25 09:40:00,
2013-01-25 10:41:00,27.9,21.9,30.15,WSW,248,0.0,0.0,78,0.00,,OVC011,0.00,VWS V14.01,2013-01-25 09:41:00,
2013-01-25 10:42:00,27.9,21.9,30.15,WSW,248,0.0,0.0,78,0.00,,BKN050,0.00,VWS V14.01,2013-01-25 09:42:00,
2013-01-25 10:44:00,27.9,21.9,30.15,WSW,248,0.0,0.0,78,0.00,,BKN050,0.00,VWS V14.01,2013-01-25 09:44:00,
2013-01-25 10:45:00,27.9,21.9,30.15,North,0,0.0,0.0,78,0.00,,BKN050,0.00,VWS V14.01,2013-01-25 09:45:00,
2013-01-25 10:46:00,27.9,21.9,30.15,North,0,0.0,0.0,78,0.00,,OVC012,0.00,VWS V14.01,2013-01-25 09:46:00,
2013-01-25 10:47:00,27.9,21.6,30.15,North,0,0.0,0.0,77,0.00,,BKN050,0.00,VWS V14.01,2013-01-25 09:47:00,
2013-01-25 10:48:00,27.9,21.6,30.15,South,180,1.6,1.6,77,0.00,,BKN050,0.00,VWS V14.01,2013-01-25 09:48:00,
2013-01-25 10:49:00,27.9,21.6,30.18,SE,135,0.0,1.6,77,0.00,,BKN050,0.00,VWS V14.01,2013-01-25 09:49:00,
2013-01-25 10:50:00,27.9,21.6,30.18,ENE,68,0.0,0.0,77,0.00,,BKN050,0.00,VWS V14.01,2013-01-25 09:50:00,
2013-01-25 10:51:00,27.9,21.3,30.18,NE,45,0.0,0.0,76,0.00,,OVC012,0.00,VWS V14.01,2013-01-25 09:51:00,
2013-01-25 10:52:00,27.9,21.6,30.18,SE,135,0.0,0.0,77,0.00,,BKN050,0.00,VWS V14.01,2013-01-25 09:52:00,
2013-01-25 10:53:00,27.9,21.6,30.18,ESE,112,1.1,1.1,77,0.00,,BKN050,0.00,VWS V14.01,2013-01-25 09:53:00,
2013-01-25 10:54:00,27.9,21.6,30.18,East,90,0.9,1.1,77,0.00,,BKN050,0.00,VWS V14.01,2013-01-25 09:54:00,
2013-01-25 10:55:00,27.9,21.6,30.18,ESE,112,1.1,2.0,77,0.00,,BKN050,0.00,VWS V14.01,2013-01-25 09:55:00,
2013-01-25 10:56:00,28.0,21.8,30.18,SE,135,0.0,1.1,77,0.00,,OVC012,0.00,VWS V14.01,2013-01-25 09:56:00,
2013-01-25 10:57:00,28.0,21.8,30.18,SE,135,0.0,0.0,77,0.00,,BKN050,0.00,VWS V14.01,2013-01-25 09:57:00,
2013-01-25 10:58:00,28.0,21.8,30.18,East,90,0.0,0.0,77,0.00,,BKN050,0.00,VWS V14.01,2013-01-25 09:58:00,
2013-01-25 10:59:00,28.0,21.8,30.18,North,0,0.0,0.0,77,0.00,,BKN050,0.00,VWS V14.01,2013-01-25 09:59:00,
2013-01-25 11:00:00,28.0,21.8,30.18,East,90,0.0,1.1,77,0.00,,BKN050,0.00,VWS V14.01,2013-01-25 10:00:00,
2013-01-25 11:01:00,28.0,21.8,30.18,SE,135,0.0,0.0,77,0.00,,OVC012,0.00,VWS V14.01,2013-01-25 10:01:00,
2013-01-25 11:02:00,28.0,21.5,30.18,NE,45,0.0,0.0,76,0.00,,BKN050,0.00,VWS V14.01,2013-01-25 10:02:00,
2013-01-25 11:03:00,28.0,21.5,30.18,North,0,0.0,0.0,76,0.00,,BKN050,0.00,VWS V14.01,2013-01-25 10:03:00,
2013-01-25 11:04:00,28.0,21.5,30.15,ENE,68,0.0,0.0,76,0.00,,BKN050,0.00,VWS V14.01,2013-01-25 10:04:00,
2013-01-25 11:05:00,28.0,21.5,30.15,NNE,22,0.9,0.9,76,0.00,,BKN050,0.00,VWS V14.01,2013-01-25 10:05:00,
2013-01-25 11:06:00,28.0,21.5,30.15,ESE,112,1.6,1.6,76,0.00,,OVC012,0.00,VWS V14.01,2013-01-25 10:06:00,
2013-01-25 11:07:00,28.0,21.5,30.15,ESE,112,0.0,2.2,76,0.00,,BKN050,0.00,VWS V14.01,2013-01-25 10:07:00,
2013-01-25 11:08:00,28.2,22.0,30.15,SE,135,0.0,0.0,77,0.00,,BKN050,0.00,VWS V14.01,2013-01-25 10:08:00,
2013-01-25 11:09:00,28.2,22.0,30.15,South,180,1.6,1.6,77,0.00,,BKN050,0.00,VWS V14.01,2013-01-25 10:09:00,
2013-01-25 11:10:00,28.2,22.0,30.15,South,180,0.0,2.5,77,0.00,,BKN050,0.00,VWS V14.01,2013-01-25 10:10:00,
2013-01-25 11:11:00,28.2,22.0,30.15,East,90,0.0,0.9,77,0.00,,OVC012,0.00,VWS V14.01,2013-01-25 10:11:00,
2013-01-25 11:12:00,28.4,22.1,30.15,South,180,0.0,0.0,77,0.00,,BKN050,0.00,VWS V14.01,2013-01-25 10:12:00,
2013-01-25 11:13:00,28.4,22.1,30.15,East,90,0.0,0.0,77,0.00,,BKN050,0.00,VWS V14.01,2013-01-25 10:13:00,
2013-01-25 11:14:00,28.6,22.3,30.15,East,90,0.0,0.0,77,0.00,,BKN050,0.00,VWS V14.01,2013-01-25 10:14:00,
2013-01-25 11:15:00,28.6,22.3,30.15,SSE,158,0.9,0.9,77,0.00,,BKN050,0.00,VWS V14.01,2013-01-25 10:15:00,
2013-01-25 11:16:00,28.6,22.3,30.15,South,180,2.0,2.0,77,0.00,,OVC012,0.00,VWS V14.01,2013-01-25 10:16:00,
2013-01-25 11:17:00,28.6,22.3,30.15,West,270,0.0,2.0,77,0.00,,BKN050,0.00,VWS V14.01,2013-01-25 10:17:00,
2013-01-25 11:18:00,28.6,22.3,30.15,West,270,0.0,0.0,77,0.00,,BKN050,0.00,VWS V14.01,2013-01-25 10:18:00,
2013-01-25 11:19:00,28.6,22.3,30.15,WSW,248,1.1,1.6,77,0.00,,BKN050,0.00,VWS V14.01,2013-01-25 10:19:00,
2013-01-25 11:20:00,28.6,22.3,30.15,SSW,202,1.1,1.3,77,0.00,,BKN050,0.00,VWS V14.01,2013-01-25 10:20:00,
2013-01-25 11:21:00,28.6,22.3,30.15,West,270,1.1,1.1,77,0.00,,OVC012,0.00,VWS V14.01,2013-01-25 10:21:00,
2013-01-25 11:22:00,28.6,22.3,30.15,SSW,202,2.7,2.7,77,0.00,,BKN050,0.00,VWS V14.01,2013-01-25 10:22:00,
2013-01-25 11:23:00,28.6,22.3,30.15,WSW,248,2.0,2.7,77,0.00,,BKN050,0.00,VWS V14.01,2013-01-25 10:23:00,
2013-01-25 11:24:00,28.6,22.3,30.15,SW,225,0.0,2.0,77,0.00,,BKN050,0.00,VWS V14.01,2013-01-25 10:24:00,
2013-01-25 11:25:00,28.6,22.3,30.15,WNW,292,0.0,1.3,77,0.00,,BKN050,0.00,VWS V14.01,2013-01-25 10:25:00,
2013-01-25 11:26:00,28.8,22.5,30.15,WSW,248,1.6,1.6,77,0.00,,BKN050,0.00,VWS V14.01,2013-01-25 10:26:00,
2013-01-25 11:27:00,28.8,22.5,30.15,WSW,248,1.6,1.6,77,0.00,,OVC012,0.00,VWS V14.01,2013-01-25 10:27:00,
2013-01-25 11:28:00,28.8,22.5,30.15,West,270,0.0,0.0,77,0.00,,BKN050,0.00,VWS V14.01,2013-01-25 10:28:00,
2013-01-25 11:29:00,28.8,22.2,30.15,NNW,338,0.0,0.0,76,0.00,,BKN050,0.00,VWS V14.01,2013-01-25 10:29:00,
2013-01-25 11:30:00,28.8,22.2,30.15,West,270,1.3,1.3,76,0.00,,BKN050,0.00,VWS V14.01,2013-01-25 10:30:00,
2013-01-25 11:31:00,28.8,22.2,30.15,NNW,338,0.0,1.3,76,0.00,,BKN050,0.00,VWS V14.01,2013-01-25 10:31:00,
2013-01-25 11:32:00,28.8,22.2,30.15,NNW,338,0.9,0.9,76,0.00,,OVC012,0.00,VWS V14.01,2013-01-25 10:32:00,
2013-01-25 11:33:00,28.8,22.2,30.15,North,0,1.3,3.6,76,0.00,,BKN050,0.00,VWS V14.01,2013-01-25 10:33:00,
2013-01-25 11:34:00,28.8,22.2,30.15,North,0,0.0,1.3,76,0.00,,BKN050,0.00,VWS V14.01,2013-01-25 10:34:00,
2013-01-25 11:35:00,28.8,22.2,30.15,SW,225,0.0,0.0,76,0.00,,BKN050,0.00,VWS V14.01,2013-01-25 10:35:00,
2013-01-25 11:36:00,28.8,22.2,30.15,West,270,0.0,1.6,76,0.00,,BKN050,0.00,VWS V14.01,2013-01-25 10:36:00,
2013-01-25 11:37:00,28.8,22.2,30.15,North,0,0.0,0.0,76,0.00,,OVC012,0.00,VWS V14.01,2013-01-25 10:37:00,
2013-01-25 11:38:00,28.8,21.9,30.15,West,270,1.3,1.3,75,0.00,,BKN050,0.00,VWS V14.01,2013-01-25 10:38:00,
2013-01-25 11:39:00,28.8,21.9,30.15,SE,135,1.1,1.3,75,0.00,,BKN050,0.00,VWS V14.01,2013-01-25 10:39:00,
2013-01-25 11:40:00,28.8,21.9,30.15,NNE,22,0.0,1.1,75,0.00,,BKN050,0.00,VWS V14.01,2013-01-25 10:40:00,
2013-01-25 11:41:00,28.8,21.9,30.15,NNE,22,0.0,0.0,75,0.00,,BKN050,0.00,VWS V14.01,2013-01-25 10:41:00,
2013-01-25 11:42:00,28.8,21.9,30.15,NE,45,0.0,0.0,75,0.00,,OVC012,0.00,VWS V14.01,2013-01-25 10:42:00,
2013-01-25 11:43:00,28.8,21.9,30.15,NE,45,0.0,0.0,75,0.00,,BKN050,0.00,VWS V14.01,2013-01-25 10:43:00,
2013-01-25 11:44:00,28.8,21.9,30.15,ENE,68,0.0,0.0,75,0.00,,BKN050,0.00,VWS V14.01,2013-01-25 10:44:00,
2013-01-25 11:45:00,28.8,21.9,30.15,East,90,0.9,0.9,75,0.00,,BKN050,0.00,VWS V14.01,2013-01-25 10:45:00,
2013-01-25 11:46:00,28.8,21.9,30.15,NNE,22,0.9,0.9,75,0.00,,BKN050,0.00,VWS V14.01,2013-01-25 10:46:00,
2013-01-25 11:47:00,28.8,21.9,30.15,SE,135,0.9,0.9,75,0.00,,OVC011,0.00,VWS V14.01,2013-01-25 10:47:00,
2013-01-25 11:48:00,28.8,21.9,30.15,North,0,0.0,2.7,75,0.00,,BKN050,0.00,VWS V14.01,2013-01-25 10:48:00,
2013-01-25 11:49:00,28.8,21.9,30.15,SE,135,0.9,0.9,75,0.00,,BKN050,0.00,VWS V14.01,2013-01-25 10:49:00,
2013-01-25 11:50:00,28.8,21.9,30.12,NE,45,2.2,2.9,75,0.00,,BKN050,0.00,VWS V14.01,2013-01-25 10:50:00,
2013-01-25 11:51:00,28.8,21.9,30.12,SSW,202,1.3,2.2,75,0.00,,BKN050,0.00,VWS V14.01,2013-01-25 10:51:00,
2013-01-25 11:52:00,28.8,21.9,30.12,SW,225,1.6,1.6,75,0.00,,OVC011,0.00,VWS V14.01,2013-01-25 10:52:00,
2013-01-25 11:53:00,28.9,22.3,30.12,SW,225,1.6,1.6,76,0.00,,BKN050,0.00,VWS V14.01,2013-01-25 10:53:00,
2013-01-25 11:54:00,28.9,22.3,30.12,SE,135,0.9,1.6,76,0.00,,BKN050,0.00,VWS V14.01,2013-01-25 10:54:00,
2013-01-25 11:55:00,29.1,22.5,30.12,SSW,202,0.9,0.9,76,0.00,,BKN050,0.00,VWS V14.01,2013-01-25 10:55:00,
2013-01-25 11:56:00,29.1,22.5,30.12,South,180,1.1,1.6,76,0.00,,BKN050,0.00,VWS V14.01,2013-01-25 10:56:00,
2013-01-25 11:57:00,29.1,22.5,30.12,West,270,0.0,1.1,76,0.00,,OVC011,0.00,VWS V14.01,2013-01-25 10:57:00,
2013-01-25 11:58:00,29.1,22.5,30.12,ESE,112,1.3,1.3,76,0.00,,BKN050,0.00,VWS V14.01,2013-01-25 10:58:00,
2013-01-25 11:59:00,29.1,22.5,30.12,South,180,2.0,2.7,76,0.00,,BKN050,0.00,VWS V14.01,2013-01-25 10:59:00,
2013-01-25 12:00:00,29.1,22.5,30.12,ENE,68,1.3,2.0,76,0.00,,BKN050,0.00,VWS V14.01,2013-01-25 11:00:00,
2013-01-25 12:01:00,29.1,22.2,30.12,NE,45,0.0,1.3,75,0.00,,BKN050,0.00,VWS V14.01,2013-01-25 11:01:00,
2013-01-25 12:02:00,29.1,22.2,30.12,WNW,292,0.0,0.0,75,0.00,,OVC011,0.00,VWS V14.01,2013-01-25 11:02:00,
2013-01-25 12:03:00,29.1,22.2,30.12,East,90,0.9,1.3,75,0.00,,BKN050,0.00,VWS V14.01,2013-01-25 11:03:00,
2013-01-25 12:04:00,28.9,22.0,30.15,NNE,22,1.6,1.6,75,0.00,,BKN050,0.00,VWS V14.01,2013-01-25 11:04:00,
2013-01-25 12:05:00,28.9,21.7,30.15,NE,45,0.0,1.6,74,0.00,,BKN050,0.00,VWS V14.01,2013-01-25 11:05:00,
2013-01-25 12:06:00,29.1,22.2,30.15,WNW,292,0.0,0.0,75,0.00,,BKN050,0.00,VWS V14.01,2013-01-25 11:06:00,
2013-01-25 12:07:00,29.1,22.2,30.15,SE,135,0.0,0.0,75,0.00,,OVC011,0.00,VWS V14.01,2013-01-25 11:07:00,
2013-01-25 12:08:00,29.1,22.2,30.15,SW,225,0.0,0.0,75,0.00,,BKN050,0.00,VWS V14.01,2013-01-25 11:08:00,
2013-01-25 12:09:00,29.1,22.2,30.15,SW,225,2.5,2.5,75,0.00,,BKN050,0.00,VWS V14.01,2013-01-25 11:09:00,
2013-01-25 12:10:00,29.1,22.2,30.15,SE,135,0.0,2.5,75,0.00,,BKN050,0.00,VWS V14.01,2013-01-25 11:10:00,
2013-01-25 12:11:00,29.5,22.9,30.15,SW,225,1.3,1.3,76,0.00,,BKN050,0.00,VWS V14.01,2013-01-25 11:11:00,
2013-01-25 12:12:00,29.3,22.7,30.15,WSW,248,0.0,1.3,76,0.00,,OVC011,0.00,VWS V14.01,2013-01-25 11:12:00,
2013-01-25 12:13:00,29.5,22.9,30.15,NNW,338,0.0,0.0,76,0.00,,BKN050,0.00,VWS V14.01,2013-01-25 11:13:00,
2013-01-25 12:14:00,29.5,22.9,30.15,North,0,0.0,0.0,76,0.00,,BKN050,0.00,VWS V14.01,2013-01-25 11:14:00,
2013-01-25 12:15:00,29.5,22.9,30.15,SE,135,1.1,1.6,76,0.00,,BKN050,0.00,VWS V14.01,2013-01-25 11:15:00,
2013-01-25 12:16:00,29.5,22.9,30.15,SE,135,0.0,2.5,76,0.00,,BKN050,0.00,VWS V14.01,2013-01-25 11:16:00,
2013-01-25 12:17:00,29.5,22.9,30.15,South,180,0.0,1.3,76,0.00,,OVC011,0.00,VWS V14.01,2013-01-25 11:17:00,
2013-01-25 12:18:00,29.5,22.9,30.15,SW,225,1.1,1.1,76,0.00,,BKN050,0.00,VWS V14.01,2013-01-25 11:18:00,
2013-01-25 12:19:00,29.5,22.9,30.15,SE,135,2.2,2.2,76,0.00,,BKN050,0.00,VWS V14.01,2013-01-25 11:19:00,
2013-01-25 12:20:00,29.5,22.9,30.15,South,180,0.9,2.2,76,0.00,,BKN050,0.00,VWS V14.01,2013-01-25 11:20:00,
2013-01-25 12:21:00,29.5,22.9,30.15,South,180,0.9,0.9,76,0.00,,BKN050,0.00,VWS V14.01,2013-01-25 11:21:00,
2013-01-25 12:22:00,29.7,23.0,30.15,SSE,158,0.0,0.9,76,0.00,,OVC011,0.00,VWS V14.01,2013-01-25 11:22:00,
2013-01-25 12:23:00,29.7,23.0,30.15,SW,225,0.0,0.0,76,0.00,,BKN050,0.00,VWS V14.01,2013-01-25 11:23:00,
2013-01-25 12:24:00,29.7,23.0,30.15,SE,135,0.0,1.3,76,0.00,,BKN050,0.00,VWS V14.01,2013-01-25 11:24:00,
2013-01-25 12:25:00,29.7,23.0,30.15,South,180,0.0,0.0,76,0.00,,BKN050,0.00,VWS V14.01,2013-01-25 11:25:00,
2013-01-25 12:26:00,29.7,23.0,30.15,SSW,202,2.0,2.5,76,0.00,,BKN050,0.00,VWS V14.01,2013-01-25 11:26:00,
2013-01-25 12:27:00,29.7,23.0,30.15,WSW,248,0.0,2.9,76,0.00,,OVC011,0.00,VWS V14.01,2013-01-25 11:27:00,
2013-01-25 12:28:00,29.7,23.0,30.15,WNW,292,0.0,1.1,76,0.00,,BKN050,0.00,VWS V14.01,2013-01-25 11:28:00,
2013-01-25 12:29:00,29.7,23.0,30.15,WNW,292,0.0,0.0,76,0.00,,BKN050,0.00,VWS V14.01,2013-01-25 11:29:00,
2013-01-25 12:30:00,29.7,23.0,30.15,SSE,158,2.0,2.2,76,0.00,,BKN050,0.00,VWS V14.01,2013-01-25 11:30:00,
2013-01-25 12:31:00,29.8,23.2,30.15,WSW,248,1.3,2.0,76,0.00,,BKN050,0.00,VWS V14.01,2013-01-25 11:31:00,
2013-01-25 12:32:00,29.8,23.2,30.15,WNW,292,0.0,1.6,76,0.00,,OVC011,0.00,VWS V14.01,2013-01-25 11:32:00,
2013-01-25 12:33:00,29.8,23.2,30.15,SW,225,0.0,0.0,76,0.00,,BKN050,0.00,VWS V14.01,2013-01-25 11:33:00,
2013-01-25 12:34:00,29.8,23.2,30.15,SW,225,0.0,0.9,76,0.00,,BKN050,0.00,VWS V14.01,2013-01-25 11:34:00,
2013-01-25 12:35:00,29.8,23.2,30.15,SW,225,0.0,0.0,76,0.00,,BKN050,0.00,VWS V14.01,2013-01-25 11:35:00,
2013-01-25 12:36:00,29.8,23.2,30.15,West,270,0.0,0.0,76,0.00,,BKN050,0.00,VWS V14.01,2013-01-25 11:36:00,
2013-01-25 12:37:00,29.8,23.2,30.15,SSE,158,2.7,2.7,76,0.00,,OVC011,0.00,VWS V14.01,2013-01-25 11:37:00,
2013-01-25 12:38:00,29.7,23.0,30.15,SW,225,0.9,5.4,76,0.00,,BKN050,0.00,VWS V14.01,2013-01-25 11:38:00,
2013-01-25 12:39:00,29.7,22.7,30.15,West,270,2.2,3.4,75,0.00,,BKN050,0.00,VWS V14.01,2013-01-25 11:39:00,
2013-01-25 12:40:00,29.7,22.7,30.15,South,180,0.0,2.2,75,0.00,,BKN050,0.00,VWS V14.01,2013-01-25 11:40:00,
2013-01-25 12:41:00,29.7,22.7,30.15,SW,225,0.0,0.0,75,0.00,,BKN050,0.00,VWS V14.01,2013-01-25 11:41:00,
2013-01-25 12:42:00,29.7,22.7,30.15,West,270,1.1,1.3,75,0.00,,OVC011,0.00,VWS V14.01,2013-01-25 11:42:00,
2013-01-25 12:43:00,29.7,22.7,30.15,West,270,2.2,2.5,75,0.00,,BKN050,0.00,VWS V14.01,2013-01-25 11:43:00,
2013-01-25 12:44:00,29.7,22.7,30.15,SE,135,2.5,2.5,75,0.00,,BKN050,0.00,VWS V14.01,2013-01-25 11:44:00,
2013-01-25 12:45:00,29.7,22.7,30.15,South,180,2.9,2.9,75,0.00,,BKN050,0.00,VWS V14.01,2013-01-25 11:45:00,
2013-01-25 12:46:00,29.7,22.7,30.15,SE,135,1.3,2.9,75,0.00,,BKN050,0.00,VWS V14.01,2013-01-25 11:46:00,
2013-01-25 12:47:00,29.7,22.7,30.15,SW,225,0.9,2.0,75,0.00,,OVC010,0.00,VWS V14.01,2013-01-25 11:47:00,
2013-01-25 12:48:00,29.7,22.7,30.15,SE,135,1.1,3.8,75,0.00,,BKN050,0.00,VWS V14.01,2013-01-25 11:48:00,
2013-01-25 12:49:00,29.7,22.7,30.12,WSW,248,0.0,1.1,75,0.00,,BKN050,0.00,VWS V14.01,2013-01-25 11:49:00,
2013-01-25 12:50:00,29.7,22.7,30.12,West,270,0.0,0.0,75,0.00,,BKN050,0.00,VWS V14.01,2013-01-25 11:50:00,
2013-01-25 12:51:00,29.8,22.9,30.12,SE,135,0.0,0.0,75,0.00,,BKN050,0.00,VWS V14.01,2013-01-25 11:51:00,
2013-01-25 12:52:00,29.8,22.9,30.12,South,180,0.0,1.3,75,0.00,,OVC010,0.00,VWS V14.01,2013-01-25 11:52:00,
2013-01-25 12:53:00,29.8,22.9,30.12,SSW,202,1.1,1.6,75,0.00,,BKN050,0.00,VWS V14.01,2013-01-25 11:53:00,
2013-01-25 12:54:00,29.8,22.9,30.12,South,180,2.0,2.5,75,0.00,,BKN050,0.00,VWS V14.01,2013-01-25 11:54:00,
2013-01-25 12:55:00,29.8,22.9,30.12,South,180,2.0,2.0,75,0.00,,BKN050,0.00,VWS V14.01,2013-01-25 11:55:00,
2013-01-25 12:56:00,29.8,22.9,30.12,ENE,68,0.0,2.0,75,0.00,,BKN050,0.00,VWS V14.01,2013-01-25 11:56:00,
2013-01-25 12:57:00,29.7,22.7,30.12,South,180,1.1,1.3,75,0.00,,OVC010,0.00,VWS V14.01,2013-01-25 11:57:00,
2013-01-25 12:58:00,29.5,22.5,30.12,West,270,2.7,3.4,75,0.00,,BKN050,0.00,VWS V14.01,2013-01-25 11:58:00,
2013-01-25 12:59:00,29.5,22.5,30.12,West,270,1.3,2.7,75,0.00,,BKN050,0.00,VWS V14.01,2013-01-25 11:59:00,
2013-01-25 13:00:00,29.5,22.5,30.12,WSW,248,1.6,2.0,75,0.00,,BKN050,0.00,VWS V14.01,2013-01-25 12:00:00,
2013-01-25 13:01:00,29.5,22.5,30.12,WNW,292,0.0,1.6,75,0.00,,BKN050,0.00,VWS V14.01,2013-01-25 12:01:00,
2013-01-25 13:02:00,29.5,22.5,30.12,WSW,248,2.0,2.5,75,0.00,,BKN050,0.00,VWS V14.01,2013-01-25 12:02:00,
2013-01-25 13:03:00,29.5,22.5,30.12,WSW,248,2.0,2.5,75,0.00,,OVC010,0.00,VWS V14.01,2013-01-25 12:03:00,
2013-01-25 13:04:00,29.5,22.5,30.12,SSW,202,1.3,2.5,75,0.00,,BKN050,0.00,VWS V14.01,2013-01-25 12:04:00,
2013-01-25 13:05:00,29.5,22.5,30.12,South,180,1.3,2.9,75,0.00,,BKN050,0.00,VWS V14.01,2013-01-25 12:05:00,
2013-01-25 13:06:00,29.5,22.5,30.12,SW,225,0.0,1.3,75,0.00,,BKN050,0.00,VWS V14.01,2013-01-25 12:06:00,
2013-01-25 13:08:00,29.5,22.5,30.12,North,0,0.0,0.0,75,0.00,,OVC010,0.00,VWS V14.01,2013-01-25 12:08:00,
2013-01-25 13:09:00,29.5,22.5,30.12,WSW,248,1.6,3.1,75,0.00,,BKN050,0.00,VWS V14.01,2013-01-25 12:09:00,
2013-01-25 13:10:00,29.5,22.5,30.12,South,180,2.5,2.5,75,0.00,,BKN050,0.00,VWS V14.01,2013-01-25 12:10:00,
2013-01-25 13:11:00,29.5,22.5,30.12,South,180,2.0,2.5,75,0.00,,BKN050,0.00,VWS V14.01,2013-01-25 12:11:00,
2013-01-25 13:12:00,29.5,22.5,30.12,South,180,0.0,2.0,75,0.00,,BKN050,0.00,VWS V14.01,2013-01-25 12:12:00,
2013-01-25 13:13:00,29.5,22.5,30.12,South,180,0.0,0.0,75,0.00,,OVC010,0.00,VWS V14.01,2013-01-25 12:13:00,
2013-01-25 13:14:00,29.7,22.7,30.12,South,180,0.0,0.0,75,0.00,,BKN050,0.00,VWS V14.01,2013-01-25 12:14:00,
2013-01-25 13:15:00,29.5,22.5,30.12,WNW,292,1.1,3.6,75,0.00,,BKN050,0.00,VWS V14.01,2013-01-25 12:15:00,
2013-01-25 13:16:00,29.5,22.5,30.12,WSW,248,0.9,1.1,75,0.00,,BKN050,0.00,VWS V14.01,2013-01-25 12:16:00,
2013-01-25 13:17:00,29.5,22.5,30.12,SE,135,2.7,2.7,75,0.00,,BKN050,0.00,VWS V14.01,2013-01-25 12:17:00,
2013-01-25 13:18:00,29.5,22.5,30.12,SE,135,3.4,3.4,75,0.00,,OVC010,0.00,VWS V14.01,2013-01-25 12:18:00,
2013-01-25 13:19:00,29.5,22.5,30.12,WSW,248,2.9,3.6,75,0.00,,BKN050,0.00,VWS V14.01,2013-01-25 12:19:00,
2013-01-25 13:20:00,29.5,22.5,30.12,SW,225,0.9,2.9,75,0.00,,BKN050,0.00,VWS V14.01,2013-01-25 12:20:00,
2013-01-25 13:21:00,29.5,22.5,30.12,NE,45,2.7,2.7,75,0.00,,BKN050,0.00,VWS V14.01,2013-01-25 12:21:00,
2013-01-25 13:22:00,29.5,22.5,30.12,SW,225,1.1,2.7,75,0.00,,BKN050,0.00,VWS V14.01,2013-01-25 12:22:00,
2013-01-25 13:23:00,29.5,22.5,30.12,SW,225,2.0,2.0,75,0.00,,OVC010,0.00,VWS V14.01,2013-01-25 12:23:00,
2013-01-25 13:24:00,29.5,22.5,30.12,WNW,292,1.6,2.9,75,0.00,,BKN050,0.00,VWS V14.01,2013-01-25 12:24:00,
2013-01-25 13:25:00,29.5,22.5,30.12,WSW,248,0.9,1.6,75,0.00,,BKN050,0.00,VWS V14.01,2013-01-25 12:25:00,
2013-01-25 13:26:00,29.5,22.5,30.12,SW,225,1.6,2.7,75,0.00,,BKN050,0.00,VWS V14.01,2013-01-25 12:26:00,
2013-01-25 13:27:00,29.7,22.7,30.12,South,180,2.5,2.9,75,0.00,,BKN050,0.00,VWS V14.01,2013-01-25 12:27:00,
2013-01-25 13:28:00,29.7,22.7,30.12,West,270,1.6,2.5,75,0.00,,OVC010,0.00,VWS V14.01,2013-01-25 12:28:00,
2013-01-25 13:29:00,29.7,22.7,30.12,SW,225,0.9,2.0,75,0.00,,BKN050,0.00,VWS V14.01,2013-01-25 12:29:00,
2013-01-25 13:30:00,29.7,22.7,30.12,West,270,2.2,2.2,75,0.00,,BKN050,0.00,VWS V14.01,2013-01-25 12:30:00,
2013-01-25 13:31:00,29.7,22.7,30.12,West,270,1.3,2.2,75,0.00,,BKN050,0.00,VWS V14.01,2013-01-25 12:31:00,
2013-01-25 13:32:00,29.7,22.7,30.12,West,270,1.6,1.6,75,0.00,,BKN050,0.00,VWS V14.01,2013-01-25 12:32:00,
2013-01-25 13:33:00,29.7,22.7,30.12,SW,225,1.1,1.3,75,0.00,,OVC010,0.00,VWS V14.01,2013-01-25 12:33:00,
2013-01-25 13:34:00,29.7,22.7,30.09,NE,45,1.3,1.3,75,0.00,,BKN050,0.00,VWS V14.01,2013-01-25 12:34:00,
2013-01-25 13:35:00,29.7,22.7,30.09,West,270,1.6,1.6,75,0.00,,BKN050,0.00,VWS V14.01,2013-01-25 12:35:00,
2013-01-25 13:36:00,29.7,22.7,30.09,SW,225,0.0,2.5,75,0.00,,BKN050,0.00,VWS V14.01,2013-01-25 12:36:00,
2013-01-25 13:37:00,29.7,22.7,30.09,West,270,0.0,0.9,75,0.00,,BKN050,0.00,VWS V14.01,2013-01-25 12:37:00,
2013-01-25 13:38:00,29.7,22.7,30.09,SW,225,1.1,1.1,75,0.00,,OVC010,0.00,VWS V14.01,2013-01-25 12:38:00,
2013-01-25 13:39:00,29.5,22.5,30.09,South,180,0.0,1.1,75,0.00,,BKN050,0.00,VWS V14.01,2013-01-25 12:39:00,
2013-01-25 13:40:00,29.5,22.5,30.09,South,180,0.0,0.0,75,0.00,,BKN050,0.00,VWS V14.01,2013-01-25 12:40:00,
2013-01-25 13:41:00,29.5,22.5,30.09,South,180,1.1,2.5,75,0.00,,BKN050,0.00,VWS V14.01,2013-01-25 12:41:00,
2013-01-25 13:42:00,29.5,22.5,30.09,WSW,248,1.1,1.1,75,0.00,,BKN050,0.00,VWS V14.01,2013-01-25 12:42:00,
2013-01-25 13:43:00,29.7,22.7,30.09,SW,225,0.0,1.1,75,0.00,,OVC010,0.00,VWS V14.01,2013-01-25 12:43:00,
2013-01-25 13:44:00,29.7,22.7,30.09,WSW,248,0.0,0.0,75,0.00,,BKN050,0.00,VWS V14.01,2013-01-25 12:44:00,
2013-01-25 13:45:00,29.7,22.7,30.09,WSW,248,0.0,0.0,75,0.00,,BKN050,0.00,VWS V14.01,2013-01-25 12:45:00,
2013-01-25 13:46:00,29.8,23.2,30.09,WNW,292,0.9,0.9,76,0.00,,BKN050,0.00,VWS V14.01,2013-01-25 12:46:00,
2013-01-25 13:47:00,29.8,23.2,30.09,West,270,0.0,1.1,76,0.00,,BKN050,0.00,VWS V14.01,2013-01-25 12:47:00,
2013-01-25 13:48:00,29.8,23.2,30.09,SSW,202,2.9,2.9,76,0.00,,OVC010,0.00,VWS V14.01,2013-01-25 12:48:00,
2013-01-25 13:49:00,29.7,23.0,30.09,West,270,1.3,3.8,76,0.00,,BKN050,0.00,VWS V14.01,2013-01-25 12:49:00,
2013-01-25 13:50:00,29.7,23.0,30.09,WNW,292,0.0,2.5,76,0.00,,BKN050,0.00,VWS V14.01,2013-01-25 12:50:00,
2013-01-25 13:51:00,29.8,22.9,30.09,SW,225,2.9,2.9,75,0.00,,BKN050,0.00,VWS V14.01,2013-01-25 12:51:00,
2013-01-25 13:52:00,29.8,22.9,30.09,SW,225,2.9,2.9,75,0.00,,BKN050,0.00,VWS V14.01,2013-01-25 12:52:00,
2013-01-25 13:53:00,29.7,22.7,30.09,SW,225,0.9,2.9,75,0.00,,OVC010,0.00,VWS V14.01,2013-01-25 12:53:00,
2013-01-25 13:54:00,29.7,22.7,30.09,SW,225,0.9,0.9,75,0.00,,BKN050,0.00,VWS V14.01,2013-01-25 12:54:00,
2013-01-25 13:55:00,29.7,22.7,30.09,SW,225,1.1,2.2,75,0.00,,BKN050,0.00,VWS V14.01,2013-01-25 12:55:00,
2013-01-25 13:56:00,29.7,22.7,30.09,WSW,248,1.3,1.3,75,0.00,,BKN050,0.00,VWS V14.01,2013-01-25 12:56:00,
2013-01-25 13:57:00,29.7,22.7,30.09,WSW,248,0.9,1.3,75,0.00,,BKN050,0.00,VWS V14.01,2013-01-25 12:57:00,
2013-01-25 13:58:00,29.7,22.7,30.09,WNW,292,0.0,0.9,75,0.00,,OVC010,0.00,VWS V14.01,2013-01-25 12:58:00,
2013-01-25 13:59:00,29.7,22.7,30.09,SW,225,0.0,1.3,75,0.00,,BKN050,0.00,VWS V14.01,2013-01-25 12:59:00,
2013-01-25 14:01:00,29.7,22.7,30.09,East,90,2.7,2.7,75,0.00,,BKN050,0.00,VWS V14.01,2013-01-25 13:01:00,
2013-01-25 14:02:00,29.5,22.5,30.09,South,180,2.2,2.7,75,0.00,,BKN050,0.00,VWS V14.01,2013-01-25 13:02:00,
2013-01-25 14:03:00,29.5,22.5,30.09,South,180,2.2,2.2,75,0.00,,OVC010,0.00,VWS V14.01,2013-01-25 13:03:00,
2013-01-25 14:04:00,29.5,22.5,30.09,SSW,202,2.2,2.2,75,0.00,,BKN050,0.00,VWS V14.01,2013-01-25 13:04:00,
2013-01-25 14:05:00,29.5,22.5,30.09,SE,135,1.1,2.2,75,0.00,,BKN050,0.00,VWS V14.01,2013-01-25 13:05:00,
2013-01-25 14:06:00,29.7,22.7,30.09,SSW,202,0.9,1.1,75,0.00,,BKN050,0.00,VWS V14.01,2013-01-25 13:06:00,
2013-01-25 14:07:00,29.5,22.5,30.09,SSW,202,0.9,2.7,75,0.00,,BKN050,0.00,VWS V14.01,2013-01-25 13:07:00,
2013-01-25 14:08:00,29.5,22.5,30.09,SE,135,0.0,1.1,75,0.00,,OVC010,0.00,VWS V14.01,2013-01-25 13:08:00,
2013-01-25 14:09:00,29.5,22.5,30.09,South,180,0.0,1.1,75,0.00,,BKN050,0.00,VWS V14.01,2013-01-25 13:09:00,
2013-01-25 14:10:00,29.5,22.5,30.09,North,0,0.0,0.9,75,0.00,,BKN050,0.00,VWS V14.01,2013-01-25 13:10:00,
2013-01-25 14:11:00,29.5,22.5,30.09,North,0,0.0,0.0,75,0.00,,BKN050,0.00,VWS V14.01,2013-01-25 13:11:00,
2013-01-25 14:12:00,29.5,22.5,30.09,East,90,0.0,0.0,75,0.00,,BKN050,0.00,VWS V14.01,2013-01-25 13:12:00,
2013-01-25 14:13:00,29.5,22.5,30.09,SW,225,1.3,1.3,75,0.00,,OVC010,0.00,VWS V14.01,2013-01-25 13:13:00,
2013-01-25 14:14:00,29.5,22.5,30.09,SSW,202,1.1,2.2,75,0.00,,BKN050,0.00,VWS V14.01,2013-01-25 13:14:00,
2013-01-25 14:15:00,29.5,22.5,30.09,West,270,3.4,3.6,75,0.00,,BKN050,0.00,VWS V14.01,2013-01-25 13:15:00,
2013-01-25 14:16:00,29.5,22.5,30.09,NW,315,0.9,3.4,75,0.00,,BKN050,0.00,VWS V14.01,2013-01-25 13:16:00,
2013-01-25 14:17:00,29.5,22.5,30.09,WNW,292,1.1,2.0,75,0.00,,BKN050,0.00,VWS V14.01,2013-01-25 13:17:00,
2013-01-25 14:18:00,29.5,22.5,30.09,WNW,292,1.3,2.0,75,0.00,,BKN050,0.00,VWS V14.01,2013-01-25 13:18:00,
2013-01-25 14:19:00,29.5,22.5,30.06,WSW,248,0.0,1.3,75,0.00,,OVC010,0.00,VWS V14.01,2013-01-25 13:19:00,
2013-01-25 14:20:00,29.7,23.0,30.06,SSW,202,0.9,2.5,76,0.00,,BKN050,0.00,VWS V14.01,2013-01-25 13:20:00,
2013-01-25 14:21:00,29.7,23.0,30.06,West,270,1.1,1.3,76,0.00,,BKN050,0.00,VWS V14.01,2013-01-25 13:21:00,
2013-01-25 14:22:00,29.7,23.0,30.06,SSW,202,0.0,2.0,76,0.00,,BKN050,0.00,VWS V14.01,2013-01-25 13:22:00,
2013-01-25 14:23:00,29.7,23.0,30.06,WNW,292,1.1,2.0,76,0.00,,BKN050,0.00,VWS V14.01,2013-01-25 13:23:00,
2013-01-25 14:24:00,29.7,23.0,30.06,SE,135,0.9,1.1,76,0.00,,OVC010,0.00,VWS V14.01,2013-01-25 13:24:00,
2013-01-25 14:25:00,29.5,22.9,30.06,SW,225,1.3,1.3,76,0.00,,BKN050,0.00,VWS V14.01,2013-01-25 13:25:00,
2013-01-25 14:26:00,29.5,22.9,30.06,South,180,2.0,2.0,76,0.00,,BKN050,0.00,VWS V14.01,2013-01-25 13:26:00,
2013-01-25 14:27:00,29.5,22.9,30.06,SW,225,2.2,2.9,76,0.00,,BKN050,0.00,VWS V14.01,2013-01-25 13:27:00,
2013-01-25 14:28:00,29.5,22.9,30.06,WSW,248,1.3,2.5,76,0.00,,BKN050,0.00,VWS V14.01,2013-01-25 13:28:00,
2013-01-25 14:29:00,29.5,22.9,30.06,West,270,1.1,1.3,76,0.00,,OVC010,0.00,VWS V14.01,2013-01-25 13:29:00,
2013-01-25 14:30:00,29.5,22.9,30.06,SSE,158,1.1,1.6,76,0.00,,BKN050,0.00,VWS V14.01,2013-01-25 13:30:00,
2013-01-25 14:31:00,29.5,22.9,30.06,WNW,292,0.9,1.6,76,0.00,,BKN050,0.00,VWS V14.01,2013-01-25 13:31:00,
2013-01-25 14:32:00,29.5,22.9,30.06,SE,135,0.0,0.9,76,0.00,,BKN050,0.00,VWS V14.01,2013-01-25 13:32:00,
2013-01-25 14:34:00,29.5,22.9,30.06,WSW,248,1.1,2.2,76,0.00,,OVC010,0.00,VWS V14.01,2013-01-25 13:34:00,
2013-01-25 14:35:00,29.5,22.9,30.09,West,270,0.9,2.2,76,0.00,,BKN050,0.00,VWS V14.01,2013-01-25 13:35:00,
2013-01-25 14:36:00,29.5,22.9,30.09,WSW,248,2.5,3.1,76,0.00,,BKN050,0.00,VWS V14.01,2013-01-25 13:36:00,
2013-01-25 14:37:00,29.7,23.0,30.09,SW,225,0.0,2.7,76,0.00,,BKN050,0.00,VWS V14.01,2013-01-25 13:37:00,
2013-01-25 14:38:00,29.7,23.0,30.09,SW,225,0.0,0.0,76,0.00,,BKN050,0.00,VWS V14.01,2013-01-25 13:38:00,
2013-01-25 14:39:00,29.7,23.0,30.09,WSW,248,1.1,1.1,76,0.00,,OVC010,0.00,VWS V14.01,2013-01-25 13:39:00,
2013-01-25 14:40:00,29.7,23.4,30.09,SW,225,2.0,2.2,77,0.00,,BKN050,0.00,VWS V14.01,2013-01-25 13:40:00,
2013-01-25 14:41:00,29.7,23.4,30.09,WNW,292,2.7,3.8,77,0.00,,BKN050,0.00,VWS V14.01,2013-01-25 13:41:00,
2013-01-25 14:42:00,29.7,23.4,30.09,SW,225,1.1,2.7,77,0.00,,BKN050,0.00,VWS V14.01,2013-01-25 13:42:00,
2013-01-25 14:43:00,29.7,23.4,30.09,SW,225,1.6,2.7,77,0.00,,BKN050,0.00,VWS V14.01,2013-01-25 13:43:00,
2013-01-25 14:44:00,29.7,23.4,30.09,NE,45,1.1,2.7,77,0.00,,OVC010,0.00,VWS V14.01,2013-01-25 13:44:00,
2013-01-25 14:45:00,29.7,23.0,30.09,WSW,248,1.6,2.0,76,0.00,,BKN050,0.00,VWS V14.01,2013-01-25 13:45:00,
2013-01-25 14:46:00,29.7,23.4,30.09,South,180,1.3,2.5,77,0.00,,BKN050,0.00,VWS V14.01,2013-01-25 13:46:00,
2013-01-25 14:47:00,29.7,23.0,30.09,West,270,3.6,3.8,76,0.00,,BKN050,0.00,VWS V14.01,2013-01-25 13:47:00,
2013-01-25 14:48:00,29.7,23.0,30.09,SW,225,1.6,3.6,76,0.00,,BKN050,0.00,VWS V14.01,2013-01-25 13:48:00,
2013-01-25 14:49:00,29.7,23.0,30.12,SW,225,0.0,2.0,76,0.00,,OVC010,0.00,VWS V14.01,2013-01-25 13:49:00,
2013-01-25 14:50:00,29.7,23.0,30.12,SW,225,0.0,2.9,76,0.00,,BKN050,0.00,VWS V14.01,2013-01-25 13:50:00,
2013-01-25 14:51:00,29.7,23.0,30.12,WSW,248,0.0,1.6,76,0.00,,BKN050,0.00,VWS V14.01,2013-01-25 13:51:00,
2013-01-25 14:52:00,29.7,23.0,30.12,NW,315,1.3,1.6,76,0.00,,BKN050,0.00,VWS V14.01,2013-01-25 13:52:00,
2013-01-25 14:53:00,29.7,23.0,30.12,West,270,0.0,1.3,76,0.00,,BKN050,0.00,VWS V14.01,2013-01-25 13:53:00,
2013-01-25 14:54:00,29.7,23.0,30.12,WSW,248,0.0,0.9,76,0.00,,OVC010,0.00,VWS V14.01,2013-01-25 13:54:00,
2013-01-25 14:55:00,29.7,23.0,30.12,WSW,248,1.1,1.1,76,0.00,,BKN050,0.00,VWS V14.01,2013-01-25 13:55:00,
2013-01-25 14:56:00,29.7,23.0,30.12,SW,225,0.0,2.0,76,0.00,,BKN050,0.00,VWS V14.01,2013-01-25 13:56:00,
2013-01-25 14:57:00,29.7,23.4,30.12,West,270,0.0,0.0,77,0.00,,BKN050,0.00,VWS V14.01,2013-01-25 13:57:00,
2013-01-25 14:58:00,29.7,23.4,30.12,South,180,0.0,0.0,77,0.00,,BKN050,0.00,VWS V14.01,2013-01-25 13:58:00,
2013-01-25 14:59:00,29.8,23.5,30.12,NW,315,2.2,2.2,77,0.00,,OVC010,0.00,VWS V14.01,2013-01-25 13:59:00,
2013-01-25 15:00:00,29.8,23.5,30.12,West,270,1.6,1.6,77,0.00,,BKN050,0.00,VWS V14.01,2013-01-25 14:00:00,
2013-01-25 15:01:00,29.8,23.5,30.12,WSW,248,1.1,1.6,77,0.00,,BKN050,0.00,VWS V14.01,2013-01-25 14:01:00,
2013-01-25 15:02:00,29.8,23.5,30.12,SW,225,1.1,1.6,77,0.00,,BKN050,0.00,VWS V14.01,2013-01-25 14:02:00,
2013-01-25 15:03:00,29.8,23.5,30.12,SW,225,0.9,1.1,77,0.00,,BKN050,0.00,VWS V14.01,2013-01-25 14:03:00,
2013-01-25 15:04:00,29.8,23.5,30.09,South,180,0.0,2.0,77,0.00,,OVC009,0.00,VWS V14.01,2013-01-25 14:04:00,
2013-01-25 15:05:00,29.8,23.5,30.09,WNW,292,0.0,2.2,77,0.00,,BKN050,0.00,VWS V14.01,2013-01-25 14:05:00,
2013-01-25 15:06:00,29.8,23.5,30.09,SW,225,0.9,0.9,77,0.00,,BKN050,0.00,VWS V14.01,2013-01-25 14:06:00,
2013-01-25 15:07:00,29.8,23.5,30.09,WSW,248,1.1,2.0,77,0.00,,BKN050,0.00,VWS V14.01,2013-01-25 14:07:00,
2013-01-25 15:08:00,29.8,23.5,30.09,South,180,1.3,2.7,77,0.00,,BKN050,0.00,VWS V14.01,2013-01-25 14:08:00,
2013-01-25 15:09:00,29.8,23.5,30.09,SW,225,1.3,1.3,77,0.00,,OVC009,0.00,VWS V14.01,2013-01-25 14:09:00,
2013-01-25 15:10:00,29.8,23.5,30.09,SSW,202,1.1,2.5,77,0.00,,BKN050,0.00,VWS V14.01,2013-01-25 14:10:00,
2013-01-25 15:11:00,29.8,23.5,30.09,South,180,1.6,1.6,77,0.00,,BKN050,0.00,VWS V14.01,2013-01-25 14:11:00,
2013-01-25 15:12:00,29.8,23.5,30.09,SSW,202,2.5,2.5,77,0.00,,BKN050,0.00,VWS V14.01,2013-01-25 14:12:00,
2013-01-25 15:13:00,29.8,23.5,30.09,West,270,1.3,2.5,77,0.00,,BKN050,0.00,VWS V14.01,2013-01-25 14:13:00,
2013-01-25 15:14:00,29.8,23.5,30.09,WSW,248,1.3,1.3,77,0.00,,OVC009,0.00,VWS V14.01,2013-01-25 14:14:00,
2013-01-25 15:15:00,29.8,23.5,30.09,West,270,1.6,2.9,77,0.00,,BKN050,0.00,VWS V14.01,2013-01-25 14:15:00,
2013-01-25 15:16:00,29.8,23.5,30.09,SSW,202,2.7,2.7,77,0.00,,BKN050,0.00,VWS V14.01,2013-01-25 14:16:00,
2013-01-25 15:17:00,29.7,23.4,30.09,West,270,1.3,2.7,77,0.00,,BKN050,0.00,VWS V14.01,2013-01-25 14:17:00,
2013-01-25 15:18:00,29.7,23.4,30.09,North,0,0.9,1.3,77,0.00,,BKN050,0.00,VWS V14.01,2013-01-25 14:18:00,
2013-01-25 15:19:00,29.7,23.4,30.09,SW,225,0.0,0.9,77,0.00,,OVC009,0.00,VWS V14.01,2013-01-25 14:19:00,
2013-01-25 15:20:00,29.7,23.4,30.09,SSW,202,2.5,2.9,77,0.00,,BKN050,0.00,VWS V14.01,2013-01-25 14:20:00,
2013-01-25 15:21:00,29.7,23.4,30.09,South,180,0.9,2.7,77,0.00,,BKN050,0.00,VWS V14.01,2013-01-25 14:21:00,
2013-01-25 15:22:00,29.7,23.4,30.09,West,270,0.0,1.1,77,0.00,,BKN050,0.00,VWS V14.01,2013-01-25 14:22:00,
2013-01-25 15:23:00,29.8,23.5,30.09,West,270,2.2,2.2,77,0.00,,BKN050,0.00,VWS V14.01,2013-01-25 14:23:00,
2013-01-25 15:24:00,29.8,23.5,30.09,South,180,2.7,2.7,77,0.00,,OVC009,0.00,VWS V14.01,2013-01-25 14:24:00,
2013-01-25 15:25:00,29.7,23.4,30.09,SSW,202,2.0,2.7,77,0.00,,BKN050,0.00,VWS V14.01,2013-01-25 14:25:00,
2013-01-25 15:26:00,29.7,23.4,30.09,NE,45,1.6,2.9,77,0.00,,BKN050,0.00,VWS V14.01,2013-01-25 14:26:00,
2013-01-25 15:27:00,29.7,23.4,30.09,SSW,202,2.0,4.3,77,0.00,,BKN050,0.00,VWS V14.01,2013-01-25 14:27:00,
2013-01-25 15:28:00,29.7,23.4,30.09,South,180,2.0,2.2,77,0.00,,BKN050,0.00,VWS V14.01,2013-01-25 14:28:00,
2013-01-25 15:29:00,29.7,23.4,30.09,SSW,202,0.0,2.0,77,0.00,,OVC009,0.00,VWS V14.01,2013-01-25 14:29:00,
2013-01-25 15:30:00,29.7,23.4,30.09,SW,225,2.7,2.7,77,0.00,,BKN050,0.00,VWS V14.01,2013-01-25 14:30:00,
2013-01-25 15:31:00,29.7,23.4,30.09,East,90,1.3,2.7,77,0.00,,BKN050,0.00,VWS V14.01,2013-01-25 14:31:00,
2013-01-25 15:32:00,29.8,23.5,30.09,North,0,1.3,1.3,77,0.00,,BKN050,0.00,VWS V14.01,2013-01-25 14:32:00,
2013-01-25 15:33:00,29.8,23.5,30.09,SE,135,1.6,1.6,77,0.00,,BKN050,0.00,VWS V14.01,2013-01-25 14:33:00,
2013-01-25 15:34:00,29.8,23.5,30.09,WSW,248,0.0,1.6,77,0.00,,OVC009,0.00,VWS V14.01,2013-01-25 14:34:00,
2013-01-25 15:35:00,29.8,23.5,30.09,SSW,202,2.2,2.2,77,0.00,,BKN050,0.00,VWS V14.01,2013-01-25 14:35:00,
2013-01-25 15:36:00,29.8,23.5,30.09,SSW,202,2.0,2.2,77,0.00,,BKN050,0.00,VWS V14.01,2013-01-25 14:36:00,
2013-01-25 15:37:00,29.8,23.5,30.09,East,90,1.3,2.5,77,0.00,,BKN050,0.00,VWS V14.01,2013-01-25 14:37:00,
2013-01-25 15:38:00,29.8,23.5,30.09,West,270,0.9,1.3,77,0.00,,BKN050,0.00,VWS V14.01,2013-01-25 14:38:00,
2013-01-25 15:39:00,30.0,23.7,30.09,West,270,0.0,1.3,77,0.00,,OVC009,0.00,VWS V14.01,2013-01-25 14:39:00,
2013-01-25 15:40:00,30.0,23.7,30.09,SSW,202,0.0,1.6,77,0.00,,BKN050,0.00,VWS V14.01,2013-01-25 14:40:00,
2013-01-25 15:41:00,30.0,23.7,30.09,SSW,202,0.0,0.0,77,0.00,,BKN050,0.00,VWS V14.01,2013-01-25 14:41:00,
2013-01-25 15:42:00,30.0,23.7,30.09,SSW,202,0.0,0.0,77,0.00,,BKN050,0.00,VWS V14.01,2013-01-25 14:42:00,
2013-01-25 15:43:00,30.0,23.7,30.09,SE,135,0.9,2.5,77,0.00,,BKN050,0.00,VWS V14.01,2013-01-25 14:43:00,
2013-01-25 15:44:00,30.0,23.7,30.09,SSE,158,0.0,0.9,77,0.00,,OVC009,0.00,VWS V14.01,2013-01-25 14:44:00,
2013-01-25 15:45:00,30.0,23.7,30.09,SSW,202,1.3,1.3,77,0.00,,BKN050,0.00,VWS V14.01,2013-01-25 14:45:00,
2013-01-25 15:46:00,30.0,23.7,30.09,South,180,2.0,2.0,77,0.00,,BKN050,0.00,VWS V14.01,2013-01-25 14:46:00,
2013-01-25 15:47:00,30.0,23.7,30.09,SE,135,0.0,2.0,77,0.00,,BKN050,0.00,VWS V14.01,2013-01-25 14:47:00,
2013-01-25 15:48:00,30.0,23.7,30.09,WSW,248,1.3,2.9,77,0.00,,BKN050,0.00,VWS V14.01,2013-01-25 14:48:00,
2013-01-25 15:49:00,30.0,23.7,30.06,WSW,248,0.0,1.6,77,0.00,,OVC009,0.00,VWS V14.01,2013-01-25 14:49:00,
2013-01-25 15:50:00,30.0,23.7,30.06,SW,225,0.0,0.9,77,0.00,,BKN050,0.00,VWS V14.01,2013-01-25 14:50:00,
2013-01-25 15:51:00,30.0,23.7,30.06,SW,225,2.7,2.7,77,0.00,,BKN050,0.00,VWS V14.01,2013-01-25 14:51:00,
2013-01-25 15:52:00,30.0,23.7,30.06,South,180,1.3,2.7,77,0.00,,BKN050,0.00,VWS V14.01,2013-01-25 14:52:00,
2013-01-25 15:53:00,30.0,23.7,30.06,SSE,158,2.2,2.2,77,0.00,,BKN050,0.00,VWS V14.01,2013-01-25 14:53:00,
2013-01-25 15:54:00,30.0,23.7,30.06,West,270,2.0,2.2,77,0.00,,BKN050,0.00,VWS V14.01,2013-01-25 14:54:00,
2013-01-25 15:55:00,30.0,23.7,30.06,South,180,3.4,3.4,77,0.00,,OVC009,0.00,VWS V14.01,2013-01-25 14:55:00,
2013-01-25 15:56:00,30.0,23.7,30.06,West,270,1.1,2.0,77,0.00,,BKN050,0.00,VWS V14.01,2013-01-25 14:56:00,
2013-01-25 15:57:00,30.0,23.7,30.06,SSE,158,1.6,2.5,77,0.00,,BKN050,0.00,VWS V14.01,2013-01-25 14:57:00,
2013-01-25 15:58:00,30.0,23.7,30.06,SSE,158,1.3,2.2,77,0.00,,BKN050,0.00,VWS V14.01,2013-01-25 14:58:00,
2013-01-25 15:59:00,30.0,23.7,30.06,SE,135,0.0,2.9,77,0.00,,BKN050,0.00,VWS V14.01,2013-01-25 14:59:00,
2013-01-25 16:00:00,30.0,23.7,30.06,SE,135,1.1,1.1,77,0.00,,OVC009,0.00,VWS V14.01,2013-01-25 15:00:00,
2013-01-25 16:01:00,30.0,23.7,30.06,North,0,0.0,1.1,77,0.00,,BKN050,0.00,VWS V14.01,2013-01-25 15:01:00,
2013-01-25 16:02:00,30.0,23.7,30.06,ESE,112,0.9,0.9,77,0.00,,BKN050,0.00,VWS V14.01,2013-01-25 15:02:00,
2013-01-25 16:03:00,30.0,23.7,30.06,SE,135,2.7,2.7,77,0.00,,BKN050,0.00,VWS V14.01,2013-01-25 15:03:00,
2013-01-25 16:04:00,30.0,23.7,30.06,South,180,2.7,2.7,77,0.00,,BKN050,0.00,VWS V14.01,2013-01-25 15:04:00,
2013-01-25 16:05:00,30.0,23.7,30.06,WNW,292,2.2,2.7,77,0.00,,OVC009,0.00,VWS V14.01,2013-01-25 15:05:00,
2013-01-25 16:06:00,30.0,23.7,30.06,South,180,1.3,2.2,77,0.00,,BKN050,0.00,VWS V14.01,2013-01-25 15:06:00,
2013-01-25 16:07:00,30.0,23.7,30.06,East,90,1.6,2.0,77,0.00,,BKN050,0.00,VWS V14.01,2013-01-25 15:07:00,
2013-01-25 16:08:00,30.0,23.7,30.06,SW,225,0.0,2.0,77,0.00,,BKN050,0.00,VWS V14.01,2013-01-25 15:08:00,
2013-01-25 16:09:00,30.0,23.7,30.06,South,180,2.0,2.0,77,0.00,,BKN050,0.00,VWS V14.01,2013-01-25 15:09:00,
2013-01-25 16:10:00,30.0,23.7,30.06,WSW,248,0.0,0.0,77,0.00,,OVC009,0.00,VWS V14.01,2013-01-25 15:10:00,
2013-01-25 16:11:00,30.2,23.9,30.06,South,180,0.0,0.9,77,0.00,,BKN050,0.00,VWS V14.01,2013-01-25 15:11:00,
2013-01-25 16:12:00,30.2,23.9,30.06,SE,135,0.0,1.6,77,0.00,,BKN050,0.00,VWS V14.01,2013-01-25 15:12:00,
2013-01-25 16:13:00,30.2,23.9,30.06,NNW,338,0.0,1.1,77,0.00,,BKN050,0.00,VWS V14.01,2013-01-25 15:13:00,
2013-01-25 16:14:00,30.2,23.9,30.06,WSW,248,3.4,3.4,77,0.00,,BKN050,0.00,VWS V14.01,2013-01-25 15:14:00,
2013-01-25 16:15:00,30.2,23.9,30.06,South,180,0.9,3.4,77,0.00,,OVC009,0.00,VWS V14.01,2013-01-25 15:15:00,
2013-01-25 16:16:00,30.2,23.9,30.06,NW,315,0.9,3.1,77,0.00,,BKN050,0.00,VWS V14.01,2013-01-25 15:16:00,
2013-01-25 16:17:00,30.2,23.9,30.06,East,90,0.0,0.9,77,0.00,,BKN050,0.00,VWS V14.01,2013-01-25 15:17:00,
2013-01-25 16:18:00,30.2,23.9,30.06,South,180,0.9,0.9,77,0.00,,BKN050,0.00,VWS V14.01,2013-01-25 15:18:00,
2013-01-25 16:19:00,30.2,23.9,30.06,West,270,0.0,2.5,77,0.00,,BKN050,0.00,VWS V14.01,2013-01-25 15:19:00,
2013-01-25 16:20:00,30.0,23.7,30.06,South,180,3.6,3.6,77,0.00,,OVC009,0.00,VWS V14.01,2013-01-25 15:20:00,
2013-01-25 16:21:00,30.0,23.7,30.06,SSW,202,2.9,3.6,77,0.00,,BKN050,0.00,VWS V14.01,2013-01-25 15:21:00,
2013-01-25 16:22:00,30.0,23.7,30.06,WNW,292,1.1,2.9,77,0.00,,BKN050,0.00,VWS V14.01,2013-01-25 15:22:00,
2013-01-25 16:23:00,30.0,23.7,30.06,WSW,248,2.5,2.5,77,0.00,,BKN050,0.00,VWS V14.01,2013-01-25 15:23:00,
2013-01-25 16:24:00,30.0,23.7,30.06,NW,315,0.9,3.6,77,0.00,,BKN050,0.00,VWS V14.01,2013-01-25 15:24:00,
2013-01-25 16:25:00,30.0,23.7,30.06,NW,315,0.9,3.6,77,0.00,,OVC009,0.00,VWS V14.01,2013-01-25 15:25:00,
2013-01-25 16:26:00,30.0,23.7,30.06,South,180,2.9,2.9,77,0.00,,BKN050,0.00,VWS V14.01,2013-01-25 15:26:00,
2013-01-25 16:27:00,30.0,23.7,30.06,South,180,2.9,2.9,77,0.00,,BKN050,0.00,VWS V14.01,2013-01-25 15:27:00,
2013-01-25 16:28:00,29.8,23.5,30.06,WSW,248,2.2,3.1,77,0.00,,BKN050,0.00,VWS V14.01,2013-01-25 15:28:00,
2013-01-25 16:29:00,29.8,23.5,30.06,SW,225,3.4,3.4,77,0.00,,BKN050,0.00,VWS V14.01,2013-01-25 15:29:00,
2013-01-25 16:30:00,30.0,23.7,30.06,West,270,2.0,3.4,77,0.00,,OVC009,0.00,VWS V14.01,2013-01-25 15:30:00,
2013-01-25 16:31:00,30.0,23.7,30.06,SW,225,1.1,2.5,77,0.00,,BKN050,0.00,VWS V14.01,2013-01-25 15:31:00,
2013-01-25 16:32:00,30.0,23.7,30.06,SW,225,1.3,2.7,77,0.00,,BKN050,0.00,VWS V14.01,2013-01-25 15:32:00,
2013-01-25 16:33:00,30.0,23.7,30.06,SSW,202,1.3,1.3,77,0.00,,BKN050,0.00,VWS V14.01,2013-01-25 15:33:00,
2013-01-25 16:34:00,30.0,23.7,30.06,West,270,1.1,1.3,77,0.00,,BKN050,0.00,VWS V14.01,2013-01-25 15:34:00,
2013-01-25 16:35:00,30.0,23.7,30.06,SSE,158,2.7,2.7,77,0.00,,OVC009,0.00,VWS V14.01,2013-01-25 15:35:00,
2013-01-25 16:37:00,30.0,23.7,30.06,South,180,0.0,3.1,77,0.00,,BKN050,0.00,VWS V14.01,2013-01-25 15:37:00,
2013-01-25 16:38:00,30.0,23.7,30.06,SSE,158,5.6,5.6,77,0.00,,BKN050,0.00,VWS V14.01,2013-01-25 15:38:00,
2013-01-25 16:39:00,29.8,23.2,30.06,SSW,202,3.4,5.6,76,0.00,,BKN050,0.00,VWS V14.01,2013-01-25 15:39:00,
2013-01-25 16:40:00,30.0,23.4,30.06,SW,225,1.3,3.4,76,0.00,,OVC009,0.00,VWS V14.01,2013-01-25 15:40:00,
2013-01-25 16:41:00,29.8,23.2,30.06,WSW,248,1.3,3.1,76,0.00,,BKN050,0.00,VWS V14.01,2013-01-25 15:41:00,
2013-01-25 16:42:00,30.0,23.4,30.06,SSW,202,1.1,2.2,76,0.00,,BKN050,0.00,VWS V14.01,2013-01-25 15:42:00,
2013-01-25 16:43:00,30.0,23.4,30.06,South,180,1.3,2.5,76,0.00,,BKN050,0.00,VWS V14.01,2013-01-25 15:43:00,
2013-01-25 16:44:00,30.0,23.7,30.06,South,180,2.2,2.7,77,0.00,,BKN050,0.00,VWS V14.01,2013-01-25 15:44:00,
2013-01-25 16:45:00,30.0,23.7,30.06,West,270,1.6,2.2,77,0.00,,OVC009,0.00,VWS V14.01,2013-01-25 15:45:00,
2013-01-25 16:46:00,30.0,23.7,30.06,West,270,0.0,1.6,77,0.00,,BKN050,0.00,VWS V14.01,2013-01-25 15:46:00,
2013-01-25 16:47:00,30.0,23.7,30.06,SSW,202,1.3,2.0,77,0.00,,BKN050,0.00,VWS V14.01,2013-01-25 15:47:00,
2013-01-25 16:48:00,30.0,23.7,30.06,WSW,248,3.1,3.1,77,0.00,,BKN050,0.00,VWS V14.01,2013-01-25 15:48:00,
2013-01-25 16:49:00,29.8,23.5,30.06,West,270,3.4,3.8,77,0.00,,BKN050,0.00,VWS V14.01,2013-01-25 15:49:00,
2013-01-25 16:50:00,29.8,23.5,30.06,SW,225,1.6,4.9,77,0.00,,OVC010,0.00,VWS V14.01,2013-01-25 15:50:00,
2013-01-25 16:51:00,29.8,23.5,30.06,SSW,202,3.4,4.7,77,0.00,,BKN050,0.00,VWS V14.01,2013-01-25 15:51:00,
2013-01-25 16:52:00,29.8,23.2,30.06,SSE,158,2.0,3.4,76,0.00,,BKN050,0.00,VWS V14.01,2013-01-25 15:52:00,
2013-01-25 16:53:00,29.8,23.2,30.06,West,270,2.2,3.6,76,0.00,,BKN050,0.00,VWS V14.01,2013-01-25 15:53:00,
2013-01-25 16:54:00,29.8,23.2,30.06,SSW,202,0.9,2.2,76,0.00,,BKN050,0.00,VWS V14.01,2013-01-25 15:54:00,
2013-01-25 16:55:00,29.8,23.5,30.06,NW,315,0.9,2.7,77,0.00,,OVC010,0.00,VWS V14.01,2013-01-25 15:55:00,
2013-01-25 16:56:00,29.8,23.5,30.06,WSW,248,0.9,1.1,77,0.00,,BKN050,0.00,VWS V14.01,2013-01-25 15:56:00,
2013-01-25 16:57:00,29.8,23.5,30.06,WSW,248,1.1,1.1,77,0.00,,BKN050,0.00,VWS V14.01,2013-01-25 15:57:00,
2013-01-25 16:58:00,29.8,23.5,30.06,South,180,0.0,1.1,77,0.00,,BKN050,0.00,VWS V14.01,2013-01-25 15:58:00,
2013-01-25 16:59:00,29.8,23.5,30.06,SSW,202,1.3,1.3,77,0.00,,BKN050,0.00,VWS V14.01,2013-01-25 15:59:00,
2013-01-25 17:00:00,29.8,23.5,30.06,WNW,292,0.0,2.7,77,0.00,,OVC010,0.00,VWS V14.01,2013-01-25 16:00:00,
2013-01-25 17:01:00,29.8,23.5,30.06,South,180,0.0,1.1,77,0.00,,BKN050,0.00,VWS V14.01,2013-01-25 16:01:00,
2013-01-25 17:02:00,29.8,23.5,30.06,SSW,202,1.3,1.3,77,0.00,,BKN050,0.00,VWS V14.01,2013-01-25 16:02:00,
2013-01-25 17:03:00,29.8,23.5,30.06,SE,135,0.0,2.7,77,0.00,,BKN050,0.00,VWS V14.01,2013-01-25 16:03:00,
2013-01-25 17:04:00,29.8,23.5,30.06,WNW,292,2.0,2.0,77,0.00,,BKN050,0.00,VWS V14.01,2013-01-25 16:04:00,
2013-01-25 17:05:00,29.8,23.5,30.06,NNW,338,2.0,2.0,77,0.00,,OVC011,0.00,VWS V14.01,2013-01-25 16:05:00,
2013-01-25 17:06:00,29.8,23.5,30.06,NNW,338,1.6,2.0,77,0.00,,BKN050,0.00,VWS V14.01,2013-01-25 16:06:00,
2013-01-25 17:07:00,29.8,23.5,30.06,SSE,158,2.9,2.9,77,0.00,,BKN050,0.00,VWS V14.01,2013-01-25 16:07:00,
2013-01-25 17:08:00,29.8,23.5,30.06,SW,225,1.1,3.4,77,0.00,,BKN050,0.00,VWS V14.01,2013-01-25 16:08:00,
2013-01-25 17:09:00,29.8,23.5,30.06,WSW,248,0.9,1.3,77,0.00,,BKN050,0.00,VWS V14.01,2013-01-25 16:09:00,
2013-01-25 17:10:00,29.8,23.5,30.06,NW,315,1.1,2.7,77,0.00,,BKN050,0.00,VWS V14.01,2013-01-25 16:10:00,
2013-01-25 17:11:00,29.8,23.5,30.06,WNW,292,2.0,2.0,77,0.00,,OVC011,0.00,VWS V14.01,2013-01-25 16:11:00,
2013-01-25 17:12:00,29.8,23.5,30.06,South,180,2.9,2.9,77,0.00,,BKN050,0.00,VWS V14.01,2013-01-25 16:12:00,
2013-01-25 17:13:00,29.8,23.5,30.06,South,180,2.9,2.9,77,0.00,,BKN050,0.00,VWS V14.01,2013-01-25 16:13:00,
2013-01-25 17:14:00,29.8,23.5,30.06,SW,225,2.0,3.1,77,0.00,,BKN050,0.00,VWS V14.01,2013-01-25 16:14:00,
2013-01-25 17:15:00,29.8,23.5,30.06,SW,225,2.0,3.4,77,0.00,,BKN050,0.00,VWS V14.01,2013-01-25 16:15:00,
2013-01-25 17:16:00,29.8,23.5,30.06,SW,225,0.0,2.0,77,0.00,,OVC011,0.00,VWS V14.01,2013-01-25 16:16:00,
2013-01-25 17:17:00,29.8,23.5,30.06,SSE,158,1.3,2.0,77,0.00,,BKN050,0.00,VWS V14.01,2013-01-25 16:17:00,
2013-01-25 17:18:00,29.8,23.5,30.06,SSW,202,0.9,1.3,77,0.00,,BKN050,0.00,VWS V14.01,2013-01-25 16:18:00,
2013-01-25 17:19:00,29.8,23.5,30.06,SSW,202,2.0,3.4,77,0.00,,BKN050,0.00,VWS V14.01,2013-01-25 16:19:00,
2013-01-25 17:20:00,29.8,23.5,30.06,WSW,248,0.0,2.0,77,0.00,,BKN050,0.00,VWS V14.01,2013-01-25 16:20:00,
2013-01-25 17:21:00,29.8,23.5,30.06,SW,225,0.9,0.9,77,0.00,,OVC011,0.00,VWS V14.01,2013-01-25 16:21:00,
2013-01-25 17:22:00,29.8,23.5,30.06,North,0,0.0,0.9,77,0.00,,BKN050,0.00,VWS V14.01,2013-01-25 16:22:00,
2013-01-25 17:23:00,29.8,23.5,30.06,South,180,1.1,1.1,77,0.00,,BKN050,0.00,VWS V14.01,2013-01-25 16:23:00,
2013-01-25 17:24:00,29.8,23.5,30.06,SE,135,2.0,2.0,77,0.00,,BKN050,0.00,VWS V14.01,2013-01-25 16:24:00,
2013-01-25 17:25:00,29.8,23.5,30.06,SW,225,1.1,2.0,77,0.00,,BKN050,0.00,VWS V14.01,2013-01-25 16:25:00,
2013-01-25 17:26:00,29.8,23.5,30.06,NE,45,0.0,1.1,77,0.00,,OVC011,0.00,VWS V14.01,2013-01-25 16:26:00,
2013-01-25 17:27:00,29.8,23.5,30.06,SW,225,2.2,4.3,77,0.00,,BKN050,0.00,VWS V14.01,2013-01-25 16:27:00,
2013-01-25 17:28:00,29.8,23.5,30.06,South,180,3.1,3.1,77,0.00,,BKN050,0.00,VWS V14.01,2013-01-25 16:28:00,
2013-01-25 17:29:00,29.8,23.5,30.06,SSW,202,3.1,3.4,77,0.00,,BKN050,0.00,VWS V14.01,2013-01-25 16:29:00,
2013-01-25 17:30:00,29.7,23.0,30.06,NNW,338,1.1,3.1,76,0.00,,BKN050,0.00,VWS V14.01,2013-01-25 16:30:00,
2013-01-25 17:31:00,29.7,23.0,30.06,WNW,292,1.6,2.9,76,0.00,,OVC011,0.00,VWS V14.01,2013-01-25 16:31:00,
2013-01-25 17:33:00,29.7,23.0,30.06,NW,315,0.0,1.3,76,0.00,,BKN050,0.00,VWS V14.01,2013-01-25 16:33:00,
2013-01-25 17:34:00,29.7,23.0,30.06,WSW,248,2.2,3.1,76,0.00,,BKN050,0.00,VWS V14.01,2013-01-25 16:34:00,
2013-01-25 17:35:00,29.7,23.4,30.06,SE,135,1.6,2.2,77,0.00,,BKN050,0.00,VWS V14.01,2013-01-25 16:35:00,
2013-01-25 17:36:00,29.7,23.4,30.06,WSW,248,2.9,2.9,77,0.00,,OVC011,0.00,VWS V14.01,2013-01-25 16:36:00,
2013-01-25 17:37:00,29.7,23.0,30.06,East,90,0.9,2.2,76,0.00,,BKN050,0.00,VWS V14.01,2013-01-25 16:37:00,
2013-01-25 17:38:00,29.7,23.4,30.06,WNW,292,3.6,3.6,77,0.00,,BKN050,0.00,VWS V14.01,2013-01-25 16:38:00,
2013-01-25 17:39:00,29.7,23.4,30.06,South,180,1.6,3.6,77,0.00,,BKN050,0.00,VWS V14.01,2013-01-25 16:39:00,
2013-01-25 17:40:00,29.7,23.4,30.06,SSW,202,0.9,1.6,77,0.00,,BKN050,0.00,VWS V14.01,2013-01-25 16:40:00,
2013-01-25 17:41:00,29.7,23.4,30.06,West,270,1.1,2.5,77,0.00,,OVC011,0.00,VWS V14.01,2013-01-25 16:41:00,
2013-01-25 17:42:00,29.8,23.5,30.06,SW,225,0.9,0.9,77,0.00,,BKN050,0.00,VWS V14.01,2013-01-25 16:42:00,
2013-01-25 17:43:00,29.8,23.5,30.06,West,270,1.3,1.3,77,0.00,,BKN050,0.00,VWS V14.01,2013-01-25 16:43:00,
2013-01-25 17:44:00,29.7,23.4,30.06,SSW,202,1.1,2.9,77,0.00,,BKN050,0.00,VWS V14.01,2013-01-25 16:44:00,
2013-01-25 17:45:00,29.7,23.4,30.06,South,180,1.6,1.6,77,0.00,,BKN050,0.00,VWS V14.01,2013-01-25 16:45:00,
2013-01-25 17:46:00,29.7,23.4,30.06,SW,225,0.0,1.6,77,0.00,,OVC011,0.00,VWS V14.01,2013-01-25 16:46:00,
2013-01-25 17:47:00,29.8,23.5,30.06,NE,45,2.2,2.2,77,0.00,,BKN050,0.00,VWS V14.01,2013-01-25 16:47:00,
2013-01-25 17:48:00,29.7,23.4,30.06,WNW,292,2.7,2.7,77,0.00,,BKN050,0.00,VWS V14.01,2013-01-25 16:48:00,
2013-01-25 17:49:00,29.7,23.4,30.03,West,270,1.1,3.1,77,0.00,,BKN050,0.00,VWS V14.01,2013-01-25 16:49:00,
2013-01-25 17:50:00,29.7,23.4,30.03,West,270,0.0,1.1,77,0.00,,BKN050,0.00,VWS V14.01,2013-01-25 16:50:00,
2013-01-25 17:51:00,29.8,23.5,30.03,WSW,248,0.0,0.0,77,0.00,,OVC011,0.00,VWS V14.01,2013-01-25 16:51:00,
2013-01-25 17:52:00,29.8,23.5,30.03,SSW,202,1.1,1.1,77,0.00,,BKN050,0.00,VWS V14.01,2013-01-25 16:52:00,
2013-01-25 17:53:00,29.8,23.5,30.03,East,90,1.6,2.5,77,0.00,,BKN050,0.00,VWS V14.01,2013-01-25 16:53:00,
2013-01-25 17:54:00,29.7,23.4,30.03,WNW,292,2.0,3.8,77,0.00,,BKN050,0.00,VWS V14.01,2013-01-25 16:54:00,
2013-01-25 17:55:00,29.7,23.4,30.03,SE,135,1.1,2.5,77,0.00,,BKN050,0.00,VWS V14.01,2013-01-25 16:55:00,
2013-01-25 17:56:00,29.7,23.4,30.03,WSW,248,2.0,2.0,77,0.00,,OVC011,0.00,VWS V14.01,2013-01-25 16:56:00,
2013-01-25 17:57:00,29.7,23.4,30.03,ENE,68,2.5,2.5,77,0.00,,BKN050,0.00,VWS V14.01,2013-01-25 16:57:00,
2013-01-25 17:58:00,29.7,23.4,30.03,East,90,2.7,2.7,77,0.00,,BKN050,0.00,VWS V14.01,2013-01-25 16:58:00,
2013-01-25 17:59:00,29.7,23.4,30.03,SW,225,1.1,3.6,77,0.00,,BKN050,0.00,VWS V14.01,2013-01-25 16:59:00,
2013-01-25 18:00:00,29.7,23.4,30.03,West,270,2.9,3.8,77,0.00,,BKN050,0.00,VWS V14.01,2013-01-25 17:00:00,
2013-01-25 18:01:00,29.7,23.4,30.03,South,180,1.1,2.9,77,0.00,,OVC012,0.00,VWS V14.01,2013-01-25 17:01:00,
2013-01-25 18:02:00,29.7,23.4,30.03,South,180,2.7,4.0,77,0.00,,BKN050,0.00,VWS V14.01,2013-01-25 17:02:00,
2013-01-25 18:03:00,29.7,23.4,30.03,SW,225,2.9,2.9,77,0.00,,BKN050,0.00,VWS V14.01,2013-01-25 17:03:00,
2013-01-25 18:04:00,29.5,23.2,30.03,NE,45,1.6,2.9,77,0.00,,BKN050,0.00,VWS V14.01,2013-01-25 17:04:00,
2013-01-25 18:05:00,29.7,23.4,30.03,West,270,0.9,2.0,77,0.00,,BKN050,0.00,VWS V14.01,2013-01-25 17:05:00,
2013-01-25 18:06:00,29.7,23.4,30.03,SSW,202,3.4,3.4,77,0.00,,OVC012,0.00,VWS V14.01,2013-01-25 17:06:00,
2013-01-25 18:07:00,29.5,23.2,30.03,NW,315,2.2,3.4,77,0.00,,BKN050,0.00,VWS V14.01,2013-01-25 17:07:00,
2013-01-25 18:08:00,29.7,23.4,30.03,WNW,292,2.2,2.5,77,0.00,,BKN050,0.00,VWS V14.01,2013-01-25 17:08:00,
2013-01-25 18:09:00,29.5,23.2,30.03,SW,225,0.9,2.2,77,0.00,,BKN050,0.00,VWS V14.01,2013-01-25 17:09:00,
2013-01-25 18:10:00,29.7,23.4,30.03,SE,135,0.0,2.7,77,0.00,,BKN050,0.00,VWS V14.01,2013-01-25 17:10:00,
2013-01-25 18:11:00,29.7,23.4,30.03,SW,225,2.2,2.2,77,0.00,,OVC012,0.00,VWS V14.01,2013-01-25 17:11:00,
2013-01-25 18:13:00,29.5,23.2,30.03,ENE,68,2.2,3.8,77,0.00,,BKN050,0.00,VWS V14.01,2013-01-25 17:13:00,
2013-01-25 18:14:00,29.5,23.2,30.03,East,90,2.9,2.9,77,0.00,,BKN050,0.00,VWS V14.01,2013-01-25 17:14:00,
2013-01-25 18:15:00,29.5,23.2,30.03,South,180,5.4,5.4,77,0.00,,BKN050,0.00,VWS V14.01,2013-01-25 17:15:00,
2013-01-25 18:16:00,29.5,23.2,30.03,ESE,112,1.1,1.1,77,0.00,,OVC012,0.00,VWS V14.01,2013-01-25 17:16:00,
2013-01-25 18:17:00,29.5,23.2,30.03,SSW,202,0.0,1.1,77,0.00,,BKN050,0.00,VWS V14.01,2013-01-25 17:17:00,
2013-01-25 18:18:00,29.5,23.2,30.03,South,180,0.0,0.0,77,0.00,,BKN050,0.00,VWS V14.01,2013-01-25 17:18:00,
2013-01-25 18:19:00,29.5,23.2,30.00,SSW,202,3.6,3.6,77,0.00,,BKN050,0.00,VWS V14.01,2013-01-25 17:19:00,
2013-01-25 18:20:00,29.5,23.2,30.00,NW,315,0.9,3.6,77,0.00,,BKN050,0.00,VWS V14.01,2013-01-25 17:20:00,
2013-01-25 18:21:00,29.5,23.2,30.00,SSW,202,3.6,3.6,77,0.00,,OVC012,0.00,VWS V14.01,2013-01-25 17:21:00,
2013-01-25 18:22:00,29.5,23.2,30.00,SSW,202,1.6,3.6,77,0.00,,BKN050,0.00,VWS V14.01,2013-01-25 17:22:00,
2013-01-25 18:23:00,29.5,23.2,30.00,SW,225,2.7,3.1,77,0.00,,BKN050,0.00,VWS V14.01,2013-01-25 17:23:00,
2013-01-25 18:24:00,29.5,23.2,30.00,West,270,0.9,3.4,77,0.00,,BKN050,0.00,VWS V14.01,2013-01-25 17:24:00,
2013-01-25 18:25:00,29.5,23.2,30.00,South,180,0.9,2.2,77,0.00,,BKN050,0.00,VWS V14.01,2013-01-25 17:25:00,
2013-01-25 18:26:00,29.5,23.2,30.00,SW,225,0.0,3.1,77,0.00,,OVC012,0.00,VWS V14.01,2013-01-25 17:26:00,
2013-01-25 18:27:00,29.5,23.2,30.00,SSW,202,2.0,3.1,77,0.00,,BKN050,0.00,VWS V14.01,2013-01-25 17:27:00,
2013-01-25 18:28:00,29.5,23.2,30.00,South,180,2.2,2.2,77,0.00,,BKN050,0.00,VWS V14.01,2013-01-25 17:28:00,
2013-01-25 18:29:00,29.7,23.4,30.00,WNW,292,1.6,2.9,77,0.00,,BKN050,0.00,VWS V14.01,2013-01-25 17:29:00,
2013-01-25 18:30:00,29.5,23.2,30.00,West,270,1.1,1.6,77,0.00,,BKN050,0.00,VWS V14.01,2013-01-25 17:30:00,
2013-01-25 18:31:00,29.7,23.4,30.00,NW,315,0.0,2.5,77,0.00,,BKN050,0.00,VWS V14.01,2013-01-25 17:31:00,
2013-01-25 18:32:00,29.7,23.4,30.00,WNW,292,0.0,0.9,77,0.00,,OVC012,0.00,VWS V14.01,2013-01-25 17:32:00,
2013-01-25 18:34:00,29.7,23.4,30.00,SW,225,0.9,2.0,77,0.00,,BKN050,0.00,VWS V14.01,2013-01-25 17:34:00,
2013-01-25 18:35:00,29.7,23.4,30.00,South,180,2.0,2.0,77,0.00,,BKN050,0.00,VWS V14.01,2013-01-25 17:35:00,
2013-01-25 18:36:00,29.7,23.4,30.00,SSE,158,0.9,2.0,77,0.00,,BKN050,0.00,VWS V14.01,2013-01-25 17:36:00,
2013-01-25 18:37:00,29.7,23.4,30.00,SE,135,2.0,2.0,77,0.00,,OVC012,0.00,VWS V14.01,2013-01-25 17:37:00,
2013-01-25 18:38:00,29.7,23.4,30.00,South,180,0.9,2.2,77,0.00,,BKN050,0.00,VWS V14.01,2013-01-25 17:38:00,
2013-01-25 18:39:00,29.7,23.4,30.00,South,180,0.0,2.2,77,0.00,,BKN050,0.00,VWS V14.01,2013-01-25 17:39:00,
2013-01-25 18:40:00,29.7,23.4,30.00,SSW,202,0.0,0.9,77,0.00,,BKN050,0.00,VWS V14.01,2013-01-25 17:40:00,
2013-01-25 18:41:00,29.7,23.4,30.00,South,180,0.0,1.6,77,0.00,,BKN050,0.00,VWS V14.01,2013-01-25 17:41:00,
2013-01-25 18:42:00,29.7,23.4,30.00,SE,135,0.0,1.6,77,0.00,,OVC012,0.00,VWS V14.01,2013-01-25 17:42:00,
2013-01-25 18:43:00,29.7,23.4,30.00,South,180,1.1,1.1,77,0.00,,BKN050,0.00,VWS V14.01,2013-01-25 17:43:00,
2013-01-25 18:44:00,29.7,23.4,30.00,SW,225,0.0,1.3,77,0.00,,BKN050,0.00,VWS V14.01,2013-01-25 17:44:00,
2013-01-25 18:45:00,29.7,23.4,30.00,West,270,0.0,0.0,77,0.00,,BKN050,0.00,VWS V14.01,2013-01-25 17:45:00,
2013-01-25 18:46:00,29.7,23.4,30.00,SE,135,1.3,2.5,77,0.00,,BKN050,0.00,VWS V14.01,2013-01-25 17:46:00,
2013-01-25 18:47:00,29.7,23.4,30.00,SSW,202,1.3,1.3,77,0.00,,OVC012,0.00,VWS V14.01,2013-01-25 17:47:00,
2013-01-25 18:48:00,29.7,23.7,30.00,SSE,158,2.0,2.0,78,0.00,,BKN050,0.00,VWS V14.01,2013-01-25 17:48:00,
2013-01-25 18:49:00,29.7,23.4,30.03,West,270,3.4,3.4,77,0.00,,BKN050,0.00,VWS V14.01,2013-01-25 17:49:00,
2013-01-25 18:50:00,29.7,23.4,30.03,West,270,1.3,3.4,77,0.00,,BKN050,0.00,VWS V14.01,2013-01-25 17:50:00,
2013-01-25 18:51:00,29.7,23.4,30.03,WSW,248,1.3,3.1,77,0.00,,BKN050,0.00,VWS V14.01,2013-01-25 17:51:00,
2013-01-25 18:52:00,29.7,23.4,30.03,WSW,248,0.0,1.3,77,0.00,,OVC012,0.00,VWS V14.01,2013-01-25 17:52:00,
2013-01-25 18:53:00,29.7,23.4,30.03,SSE,158,2.2,2.2,77,0.00,,BKN050,0.00,VWS V14.01,2013-01-25 17:53:00,
2013-01-25 18:54:00,29.7,23.4,30.03,SSE,158,1.3,2.2,77,0.00,,BKN050,0.00,VWS V14.01,2013-01-25 17:54:00,
2013-01-25 18:55:00,29.7,23.4,30.03,South,180,0.0,1.3,77,0.00,,BKN050,0.00,VWS V14.01,2013-01-25 17:55:00,
2013-01-25 18:56:00,29.7,23.4,30.03,South,180,0.0,0.9,77,0.00,,BKN050,0.00,VWS V14.01,2013-01-25 17:56:00,
2013-01-25 18:57:00,29.7,23.4,30.03,West,270,0.9,0.9,77,0.00,,OVC012,0.00,VWS V14.01,2013-01-25 17:57:00,
2013-01-25 18:58:00,29.7,23.4,30.03,East,90,0.9,2.2,77,0.00,,BKN050,0.00,VWS V14.01,2013-01-25 17:58:00,
2013-01-25 18:59:00,29.7,23.4,30.03,ENE,68,2.5,2.5,77,0.00,,BKN050,0.00,VWS V14.01,2013-01-25 17:59:00,
2013-01-25 19:00:00,29.7,23.4,30.03,South,180,3.8,3.8,77,0.00,,BKN050,0.00,VWS V14.01,2013-01-25 18:00:00,
2013-01-25 19:01:00,29.7,23.4,30.03,SSE,158,1.6,3.8,77,0.00,,BKN050,0.00,VWS V14.01,2013-01-25 18:01:00,
2013-01-25 19:02:00,29.7,23.4,30.03,South,180,2.9,2.9,77,0.00,,OVC012,0.00,VWS V14.01,2013-01-25 18:02:00,
2013-01-25 19:03:00,29.7,23.4,30.03,SE,135,4.0,4.0,77,0.00,,BKN050,0.00,VWS V14.01,2013-01-25 18:03:00,
2013-01-25 19:04:00,29.7,23.4,30.03,ESE,112,2.7,4.0,77,0.00,,BKN050,0.00,VWS V14.01,2013-01-25 18:04:00,
2013-01-25 19:05:00,29.7,23.4,30.03,South,180,3.4,3.6,77,0.00,,BKN050,0.00,VWS V14.01,2013-01-25 18:05:00,
2013-01-25 19:06:00,29.5,23.2,30.03,WNW,292,0.9,4.3,77,0.00,,BKN050,0.00,VWS V14.01,2013-01-25 18:06:00,
2013-01-25 19:07:00,29.5,23.2,30.03,SSW,202,2.5,2.5,77,0.00,,OVC012,0.00,VWS V14.01,2013-01-25 18:07:00,
2013-01-25 19:08:00,29.5,23.2,30.03,SW,225,0.9,2.9,77,0.00,,BKN050,0.00,VWS V14.01,2013-01-25 18:08:00,
2013-01-25 19:09:00,29.5,23.2,30.03,South,180,0.9,3.1,77,0.00,,BKN050,0.00,VWS V14.01,2013-01-25 18:09:00,
2013-01-25 19:10:00,29.5,23.2,30.03,SE,135,2.2,2.2,77,0.00,,BKN050,0.00,VWS V14.01,2013-01-25 18:10:00,
2013-01-25 19:11:00,29.5,23.2,30.03,SSW,202,2.5,2.5,77,0.00,,BKN050,0.00,VWS V14.01,2013-01-25 18:11:00,
2013-01-25 19:12:00,29.5,23.2,30.03,WSW,248,2.5,2.7,77,0.00,,OVC012,0.00,VWS V14.01,2013-01-25 18:12:00,
2013-01-25 19:13:00,29.5,23.2,30.03,South,180,1.1,2.9,77,0.00,,BKN050,0.00,VWS V14.01,2013-01-25 18:13:00,
2013-01-25 19:14:00,29.5,23.2,30.03,SW,225,2.2,2.2,77,0.00,,BKN050,0.00,VWS V14.01,2013-01-25 18:14:00,
2013-01-25 19:15:00,29.5,23.2,30.03,SE,135,2.7,3.8,77,0.00,,BKN050,0.00,VWS V14.01,2013-01-25 18:15:00,
2013-01-25 19:16:00,29.5,22.9,30.03,South,180,3.1,3.1,76,0.00,,BKN050,0.00,VWS V14.01,2013-01-25 18:16:00,
2013-01-25 19:17:00,29.5,22.9,30.03,South,180,0.9,3.1,76,0.00,,OVC012,0.00,VWS V14.01,2013-01-25 18:17:00,
2013-01-25 19:18:00,29.5,22.9,30.03,SW,225,1.6,1.6,76,0.00,,BKN050,0.00,VWS V14.01,2013-01-25 18:18:00,
2013-01-25 19:19:00,29.5,22.9,30.03,SW,225,0.9,1.6,76,0.00,,BKN050,0.00,VWS V14.01,2013-01-25 18:19:00,
2013-01-25 19:20:00,29.5,22.9,30.03,West,270,2.0,2.5,76,0.00,,BKN050,0.00,VWS V14.01,2013-01-25 18:20:00,
2013-01-25 19:21:00,29.5,22.9,30.03,SW,225,2.0,2.0,76,0.00,,BKN050,0.00,VWS V14.01,2013-01-25 18:21:00,
2013-01-25 19:22:00,29.5,22.9,30.03,West,270,2.7,2.7,76,0.00,,OVC012,0.00,VWS V14.01,2013-01-25 18:22:00,
2013-01-25 19:23:00,29.5,22.9,30.03,West,270,2.7,2.7,76,0.00,,BKN050,0.00,VWS V14.01,2013-01-25 18:23:00,
2013-01-25 19:24:00,29.5,22.9,30.03,West,270,2.7,2.7,76,0.00,,BKN050,0.00,VWS V14.01,2013-01-25 18:24:00,
2013-01-25 19:25:00,29.5,22.9,30.03,WSW,248,2.0,2.7,76,0.00,,BKN050,0.00,VWS V14.01,2013-01-25 18:25:00,
2013-01-25 19:26:00,29.5,22.9,30.03,NNE,22,2.5,2.5,76,0.00,,BKN050,0.00,VWS V14.01,2013-01-25 18:26:00,
2013-01-25 19:27:00,29.5,22.9,30.03,WNW,292,1.6,2.5,76,0.00,,OVC012,0.00,VWS V14.01,2013-01-25 18:27:00,
2013-01-25 19:28:00,29.5,22.9,30.03,East,90,2.9,4.0,76,0.00,,BKN050,0.00,VWS V14.01,2013-01-25 18:28:00,
2013-01-25 19:29:00,29.5,22.9,30.03,SW,225,1.3,2.9,76,0.00,,BKN050,0.00,VWS V14.01,2013-01-25 18:29:00,
2013-01-25 19:30:00,29.5,23.2,30.03,West,270,0.9,1.3,77,0.00,,BKN050,0.00,VWS V14.01,2013-01-25 18:30:00,
2013-01-25 19:31:00,29.5,23.2,30.03,ESE,112,2.7,2.7,77,0.00,,BKN050,0.00,VWS V14.01,2013-01-25 18:31:00,
2013-01-25 19:32:00,29.5,22.9,30.03,SSW,202,2.2,2.7,76,0.00,,OVC012,0.00,VWS V14.01,2013-01-25 18:32:00,
2013-01-25 19:33:00,29.5,23.2,30.03,SE,135,2.0,2.2,77,0.00,,BKN050,0.00,VWS V14.01,2013-01-25 18:33:00,
2013-01-25 19:34:00,29.5,23.2,30.00,SE,135,2.0,2.0,77,0.00,,BKN050,0.00,VWS V14.01,2013-01-25 18:34:00,
2013-01-25 19:35:00,29.5,23.2,30.00,SW,225,0.0,2.0,77,0.00,,BKN050,0.00,VWS V14.01,2013-01-25 18:35:00,
2013-01-25 19:36:00,29.5,23.2,30.00,WSW,248,2.7,2.7,77,0.00,,BKN050,0.00,VWS V14.01,2013-01-25 18:36:00,
2013-01-25 19:37:00,29.5,23.2,30.00,South,180,0.0,1.1,77,0.00,,OVC012,0.00,VWS V14.01,2013-01-25 18:37:00,
2013-01-25 19:38:00,29.5,23.2,30.00,SSW,202,0.0,1.1,77,0.00,,BKN050,0.00,VWS V14.01,2013-01-25 18:38:00,
2013-01-25 19:39:00,29.5,23.2,30.00,North,0,0.0,0.0,77,0.00,,BKN050,0.00,VWS V14.01,2013-01-25 18:39:00,
2013-01-25 19:40:00,29.5,23.2,30.00,WSW,248,2.2,2.2,77,0.00,,BKN050,0.00,VWS V14.01,2013-01-25 18:40:00,
2013-01-25 19:41:00,29.5,23.2,30.00,WSW,248,2.2,2.2,77,0.00,,BKN050,0.00,VWS V14.01,2013-01-25 18:41:00,
2013-01-25 19:42:00,29.5,23.2,30.00,SW,225,3.1,3.1,77,0.00,,OVC012,0.00,VWS V14.01,2013-01-25 18:42:00,
2013-01-25 19:44:00,29.5,23.2,30.00,SE,135,1.3,3.1,77,0.00,,BKN050,0.00,VWS V14.01,2013-01-25 18:44:00,
2013-01-25 19:45:00,29.5,23.2,30.00,SE,135,0.9,1.6,77,0.00,,BKN050,0.00,VWS V14.01,2013-01-25 18:45:00,
2013-01-25 19:46:00,29.5,23.2,30.00,East,90,2.0,2.0,77,0.00,,BKN050,0.00,VWS V14.01,2013-01-25 18:46:00,
2013-01-25 19:47:00,29.5,23.2,30.00,South,180,2.0,2.0,77,0.00,,OVC012,0.00,VWS V14.01,2013-01-25 18:47:00,
2013-01-25 19:48:00,29.5,23.2,30.00,South,180,3.6,3.6,77,0.00,,BKN050,0.00,VWS V14.01,2013-01-25 18:48:00,
2013-01-25 19:49:00,29.5,23.2,30.00,South,180,1.3,3.6,77,0.00,,BKN050,0.00,VWS V14.01,2013-01-25 18:49:00,
2013-01-25 19:50:00,29.5,23.2,30.00,SSE,158,0.9,1.3,77,0.00,,BKN050,0.00,VWS V14.01,2013-01-25 18:50:00,
2013-01-25 19:51:00,29.5,23.2,30.00,West,270,4.7,4.7,77,0.00,,BKN050,0.00,VWS V14.01,2013-01-25 18:51:00,
2013-01-25 19:52:00,29.5,23.2,30.00,SW,225,1.3,4.7,77,0.00,,BKN050,0.00,VWS V14.01,2013-01-25 18:52:00,
2013-01-25 19:53:00,29.5,23.2,30.00,South,180,2.2,2.9,77,0.00,,OVC012,0.00,VWS V14.01,2013-01-25 18:53:00,
2013-01-25 19:54:00,29.5,23.2,30.00,SSE,158,2.0,3.1,77,0.00,,BKN050,0.00,VWS V14.01,2013-01-25 18:54:00,
2013-01-25 19:55:00,29.5,23.2,30.00,SSW,202,3.1,3.1,77,0.00,,BKN050,0.00,VWS V14.01,2013-01-25 18:55:00,
2013-01-25 19:56:00,29.5,23.2,30.00,SSW,202,0.0,4.0,77,0.00,,BKN050,0.00,VWS V14.01,2013-01-25 18:56:00,
2013-01-25 19:57:00,29.5,23.2,30.00,SSW,202,1.3,3.6,77,0.00,,BKN050,0.00,VWS V14.01,2013-01-25 18:57:00,
2013-01-25 19:58:00,29.5,23.2,30.00,SSW,202,1.3,1.3,77,0.00,,OVC012,0.00,VWS V14.01,2013-01-25 18:58:00,
2013-01-25 19:59:00,29.5,23.2,30.00,WSW,248,1.6,3.1,77,0.00,,BKN050,0.00,VWS V14.01,2013-01-25 18:59:00,
2013-01-25 20:00:00,29.5,23.2,30.00,West,270,2.9,3.1,77,0.00,,BKN050,0.00,VWS V14.01,2013-01-25 19:00:00,
2013-01-25 20:01:00,29.5,23.2,30.00,SSE,158,2.5,2.9,77,0.00,,BKN050,0.00,VWS V14.01,2013-01-25 19:01:00,
2013-01-25 20:02:00,29.5,23.2,30.00,SSW,202,3.4,3.4,77,0.00,,BKN050,0.00,VWS V14.01,2013-01-25 19:02:00,
2013-01-25 20:03:00,29.3,23.0,30.00,South,180,3.4,3.4,77,0.00,,OVC012,0.00,VWS V14.01,2013-01-25 19:03:00,
2013-01-25 20:04:00,29.3,23.0,30.00,WSW,248,2.2,3.6,77,0.00,,BKN050,0.00,VWS V14.01,2013-01-25 19:04:00,
2013-01-25 20:05:00,29.3,23.0,30.00,SSW,202,1.3,2.5,77,0.00,,BKN050,0.00,VWS V14.01,2013-01-25 19:05:00,
2013-01-25 20:06:00,29.3,22.7,30.00,NE,45,2.7,5.4,76,0.00,,BKN050,0.00,VWS V14.01,2013-01-25 19:06:00,
2013-01-25 20:07:00,29.3,22.7,30.00,WSW,248,2.7,4.9,76,0.00,,BKN050,0.00,VWS V14.01,2013-01-25 19:07:00,
2013-01-25 20:08:00,29.3,22.7,30.00,South,180,2.5,2.7,76,0.00,,OVC012,0.00,VWS V14.01,2013-01-25 19:08:00,
2013-01-25 20:09:00,29.3,22.7,30.00,East,90,3.6,4.9,76,0.00,,BKN050,0.00,VWS V14.01,2013-01-25 19:09:00,
2013-01-25 20:10:00,29.3,22.7,30.00,SW,225,3.1,3.6,76,0.00,,BKN050,0.00,VWS V14.01,2013-01-25 19:10:00,
2013-01-25 20:11:00,29.3,23.0,30.00,SW,225,2.9,3.6,77,0.00,,BKN050,0.00,VWS V14.01,2013-01-25 19:11:00,
2013-01-25 20:12:00,29.3,23.0,30.00,WSW,248,2.5,3.4,77,0.00,,BKN050,0.00,VWS V14.01,2013-01-25 19:12:00,
2013-01-25 20:13:00,29.3,23.0,30.00,SE,135,2.2,3.6,77,0.00,,OVC012,0.00,VWS V14.01,2013-01-25 19:13:00,
2013-01-25 20:14:00,29.3,23.0,30.00,West,270,2.0,3.8,77,0.00,,BKN050,0.00,VWS V14.01,2013-01-25 19:14:00,
2013-01-25 20:15:00,29.3,23.0,30.00,ENE,68,2.0,3.4,77,0.00,,BKN050,0.00,VWS V14.01,2013-01-25 19:15:00,
2013-01-25 20:16:00,29.3,23.0,30.00,WSW,248,4.7,4.7,77,0.00,,BKN050,0.00,VWS V14.01,2013-01-25 19:16:00,
2013-01-25 20:17:00,29.3,23.0,30.00,West,270,1.1,4.7,77,0.00,,BKN050,0.00,VWS V14.01,2013-01-25 19:17:00,
2013-01-25 20:18:00,29.3,23.0,30.00,NW,315,0.9,3.1,77,0.00,,OVC012,0.00,VWS V14.01,2013-01-25 19:18:00,
2013-01-25 20:19:00,29.3,23.0,30.00,SSE,158,2.5,2.5,77,0.00,,BKN050,0.00,VWS V14.01,2013-01-25 19:19:00,
2013-01-25 20:20:00,29.3,23.0,29.97,South,180,2.0,3.1,77,0.00,,BKN050,0.00,VWS V14.01,2013-01-25 19:20:00,
2013-01-25 20:21:00,29.3,23.0,29.97,South,180,2.2,2.2,77,0.00,,BKN050,0.00,VWS V14.01,2013-01-25 19:21:00,
2013-01-25 20:22:00,29.1,22.8,29.97,NNW,338,1.1,6.0,77,0.00,,BKN050,0.00,VWS V14.01,2013-01-25 19:22:00,
2013-01-25 20:23:00,29.3,23.0,29.97,NW,315,1.1,1.1,77,0.00,,OVC012,0.00,VWS V14.01,2013-01-25 19:23:00,
2013-01-25 20:24:00,29.3,23.0,29.97,West,270,1.3,2.2,77,0.00,,BKN050,0.00,VWS V14.01,2013-01-25 19:24:00,
2013-01-25 20:25:00,29.3,23.0,29.97,South,180,3.4,4.5,77,0.00,,BKN050,0.00,VWS V14.01,2013-01-25 19:25:00,
2013-01-25 20:26:00,29.1,22.8,29.97,NNE,22,0.9,3.4,77,0.00,,BKN050,0.00,VWS V14.01,2013-01-25 19:26:00,
2013-01-25 20:27:00,29.3,23.0,29.97,West,270,0.9,1.1,77,0.00,,BKN050,0.00,VWS V14.01,2013-01-25 19:27:00,
2013-01-25 20:28:00,29.1,22.8,29.97,WNW,292,2.5,2.5,77,0.00,,OVC012,0.00,VWS V14.01,2013-01-25 19:28:00,
2013-01-25 20:29:00,29.1,22.8,29.97,ESE,112,0.9,2.7,77,0.00,,BKN050,0.00,VWS V14.01,2013-01-25 19:29:00,
2013-01-25 20:30:00,29.3,23.3,29.97,NW,315,2.0,2.5,78,0.00,,BKN050,0.00,VWS V14.01,2013-01-25 19:30:00,
2013-01-25 20:31:00,29.1,23.1,29.97,South,180,2.0,4.9,78,0.00,,BKN050,0.00,VWS V14.01,2013-01-25 19:31:00,
2013-01-25 20:32:00,29.1,23.1,29.97,SW,225,1.1,3.4,78,0.00,,BKN050,0.00,VWS V14.01,2013-01-25 19:32:00,
2013-01-25 20:33:00,29.1,23.1,29.97,SSW,202,1.1,2.7,78,0.00,,OVC012,0.00,VWS V14.01,2013-01-25 19:33:00,
2013-01-25 20:34:00,29.1,23.1,29.97,SW,225,2.5,2.5,78,0.00,,BKN050,0.00,VWS V14.01,2013-01-25 19:34:00,
2013-01-25 20:35:00,29.1,23.1,29.97,SW,225,1.1,2.5,78,0.00,,BKN050,0.00,VWS V14.01,2013-01-25 19:35:00,
2013-01-25 20:36:00,29.3,23.3,29.97,WSW,248,0.9,1.3,78,0.00,,BKN050,0.00,VWS V14.01,2013-01-25 19:36:00,
2013-01-25 20:37:00,29.3,23.3,29.97,North,0,0.0,2.5,78,0.00,,BKN050,0.00,VWS V14.01,2013-01-25 19:37:00,
2013-01-25 20:38:00,29.3,23.3,29.97,SE,135,0.9,0.9,78,0.00,,OVC012,0.00,VWS V14.01,2013-01-25 19:38:00,
2013-01-25 20:39:00,29.3,23.3,29.97,SSE,158,3.4,3.8,78,0.00,,BKN050,0.00,VWS V14.01,2013-01-25 19:39:00,
2013-01-25 20:40:00,29.1,23.1,29.97,South,180,1.3,3.4,78,0.00,,BKN050,0.00,VWS V14.01,2013-01-25 19:40:00,
2013-01-25 20:41:00,29.1,23.1,29.97,South,180,1.3,1.3,78,0.00,,BKN050,0.00,VWS V14.01,2013-01-25 19:41:00,
2013-01-25 20:42:00,29.1,23.1,29.97,SW,225,1.3,3.4,78,0.00,,BKN050,0.00,VWS V14.01,2013-01-25 19:42:00,
2013-01-25 20:43:00,29.1,23.1,29.97,WSW,248,1.6,1.6,78,0.00,,OVC012,0.00,VWS V14.01,2013-01-25 19:43:00,
2013-01-25 20:44:00,29.1,23.1,29.97,East,90,0.9,1.6,78,0.00,,BKN050,0.00,VWS V14.01,2013-01-25 19:44:00,
2013-01-25 20:45:00,29.1,23.1,29.97,SSW,202,1.1,1.3,78,0.00,,BKN050,0.00,VWS V14.01,2013-01-25 19:45:00,
2013-01-25 20:46:00,29.3,23.3,29.97,SW,225,2.7,2.7,78,0.00,,BKN050,0.00,VWS V14.01,2013-01-25 19:46:00,
2013-01-25 20:47:00,29.3,23.3,29.97,SSW,202,2.2,2.7,78,0.00,,BKN050,0.00,VWS V14.01,2013-01-25 19:47:00,
2013-01-25 20:48:00,29.3,23.3,29.97,North,0,1.6,2.2,78,0.00,,OVC012,0.00,VWS V14.01,2013-01-25 19:48:00,
2013-01-25 20:49:00,29.1,23.1,29.97,NE,45,0.9,2.2,78,0.00,,BKN050,0.00,VWS V14.01,2013-01-25 19:49:00,
2013-01-25 20:50:00,29.3,23.3,29.97,SSW,202,3.4,3.4,78,0.00,,BKN050,0.00,VWS V14.01,2013-01-25 19:50:00,
2013-01-25 20:51:00,29.1,23.1,29.97,East,90,0.0,3.4,78,0.00,,BKN050,0.00,VWS V14.01,2013-01-25 19:51:00,
2013-01-25 20:52:00,29.3,23.3,29.97,West,270,1.1,1.1,78,0.00,,BKN050,0.00,VWS V14.01,2013-01-25 19:52:00,
2013-01-25 20:53:00,29.3,23.3,29.97,SSW,202,0.0,1.1,78,0.00,,OVC012,0.00,VWS V14.01,2013-01-25 19:53:00,
2013-01-25 20:54:00,29.3,23.3,29.97,NNW,338,1.6,5.6,78,0.00,,BKN050,0.00,VWS V14.01,2013-01-25 19:54:00,
2013-01-25 20:55:00,29.3,23.3,29.97,NW,315,1.3,2.2,78,0.00,,BKN050,0.00,VWS V14.01,2013-01-25 19:55:00,
2013-01-25 20:56:00,29.3,23.3,29.97,SSE,158,1.3,1.6,78,0.00,,BKN050,0.00,VWS V14.01,2013-01-25 19:56:00,
2013-01-25 20:57:00,29.1,23.1,29.97,SSW,202,1.1,1.3,78,0.00,,BKN050,0.00,VWS V14.01,2013-01-25 19:57:00,
2013-01-25 20:58:00,29.3,23.3,29.97,East,90,1.3,1.3,78,0.00,,OVC012,0.00,VWS V14.01,2013-01-25 19:58:00,
2013-01-25 20:59:00,29.3,23.3,29.97,WSW,248,2.7,3.1,78,0.00,,BKN050,0.00,VWS V14.01,2013-01-25 19:59:00,
2013-01-25 21:00:00,29.3,23.3,29.97,SSE,158,0.9,2.7,78,0.00,,BKN050,0.00,VWS V14.01,2013-01-25 20:00:00,
2013-01-25 21:01:00,29.3,23.3,29.97,SSW,202,2.5,2.5,78,0.00,,BKN050,0.00,VWS V14.01,2013-01-25 20:01:00,
2013-01-25 21:02:00,29.1,23.1,29.97,ESE,112,0.9,3.1,78,0.00,,BKN050,0.00,VWS V14.01,2013-01-25 20:02:00,
2013-01-25 21:03:00,29.1,23.1,29.97,ENE,68,1.6,2.0,78,0.00,,OVC012,0.00,VWS V14.01,2013-01-25 20:03:00,
2013-01-25 21:04:00,29.1,23.4,29.97,West,270,0.0,1.6,79,0.00,,BKN050,0.00,VWS V14.01,2013-01-25 20:04:00,
2013-01-25 21:05:00,29.1,23.4,29.94,SSW,202,1.6,2.2,79,0.00,,BKN050,0.00,VWS V14.01,2013-01-25 20:05:00,
2013-01-25 21:06:00,29.1,23.4,29.94,South,180,0.9,1.6,79,0.00,,BKN050,0.00,VWS V14.01,2013-01-25 20:06:00,
2013-01-25 21:07:00,29.1,23.4,29.94,SSW,202,2.5,3.1,79,0.00,,BKN050,0.00,VWS V14.01,2013-01-25 20:07:00,
2013-01-25 21:08:00,29.1,23.4,29.94,SW,225,1.1,3.6,79,0.00,,BKN050,0.00,VWS V14.01,2013-01-25 20:08:00,
2013-01-25 21:09:00,29.1,23.4,29.94,SSW,202,0.9,1.1,79,0.00,,OVC012,0.00,VWS V14.01,2013-01-25 20:09:00,
2013-01-25 21:10:00,29.1,23.4,29.94,East,90,3.1,3.1,79,0.00,,BKN050,0.00,VWS V14.01,2013-01-25 20:10:00,
2013-01-25 21:11:00,29.1,23.4,29.94,SW,225,2.2,3.1,79,0.00,,BKN050,0.00,VWS V14.01,2013-01-25 20:11:00,
2013-01-25 21:12:00,29.1,23.1,29.94,SW,225,5.6,5.6,78,0.00,,BKN050,0.00,VWS V14.01,2013-01-25 20:12:00,
2013-01-25 21:13:00,29.1,23.1,29.94,West,270,2.5,5.6,78,0.00,,BKN050,0.00,VWS V14.01,2013-01-25 20:13:00,
2013-01-25 21:14:00,29.1,23.1,29.94,SW,225,2.0,3.1,78,0.00,,OVC012,0.00,VWS V14.01,2013-01-25 20:14:00,
2013-01-25 21:15:00,28.9,23.0,29.94,South,180,3.8,3.8,78,0.00,,BKN050,0.00,VWS V14.01,2013-01-25 20:15:00,
2013-01-25 21:16:00,28.9,23.0,29.94,South,180,3.8,3.8,78,0.00,,BKN050,0.00,VWS V14.01,2013-01-25 20:16:00,
2013-01-25 21:17:00,28.9,23.0,29.94,West,270,1.3,3.8,78,0.00,,BKN050,0.00,VWS V14.01,2013-01-25 20:17:00,
2013-01-25 21:18:00,28.9,23.0,29.94,NNE,22,1.3,3.4,78,0.00,,BKN050,0.00,VWS V14.01,2013-01-25 20:18:00,
2013-01-25 21:19:00,28.9,23.0,29.94,NNW,338,0.0,1.3,78,0.00,,OVC012,0.00,VWS V14.01,2013-01-25 20:19:00,
2013-01-25 21:20:00,28.9,23.0,29.94,SE,135,2.0,2.0,78,0.00,,BKN050,0.00,VWS V14.01,2013-01-25 20:20:00,
2013-01-25 21:21:00,28.9,23.0,29.94,WSW,248,0.0,2.0,78,0.00,,BKN050,0.00,VWS V14.01,2013-01-25 20:21:00,
2013-01-25 21:22:00,28.9,23.0,29.94,SSE,158,3.8,3.8,78,0.00,,BKN050,0.00,VWS V14.01,2013-01-25 20:22:00,
2013-01-25 21:23:00,28.9,23.0,29.94,SE,135,1.1,4.9,78,0.00,,BKN050,0.00,VWS V14.01,2013-01-25 20:23:00,
2013-01-25 21:24:00,28.9,23.0,29.94,NNE,22,0.0,1.1,78,0.00,,OVC012,0.00,VWS V14.01,2013-01-25 20:24:00,
2013-01-25 21:25:00,28.9,23.0,29.94,South,180,2.7,2.7,78,0.00,,BKN050,0.00,VWS V14.01,2013-01-25 20:25:00,
2013-01-25 21:26:00,28.9,23.0,29.94,SE,135,2.0,2.7,78,0.00,,BKN050,0.00,VWS V14.01,2013-01-25 20:26:00,
2013-01-25 21:27:00,28.9,23.0,29.94,West,270,1.1,3.1,78,0.00,,BKN050,0.00,VWS V14.01,2013-01-25 20:27:00,
2013-01-25 21:28:00,28.8,22.8,29.94,SSE,158,2.5,3.4,78,0.00,,BKN050,0.00,VWS V14.01,2013-01-25 20:28:00,
2013-01-25 21:29:00,28.8,22.8,29.94,SE,135,2.0,3.4,78,0.00,,OVC012,0.00,VWS V14.01,2013-01-25 20:29:00,
2013-01-25 21:30:00,28.8,22.8,29.94,SSW,202,4.0,4.0,78,0.00,,BKN050,0.00,VWS V14.01,2013-01-25 20:30:00,
2013-01-25 21:31:00,28.8,22.8,29.94,SSE,158,1.1,4.0,78,0.00,,BKN050,0.00,VWS V14.01,2013-01-25 20:31:00,
2013-01-25 21:32:00,28.8,22.8,29.94,SW,225,0.9,1.6,78,0.00,,BKN050,0.00,VWS V14.01,2013-01-25 20:32:00,
2013-01-25 21:33:00,28.8,22.8,29.94,West,270,2.0,2.0,78,0.00,,BKN050,0.00,VWS V14.01,2013-01-25 20:33:00,
2013-01-25 21:34:00,28.8,22.8,29.94,SSW,202,0.9,2.0,78,0.00,,OVC012,0.00,VWS V14.01,2013-01-25 20:34:00,
2013-01-25 21:35:00,28.8,22.8,29.94,West,270,4.7,5.6,78,0.00,,BKN050,0.00,VWS V14.01,2013-01-25 20:35:00,
2013-01-25 21:36:00,28.8,22.8,29.94,SSE,158,0.0,4.7,78,0.00,,BKN050,0.00,VWS V14.01,2013-01-25 20:36:00,
2013-01-25 21:37:00,28.8,22.8,29.94,SSW,202,0.0,2.0,78,0.00,,BKN050,0.00,VWS V14.01,2013-01-25 20:37:00,
2013-01-25 21:38:00,28.8,22.8,29.94,SSE,158,1.3,1.3,78,0.00,,BKN050,0.00,VWS V14.01,2013-01-25 20:38:00,
2013-01-25 21:39:00,28.8,22.8,29.94,SSW,202,2.7,2.7,78,0.00,,OVC012,0.00,VWS V14.01,2013-01-25 20:39:00,
2013-01-25 21:40:00,28.8,22.8,29.94,South,180,0.0,3.6,78,0.00,,BKN050,0.00,VWS V14.01,2013-01-25 20:40:00,
2013-01-25 21:41:00,28.8,22.8,29.94,SSW,202,0.0,2.5,78,0.00,,BKN050,0.00,VWS V14.01,2013-01-25 20:41:00,
2013-01-25 21:42:00,28.8,22.8,29.94,SSW,202,1.1,1.1,78,0.00,,BKN050,0.00,VWS V14.01,2013-01-25 20:42:00,
2013-01-25 21:43:00,28.8,22.8,29.94,SW,225,1.6,2.2,78,0.00,,BKN050,0.00,VWS V14.01,2013-01-25 20:43:00,
2013-01-25 21:44:00,28.8,22.8,29.94,NE,45,0.9,2.0,78,0.00,,OVC012,0.00,VWS V14.01,2013-01-25 20:44:00,
2013-01-25 21:45:00,28.8,22.8,29.94,SSW,202,1.1,2.9,78,0.00,,BKN050,0.00,VWS V14.01,2013-01-25 20:45:00,
2013-01-25 21:46:00,28.8,22.8,29.94,WSW,248,1.6,2.0,78,0.00,,BKN050,0.00,VWS V14.01,2013-01-25 20:46:00,
2013-01-25 21:47:00,28.8,22.8,29.94,East,90,1.6,1.6,78,0.00,,BKN050,0.00,VWS V14.01,2013-01-25 20:47:00,
2013-01-25 21:48:00,28.8,22.8,29.94,SSW,202,2.5,2.5,78,0.00,,BKN050,0.00,VWS V14.01,2013-01-25 20:48:00,
2013-01-25 21:49:00,28.8,23.1,29.94,SSE,158,0.0,2.5,79,0.00,,OVC011,0.00,VWS V14.01,2013-01-25 20:49:00,
2013-01-25 21:50:00,28.8,23.1,29.94,West,270,0.9,1.1,79,0.00,,BKN050,0.00,VWS V14.01,2013-01-25 20:50:00,
2013-01-25 21:51:00,28.8,23.1,29.94,WNW,292,2.0,2.0,79,0.00,,BKN050,0.00,VWS V14.01,2013-01-25 20:51:00,
2013-01-25 21:52:00,28.8,23.1,29.94,South,180,1.3,2.0,79,0.00,,BKN050,0.00,VWS V14.01,2013-01-25 20:52:00,
2013-01-25 21:53:00,28.8,23.1,29.94,SW,225,2.2,2.5,79,0.00,,BKN050,0.00,VWS V14.01,2013-01-25 20:53:00,
2013-01-25 21:54:00,28.6,22.9,29.94,SW,225,3.4,3.4,79,0.00,,OVC011,0.00,VWS V14.01,2013-01-25 20:54:00,
2013-01-25 21:55:00,28.6,22.9,29.94,SSW,202,1.3,2.0,79,0.00,,BKN050,0.00,VWS V14.01,2013-01-25 20:55:00,
2013-01-25 21:56:00,28.6,22.9,29.94,West,270,1.6,3.1,79,0.00,,BKN050,0.00,VWS V14.01,2013-01-25 20:56:00,
2013-01-25 21:57:00,28.6,22.9,29.94,SSE,158,2.7,2.7,79,0.00,,BKN050,0.00,VWS V14.01,2013-01-25 20:57:00,
2013-01-25 21:58:00,28.6,22.9,29.94,South,180,2.9,2.9,79,0.00,,BKN050,0.00,VWS V14.01,2013-01-25 20:58:00,
2013-01-25 21:59:00,28.6,22.9,29.94,NW,315,1.1,2.9,79,0.00,,OVC011,0.00,VWS V14.01,2013-01-25 20:59:00,
2013-01-25 22:01:00,28.8,23.1,29.94,South,180,2.2,2.2,79,0.00,,BKN050,0.00,VWS V14.01,2013-01-25 21:01:00,
2013-01-25 22:03:00,28.8,23.1,29.94,West,270,1.6,2.5,79,0.00,,BKN050,0.00,VWS V14.01,2013-01-25 21:03:00,
2013-01-25 22:04:00,28.8,23.1,29.94,West,270,1.1,1.6,79,0.00,,OVC011,0.00,VWS V14.01,2013-01-25 21:04:00,
2013-01-25 22:05:00,28.8,23.1,29.94,SE,135,0.0,3.1,79,0.00,,BKN050,0.00,VWS V14.01,2013-01-25 21:05:00,
2013-01-25 22:06:00,28.6,22.9,29.94,South,180,1.1,2.7,79,0.00,,BKN050,0.00,VWS V14.01,2013-01-25 21:06:00,
2013-01-25 22:08:00,28.8,23.1,29.94,West,270,1.3,1.3,79,0.00,,BKN050,0.00,VWS V14.01,2013-01-25 21:08:00,
2013-01-25 22:09:00,28.8,23.1,29.94,West,270,0.0,1.3,79,0.00,,OVC011,0.00,VWS V14.01,2013-01-25 21:09:00,
2013-01-25 22:10:00,28.8,23.1,29.94,SW,225,1.1,1.1,79,0.00,,BKN050,0.00,VWS V14.01,2013-01-25 21:10:00,
2013-01-25 22:11:00,28.8,23.1,29.94,SW,225,1.1,1.1,79,0.00,,BKN050,0.00,VWS V14.01,2013-01-25 21:11:00,
2013-01-25 22:12:00,28.6,22.9,29.94,SW,225,4.9,4.9,79,0.00,,BKN050,0.00,VWS V14.01,2013-01-25 21:12:00,
2013-01-25 22:13:00,28.6,22.9,29.94,SSW,202,0.9,4.9,79,0.00,,BKN050,0.00,VWS V14.01,2013-01-25 21:13:00,
2013-01-25 22:14:00,28.6,22.9,29.94,SE,135,2.0,2.0,79,0.00,,OVC011,0.00,VWS V14.01,2013-01-25 21:14:00,
2013-01-25 22:15:00,28.6,22.9,29.94,SSE,158,0.9,2.0,79,0.00,,BKN050,0.00,VWS V14.01,2013-01-25 21:15:00,
2013-01-25 22:16:00,28.6,22.9,29.94,East,90,1.6,1.6,79,0.00,,BKN050,0.00,VWS V14.01,2013-01-25 21:16:00,
2013-01-25 22:17:00,28.6,22.9,29.94,North,0,1.3,2.0,79,0.00,,BKN050,0.00,VWS V14.01,2013-01-25 21:17:00,
2013-01-25 22:18:00,28.6,22.9,29.94,East,90,0.0,1.3,79,0.00,,BKN050,0.00,VWS V14.01,2013-01-25 21:18:00,
2013-01-25 22:19:00,28.6,22.9,29.91,SE,135,0.9,2.0,79,0.00,,OVC011,0.00,VWS V14.01,2013-01-25 21:19:00,
2013-01-25 22:20:00,28.6,22.9,29.91,East,90,6.0,6.0,79,0.00,,BKN050,0.00,VWS V14.01,2013-01-25 21:20:00,
2013-01-25 22:21:00,28.6,22.9,29.91,SE,135,2.5,6.0,79,0.00,,BKN050,0.00,VWS V14.01,2013-01-25 21:21:00,
2013-01-25 22:22:00,28.6,23.2,29.91,SE,135,1.1,2.5,80,0.00,,BKN050,0.00,VWS V14.01,2013-01-25 21:22:00,
2013-01-25 22:23:00,28.6,23.2,29.91,South,180,2.5,2.9,80,0.00,,BKN050,0.00,VWS V14.01,2013-01-25 21:23:00,
2013-01-25 22:24:00,28.6,23.2,29.91,ESE,112,0.9,3.4,80,0.00,,OVC011,0.00,VWS V14.01,2013-01-25 21:24:00,
2013-01-25 22:25:00,28.6,23.2,29.91,NE,45,0.0,1.1,80,0.00,,BKN050,0.00,VWS V14.01,2013-01-25 21:25:00,
2013-01-25 22:26:00,28.6,23.2,29.91,WNW,292,0.9,1.1,80,0.00,,BKN050,0.00,VWS V14.01,2013-01-25 21:26:00,
2013-01-25 22:27:00,28.6,23.2,29.91,SW,225,1.6,1.6,80,0.00,,BKN050,0.00,VWS V14.01,2013-01-25 21:27:00,
2013-01-25 22:28:00,28.6,23.2,29.91,SW,225,1.1,1.6,80,0.00,,BKN050,0.00,VWS V14.01,2013-01-25 21:28:00,
2013-01-25 22:29:00,28.6,23.2,29.91,ESE,112,0.0,0.0,80,0.00,,OVC011,0.00,VWS V14.01,2013-01-25 21:29:00,
2013-01-25 22:30:00,28.4,23.0,29.91,SW,225,2.5,2.5,80,0.00,,BKN050,0.00,VWS V14.01,2013-01-25 21:30:00,
2013-01-25 22:31:00,28.4,23.0,29.91,South,180,1.6,2.5,80,0.00,,BKN050,0.00,VWS V14.01,2013-01-25 21:31:00,
2013-01-25 22:32:00,28.4,23.0,29.91,SSE,158,1.6,3.6,80,0.00,,BKN050,0.00,VWS V14.01,2013-01-25 21:32:00,
2013-01-25 22:33:00,28.4,23.0,29.91,East,90,2.0,3.4,80,0.00,,BKN050,0.00,VWS V14.01,2013-01-25 21:33:00,
2013-01-25 22:34:00,28.4,23.0,29.91,South,180,1.3,2.2,80,0.00,,OVC011,0.00,VWS V14.01,2013-01-25 21:34:00,
2013-01-25 22:35:00,28.4,23.0,29.91,ENE,68,2.0,2.7,80,0.00,,BKN050,0.00,VWS V14.01,2013-01-25 21:35:00,
2013-01-25 22:36:00,28.2,22.9,29.91,ESE,112,1.1,2.7,80,0.00,,BKN050,0.00,VWS V14.01,2013-01-25 21:36:00,
2013-01-25 22:37:00,28.2,22.9,29.91,West,270,1.6,2.5,80,0.00,,BKN050,0.00,VWS V14.01,2013-01-25 21:37:00,
2013-01-25 22:38:00,28.2,22.9,29.91,SE,135,0.0,1.6,80,0.00,,BKN050,0.00,VWS V14.01,2013-01-25 21:38:00,
2013-01-25 22:39:00,28.2,22.9,29.91,ESE,112,3.1,3.1,80,0.00,,OVC011,0.00,VWS V14.01,2013-01-25 21:39:00,
2013-01-25 22:40:00,28.2,22.9,29.91,South,180,2.9,3.1,80,0.00,,BKN050,0.00,VWS V14.01,2013-01-25 21:40:00,
2013-01-25 22:41:00,28.2,22.9,29.91,South,180,3.1,3.1,80,0.00,,BKN050,0.00,VWS V14.01,2013-01-25 21:41:00,
2013-01-25 22:42:00,28.2,22.9,29.91,East,90,2.7,3.1,80,0.00,,BKN050,0.00,VWS V14.01,2013-01-25 21:42:00,
2013-01-25 22:43:00,28.2,22.9,29.91,ENE,68,2.0,2.7,80,0.00,,BKN050,0.00,VWS V14.01,2013-01-25 21:43:00,
2013-01-25 22:44:00,28.2,22.9,29.91,South,180,1.3,1.3,80,0.00,,OVC011,0.00,VWS V14.01,2013-01-25 21:44:00,
2013-01-25 22:45:00,28.0,22.7,29.91,East,90,2.0,2.0,80,0.00,,BKN050,0.00,VWS V14.01,2013-01-25 21:45:00,
2013-01-25 22:46:00,28.0,22.7,29.91,NE,45,0.9,4.0,80,0.00,,BKN050,0.00,VWS V14.01,2013-01-25 21:46:00,
2013-01-25 22:47:00,28.0,22.7,29.91,NE,45,0.9,0.9,80,0.00,,BKN050,0.00,VWS V14.01,2013-01-25 21:47:00,
2013-01-25 22:48:00,28.0,22.7,29.91,South,180,1.1,3.1,80,0.00,,BKN050,0.00,VWS V14.01,2013-01-25 21:48:00,
2013-01-25 22:49:00,28.0,22.7,29.91,SE,135,2.9,2.9,80,0.00,,OVC011,0.00,VWS V14.01,2013-01-25 21:49:00,
2013-01-25 22:50:00,28.0,22.7,29.91,SE,135,1.1,2.9,80,0.00,,BKN050,0.00,VWS V14.01,2013-01-25 21:50:00,
2013-01-25 22:51:00,28.0,22.7,29.91,South,180,3.4,3.4,80,0.00,,BKN050,0.00,VWS V14.01,2013-01-25 21:51:00,
2013-01-25 22:52:00,28.0,23.0,29.91,South,180,1.1,3.6,81,0.00,,BKN050,0.00,VWS V14.01,2013-01-25 21:52:00,
2013-01-25 22:53:00,28.0,23.0,29.91,East,90,1.6,3.4,81,0.00,,BKN050,0.00,VWS V14.01,2013-01-25 21:53:00,
2013-01-25 22:54:00,28.0,23.0,29.91,SSW,202,4.0,4.0,81,0.00,,BKN050,0.00,VWS V14.01,2013-01-25 21:54:00,
2013-01-25 22:55:00,28.0,23.0,29.91,SE,135,2.5,4.0,81,0.00,,OVC011,0.00,VWS V14.01,2013-01-25 21:55:00,
2013-01-25 22:56:00,28.0,23.0,29.91,ENE,68,2.0,3.1,81,0.00,,BKN050,0.00,VWS V14.01,2013-01-25 21:56:00,
2013-01-25 22:57:00,27.9,22.8,29.91,SE,135,3.1,4.3,81,0.00,,BKN050,0.00,VWS V14.01,2013-01-25 21:57:00,
2013-01-25 22:58:00,27.9,22.8,29.91,East,90,0.9,3.1,81,0.00,,BKN050,0.00,VWS V14.01,2013-01-25 21:58:00,
2013-01-25 22:59:00,27.9,22.8,29.91,West,270,0.0,2.2,81,0.00,,BKN050,0.00,VWS V14.01,2013-01-25 21:59:00,
2013-01-25 23:00:00,27.9,22.8,29.91,SSW,202,1.3,1.3,81,0.00,,OVC011,0.00,VWS V14.01,2013-01-25 22:00:00,
2013-01-25 23:01:00,27.9,22.8,29.91,West,270,0.9,2.0,81,0.00,,BKN050,0.00,VWS V14.01,2013-01-25 22:01:00,
2013-01-25 23:02:00,28.0,23.0,29.91,West,270,2.5,2.5,81,0.00,,BKN050,0.00,VWS V14.01,2013-01-25 22:02:00,
2013-01-25 23:03:00,28.0,23.0,29.91,South,180,4.7,5.6,81,0.00,,BKN050,0.00,VWS V14.01,2013-01-25 22:03:00,
2013-01-25 23:04:00,28.0,23.0,29.91,ESE,112,1.6,4.7,81,0.00,,BKN050,0.00,VWS V14.01,2013-01-25 22:04:00,
2013-01-25 23:05:00,28.0,23.0,29.91,SW,225,2.7,2.7,81,0.00,,OVC010,0.00,VWS V14.01,2013-01-25 22:05:00,
2013-01-25 23:06:00,28.0,23.0,29.91,West,270,3.4,3.4,81,0.00,,BKN050,0.00,VWS V14.01,2013-01-25 22:06:00,
2013-01-25 23:07:00,28.0,23.0,29.91,North,0,1.6,3.4,81,0.00,,BKN050,0.00,VWS V14.01,2013-01-25 22:07:00,
2013-01-25 23:08:00,28.0,23.0,29.91,SSE,158,1.6,1.6,81,0.00,,BKN050,0.00,VWS V14.01,2013-01-25 22:08:00,
2013-01-25 23:09:00,28.0,23.0,29.91,SW,225,1.1,1.6,81,0.00,,BKN050,0.00,VWS V14.01,2013-01-25 22:09:00,
2013-01-25 23:10:00,28.0,23.0,29.91,SE,135,0.9,2.0,81,0.00,,OVC010,0.00,VWS V14.01,2013-01-25 22:10:00,
2013-01-25 23:11:00,28.0,23.0,29.91,WNW,292,0.0,0.0,81,0.00,,BKN050,0.00,VWS V14.01,2013-01-25 22:11:00,
2013-01-25 23:12:00,28.0,23.3,29.91,SSE,158,1.1,2.2,82,0.00,,BKN050,0.00,VWS V14.01,2013-01-25 22:12:00,
2013-01-25 23:13:00,28.0,23.3,29.91,SSE,158,1.1,1.1,82,0.00,,BKN050,0.00,VWS V14.01,2013-01-25 22:13:00,
2013-01-25 23:14:00,28.0,23.3,29.91,South,180,1.6,2.2,82,0.00,,BKN050,0.00,VWS V14.01,2013-01-25 22:14:00,
2013-01-25 23:15:00,28.0,23.3,29.91,East,90,1.6,1.6,82,0.00,,OVC010,0.00,VWS V14.01,2013-01-25 22:15:00,
2013-01-25 23:16:00,28.0,23.3,29.91,NNE,22,0.0,1.1,82,0.00,,BKN050,0.00,VWS V14.01,2013-01-25 22:16:00,
2013-01-25 23:17:00,28.0,23.3,29.91,SSE,158,1.1,1.1,82,0.00,,BKN050,0.00,VWS V14.01,2013-01-25 22:17:00,
2013-01-25 23:18:00,28.0,23.3,29.91,SSE,158,2.2,2.2,82,0.00,,BKN050,0.00,VWS V14.01,2013-01-25 22:18:00,
2013-01-25 23:19:00,28.0,23.3,29.91,SW,225,2.9,2.9,82,0.00,,BKN050,0.00,VWS V14.01,2013-01-25 22:19:00,
2013-01-25 23:20:00,28.0,23.3,29.91,SSW,202,1.1,2.9,82,0.00,,OVC010,0.00,VWS V14.01,2013-01-25 22:20:00,
2013-01-25 23:21:00,28.0,23.3,29.91,NE,45,2.0,3.8,82,0.00,,BKN050,0.00,VWS V14.01,2013-01-25 22:21:00,
2013-01-25 23:22:00,28.2,23.4,29.91,South,180,1.6,2.9,82,0.00,,BKN050,0.00,VWS V14.01,2013-01-25 22:22:00,
2013-01-25 23:23:00,28.2,23.4,29.91,SSW,202,1.1,2.2,82,0.00,,BKN050,0.00,VWS V14.01,2013-01-25 22:23:00,
2013-01-25 23:24:00,28.2,23.4,29.91,East,90,1.1,2.9,82,0.00,,BKN050,0.00,VWS V14.01,2013-01-25 22:24:00,
2013-01-25 23:25:00,28.2,23.4,29.91,NNW,338,1.1,2.5,82,0.00,,OVC010,0.00,VWS V14.01,2013-01-25 22:25:00,
2013-01-25 23:26:00,28.2,23.4,29.91,ESE,112,2.2,2.2,82,0.00,,BKN050,0.00,VWS V14.01,2013-01-25 22:26:00,
2013-01-25 23:27:00,28.2,23.4,29.91,SE,135,2.0,2.2,82,0.00,,BKN050,0.00,VWS V14.01,2013-01-25 22:27:00,
2013-01-25 23:28:00,28.2,23.4,29.91,SSW,202,1.1,2.5,82,0.00,,BKN050,0.00,VWS V14.01,2013-01-25 22:28:00,
2013-01-25 23:29:00,28.2,23.4,29.91,SE,135,1.3,2.5,82,0.00,,BKN050,0.00,VWS V14.01,2013-01-25 22:29:00,
2013-01-25 23:30:00,28.2,23.4,29.91,South,180,1.1,1.3,82,0.00,,OVC010,0.00,VWS V14.01,2013-01-25 22:30:00,
2013-01-25 23:32:00,28.2,23.4,29.91,North,0,1.1,1.6,82,0.00,,BKN050,0.00,VWS V14.01,2013-01-25 22:32:00,
2013-01-25 23:33:00,28.2,23.4,29.91,ENE,68,4.0,5.4,82,0.00,,BKN050,0.00,VWS V14.01,2013-01-25 22:33:00,
2013-01-25 23:34:00,28.2,23.4,29.88,WSW,248,3.4,4.0,82,0.00,,BKN050,0.00,VWS V14.01,2013-01-25 22:34:00,
2013-01-25 23:35:00,28.0,23.3,29.88,SW,225,2.7,4.0,82,0.00,,OVC008,0.00,VWS V14.01,2013-01-25 22:35:00,
2013-01-25 23:36:00,28.2,23.4,29.88,SSE,158,0.0,2.9,82,0.00,,BKN050,0.00,VWS V14.01,2013-01-25 22:36:00,
2013-01-25 23:37:00,28.2,23.4,29.88,SSE,158,1.3,1.3,82,0.00,,BKN050,0.00,VWS V14.01,2013-01-25 22:37:00,
2013-01-25 23:38:00,28.2,23.7,29.88,SE,135,1.1,2.0,83,0.00,,BKN050,0.00,VWS V14.01,2013-01-25 22:38:00,
2013-01-25 23:39:00,28.2,23.7,29.88,West,270,2.0,3.4,83,0.00,,BKN050,0.00,VWS V14.01,2013-01-25 22:39:00,
2013-01-25 23:40:00,28.2,23.7,29.88,WNW,292,0.0,2.0,83,0.00,,OVC008,0.00,VWS V14.01,2013-01-25 22:40:00,
2013-01-25 23:41:00,28.2,23.7,29.88,West,270,3.6,4.3,83,0.00,,BKN050,0.00,VWS V14.01,2013-01-25 22:41:00,
2013-01-25 23:42:00,28.2,23.7,29.88,WSW,248,1.6,3.6,83,0.00,,BKN050,0.00,VWS V14.01,2013-01-25 22:42:00,
2013-01-25 23:43:00,28.2,23.7,29.88,West,270,1.1,2.9,83,0.00,,BKN050,0.00,VWS V14.01,2013-01-25 22:43:00,
2013-01-25 23:44:00,28.2,23.7,29.88,WSW,248,0.9,3.1,83,0.00,,BKN050,0.00,VWS V14.01,2013-01-25 22:44:00,
2013-01-25 23:45:00,28.2,23.7,29.88,South,180,1.6,1.6,83,0.00,,OVC008,0.00,VWS V14.01,2013-01-25 22:45:00,
2013-01-25 23:46:00,28.2,23.7,29.88,SE,135,2.2,2.7,83,0.00,,BKN050,0.00,VWS V14.01,2013-01-25 22:46:00,
2013-01-25 23:47:00,28.2,23.7,29.88,SSW,202,3.4,3.6,83,0.00,,BKN050,0.00,VWS V14.01,2013-01-25 22:47:00,
2013-01-25 23:48:00,28.2,23.7,29.88,East,90,1.6,3.4,83,0.00,,BKN050,0.00,VWS V14.01,2013-01-25 22:48:00,
2013-01-25 23:49:00,28.2,23.7,29.85,NE,45,1.3,5.8,83,0.00,,BKN050,0.00,VWS V14.01,2013-01-25 22:49:00,
2013-01-25 23:50:00,28.2,23.7,29.85,SE,135,1.6,1.6,83,0.00,,OVC008,0.00,VWS V14.01,2013-01-25 22:50:00,
2013-01-25 23:51:00,28.2,23.7,29.85,East,90,2.9,3.4,83,0.00,,BKN050,0.00,VWS V14.01,2013-01-25 22:51:00,
2013-01-25 23:52:00,28.2,23.7,29.85,North,0,1.1,2.9,83,0.00,,BKN050,0.00,VWS V14.01,2013-01-25 22:52:00,
2013-01-25 23:53:00,28.2,23.7,29.85,SE,135,2.5,3.8,83,0.00,,BKN050,0.00,VWS V14.01,2013-01-25 22:53:00,
2013-01-25 23:54:00,28.2,23.7,29.85,SW,225,1.1,2.5,83,0.00,,BKN050,0.00,VWS V14.01,2013-01-25 22:54:00,
2013-01-25 23:55:00,28.4,23.9,29.85,ENE,68,0.9,1.6,83,0.00,,OVC008,0.00,VWS V14.01,2013-01-25 22:55:00,
2013-01-25 23:56:00,28.4,23.9,29.85,SW,225,1.3,1.6,83,0.00,,BKN050,0.00,VWS V14.01,2013-01-25 22:56:00,
2013-01-25 23:57:00,28.4,23.9,29.85,SW,225,2.9,3.1,83,0.00,,BKN050,0.00,VWS V14.01,2013-01-25 22:57:00,
2013-01-25 23:58:00,28.4,23.9,29.85,WSW,248,1.3,2.9,83,0.00,,BKN050,0.00,VWS V14.01,2013-01-25 22:58:00,
2013-01-25 23:59:00,28.2,23.7,29.85,South,180,1.3,4.3,83,0.00,,BKN050,0.00,VWS V14.01,2013-01-25 22:59:00,